GFSSGP_700_rhum_003.txt.gz
RH
2 3 10 24 16 12 12 14 17 16 20 45 39 40 57 69 49 75 30 15 15 18 19 21 20 18 20 24 23 23 25 28 34 39 44 68 71 88 90 81 90 92 92 82 99 84 77 65 40
1 6 15 17 15 13 12 17 16 17 18 32 48 40 50 59 78 28 52 18 17 17 19 21 21 21 21 21 20 21 22 32 33 27 38 42 81 80 80 86 68 68 89 98 99 79 67 71 64
1 6 14 13 12 14 19 18 18 15 21 27 44 60 63 87 27 26 21 19 20 22 24 24 24 23 23 22 22 21 19 21 34 34 32 29 51 67 60 80 76 78 67 91 95 85 78 76 69
6 8 12 13 13 17 20 19 19 16 26 30 41 54 24 25 21 19 20 23 25 23 23 23 23 22 22 22 22 22 22 23 25 28 40 45 43 51 45 52 83 83 78 98 99 99 90 68 66
8 11 10 11 13 14 17 20 22 20 36 42 42 60 33 25 23 21 24 24 24 23 21 21 23 26 29 28 25 23 20 20 25 26 34 49 63 48 30 33 57 96 94 97 95 90 94 76 45
12 11 10 11 13 14 17 20 26 33 40 49 48 69 59 26 27 27 13 15 22 22 23 24 24 25 27 26 24 22 19 17 16 19 22 24 48 54 60 46 15 31 47 54 75 89 82 50 49
12 11 10 11 13 14 16 17 21 24 34 31 43 51 57 28 27 14 12 13 19 26 27 27 26 25 23 19 17 16 17 18 17 16 16 19 28 41 49 46 61 33 14 28 26 19 23 28 63
13 10 10 11 12 14 16 20 22 21 20 8 22 42 67 24 19 11 14 13 13 25 28 31 29 20 24 24 27 30 28 26 28 34 28 22 27 36 47 58 82 74 50 31 28 39 38 35 37
13 10 11 11 12 13 14 14 24 14 25 15 10 21 46 12 13 15 16 15 18 24 27 30 31 32 31 30 38 37 34 37 40 40 36 35 33 33 38 45 49 71 91 78 49 43 52 53 46
14 12 15 16 14 14 13 14 20 21 26 32 20 9 11 12 15 20 20 18 17 22 32 40 43 39 32 39 38 29 40 48 47 44 41 40 40 43 61 67 67 66 66 94 86 64 60 63 68
20 16 16 20 21 20 18 17 23 21 21 24 35 43 8 9 11 16 16 17 26 34 38 34 30 36 40 38 32 32 37 43 43 43 45 48 49 42 45 36 33 38 33 70 82 92 97 98 94
23 24 25 29 28 26 25 28 26 26 25 31 38 48 23 28 26 22 21 28 33 31 30 35 37 33 26 28 29 23 17 24 28 36 39 39 34 24 15 17 27 35 34 32 45 72 98 100 99
29 32 35 36 36 36 35 33 34 31 34 29 33 30 31 34 35 33 34 34 33 35 38 33 23 24 22 21 17 15 17 20 20 23 28 23 14 12 11 12 12 14 16 19 23 41 63 99 95
35 37 39 38 36 35 28 26 29 29 24 18 27 30 34 36 37 37 37 38 40 40 32 22 19 19 21 18 18 16 19 22 23 22 21 21 19 22 23 24 23 21 22 21 21 22 41 65 66
36 35 34 34 29 29 12 21 31 25 20 12 8 11 20 36 26 32 39 42 41 32 25 15 18 21 20 20 18 18 20 21 22 23 25 25 26 27 27 26 27 28 27 25 25 23 19 17 34
31 31 16 20 27 25 24 15 17 23 29 32 33 37 26 14 13 16 20 25 17 14 12 18 22 22 25 24 24 24 23 24 23 23 23 23 24 24 26 28 30 32 33 29 23 22 21 18 15
19 17 20 21 22 24 21 19 17 19 23 28 27 25 31 40 32 10 12 13 14 20 28 31 31 33 33 34 38 40 42 42 40 41 40 42 38 31 28 30 33 36 39 37 32 26 24 22 19
21 24 24 23 21 25 26 25 23 22 21 21 21 26 27 28 39 40 14 15 22 29 30 31 36 38 41 42 45 50 57 63 65 64 61 57 53 48 36 35 36 40 44 44 42 35 28 24 24
32 30 28 25 28 32 30 28 23 20 21 21 24 29 30 30 34 44 18 20 25 27 28 34 36 37 40 42 46 53 57 64 70 68 61 54 48 44 41 45 50 53 53 51 48 40 32 28 25
28 28 27 28 30 34 30 25 22 23 25 25 24 32 27 21 21 23 24 25 27 28 27 30 32 34 34 42 45 51 61 68 70 64 57 49 44 48 52 57 62 62 58 52 45 40 36 31 28
28 33 33 35 36 30 29 20 20 24 27 24 28 29 34 31 30 29 30 30 30 33 38 40 44 44 40 42 52 55 61 65 66 56 46 47 54 60 67 68 62 57 53 48 44 39 35 33 29
30 34 41 40 37 28 30 18 20 23 24 29 34 38 41 36 36 35 37 38 38 39 41 47 47 46 50 52 56 56 57 56 59 69 63 77 78 75 71 66 63 59 55 50 48 60 37 34 34
38 33 45 44 42 36 29 26 18 25 24 26 31 38 42 30 32 34 37 38 40 42 44 47 52 54 59 61 58 61 58 60 52 50 60 82 86 91 73 69 66 64 62 62 56 49 45 40 45
34 44 38 42 41 38 33 30 20 22 26 29 33 38 40 40 38 41 48 52 45 48 53 56 56 56 60 64 62 64 64 66 63 65 86 95 96 96 95 92 91 88 65 67 60 50 42 38 35
48 43 41 40 36 34 33 36 25 25 30 31 36 42 49 56 63 67 67 69 67 58 61 62 64 63 63 71 72 69 68 66 67 70 85 97 88 79 92 87 77 69 69 73 59 48 39 31 27
54 50 52 66 42 37 34 30 26 28 31 36 44 51 56 59 69 73 75 78 76 68 66 65 66 66 66 71 76 75 73 72 74 73 95 96 95 92 90 78 79 78 77 65 52 38 34 30 26
55 57 58 57 56 60 43 31 31 31 33 38 47 48 54 64 71 78 82 85 87 89 85 76 79 76 75 76 85 82 83 92 95 94 94 92 96 94 91 86 87 79 72 48 36 25 18 14 12
64 62 62 65 85 63 38 37 33 33 34 38 44 53 61 70 75 79 84 88 95 78 68 86 71 72 81 80 86 88 95 97 97 97 96 96 95 93 92 90 86 64 47 33 24 16 13 13 14
61 61 63 55 56 66 61 43 39 42 49 48 51 59 68 69 78 83 86 90 98 97 64 64 63 64 82 91 89 98 97 97 97 96 95 95 95 95 92 83 67 51 36 25 18 18 21 23 25
58 61 62 62 61 63 68 68 52 52 52 55 62 61 65 75 82 86 92 97 97 98 69 64 63 67 74 84 93 97 96 96 95 96 96 96 96 93 81 76 59 39 28 19 20 24 23 25 26

GFSSGP_700_rhum_006.txt.gz
RH
2 2 5 21 21 15 14 12 15 16 20 32 38 57 56 63 54 54 40 20 15 16 19 21 20 20 20 20 21 22 22 24 30 30 35 49 56 56 62 59 72 83 90 90 82 85 89 84 50
1 1 10 20 19 15 14 15 15 16 18 24 34 48 69 91 64 42 24 18 17 17 19 20 22 22 22 21 21 22 22 22 28 29 26 50 67 49 51 72 84 46 52 67 70 84 99 92 75
2 6 15 15 14 17 21 17 16 15 17 25 37 60 60 46 61 32 21 18 18 22 23 23 23 23 22 22 22 22 22 23 26 31 36 65 53 56 80 70 73 65 65 66 70 69 100 97 87
8 11 12 14 13 16 19 19 17 15 22 22 35 42 36 40 31 19 19 19 23 24 23 20 18 19 19 20 20 22 21 19 20 24 28 29 41 41 41 45 50 60 78 81 84 81 70 100 99
12 12 11 11 12 13 16 19 19 17 30 34 35 63 71 26 24 22 23 24 22 21 19 17 14 15 15 20 21 21 22 20 19 19 20 21 26 36 43 40 36 31 44 82 84 71 67 77 77
16 12 11 11 12 13 18 20 22 27 36 40 48 75 46 31 26 26 21 12 10 8 10 12 16 19 20 21 24 23 20 19 19 18 19 18 22 28 31 41 48 49 44 26 39 39 66 79 86
15 12 10 11 12 13 15 18 21 22 34 37 43 55 46 30 32 26 14 11 10 9 9 14 20 22 22 20 18 17 18 18 17 18 22 27 22 26 25 23 25 37 50 59 35 22 26 44 54
13 10 9 10 12 13 14 17 19 20 20 23 20 44 73 30 21 17 11 11 11 10 10 22 25 20 18 19 20 26 31 30 27 26 31 35 34 31 29 33 38 33 44 67 72 61 43 33 26
13 11 10 10 12 12 13 13 20 18 21 24 20 29 64 70 27 10 11 13 13 11 13 15 25 30 28 37 30 35 36 28 29 38 41 40 38 40 38 40 64 63 59 64 86 88 80 63 45
16 13 14 14 13 15 13 13 17 17 19 23 29 21 12 11 11 12 46 88 70 15 18 25 34 41 41 33 36 40 33 35 40 42 42 42 43 44 44 39 29 30 46 49 37 47 90 78 80
19 16 16 19 21 18 18 17 20 20 19 26 27 39 37 12 34 72 74 76 80 18 27 31 32 32 36 38 40 38 32 26 36 30 29 37 39 34 20 11 7 11 17 17 18 43 58 53 59
23 23 24 27 26 26 28 28 26 24 24 25 28 37 46 37 60 52 43 32 25 29 32 32 32 30 27 26 16 18 19 13 10 13 16 24 29 21 11 12 11 9 11 12 14 15 16 28 42
25 28 30 32 33 29 12 28 28 27 26 17 15 20 31 39 40 35 27 29 30 34 31 29 23 15 19 14 16 13 11 10 10 11 12 12 12 13 13 14 16 17 14 13 14 17 19 15 25
29 31 29 30 28 26 24 24 24 22 26 17 14 6 13 23 34 43 15 23 24 28 28 28 17 9 11 13 14 15 15 16 16 18 19 20 21 24 25 26 26 25 25 24 24 24 25 21 16
30 31 31 32 25 21 22 17 20 26 25 19 25 12 14 35 29 14 13 8 12 14 19 14 11 11 18 20 20 22 21 20 20 21 22 23 23 24 24 24 25 26 28 29 30 32 31 27 22
26 24 16 17 19 22 21 18 17 18 21 25 28 32 32 26 26 41 26 14 14 12 10 9 12 17 25 29 31 34 33 35 37 35 35 37 36 36 37 35 29 26 28 32 34 37 38 34 30
21 19 20 23 20 21 22 21 20 21 19 20 23 26 26 27 32 32 26 18 7 10 12 15 24 31 29 33 39 40 42 47 48 48 52 58 63 62 60 57 52 45 35 34 36 42 44 42 39
26 26 26 25 24 24 29 29 26 24 22 20 20 21 22 26 25 30 37 35 16 16 18 24 29 29 32 35 36 37 40 48 49 52 58 54 60 65 63 58 54 50 45 43 44 47 50 49 47
25 26 25 26 26 28 29 29 26 21 20 20 21 23 25 29 30 30 36 36 24 23 24 29 32 32 34 38 39 40 43 48 52 54 61 59 65 65 59 51 46 46 50 54 56 57 55 52 46
22 24 29 30 31 32 30 28 25 22 22 21 27 32 32 28 28 34 38 29 28 29 30 33 41 43 44 46 46 47 49 51 55 57 62 64 62 55 50 46 51 58 60 62 63 57 51 46 43
25 35 36 37 37 27 28 20 22 22 26 24 29 30 36 32 34 34 33 34 35 35 38 40 41 45 49 48 50 55 57 58 59 62 67 60 64 61 58 60 74 77 74 69 64 58 54 51 47
30 34 29 43 41 35 32 24 19 22 24 29 34 38 39 43 42 36 38 37 41 37 35 36 42 45 50 54 51 51 59 62 64 64 65 68 80 81 75 83 89 97 90 86 86 80 76 69 57
37 34 42 40 38 38 30 25 20 22 22 25 30 33 37 34 33 33 36 37 40 42 47 46 47 50 55 57 57 57 55 59 68 68 66 66 73 73 72 86 95 97 99 91 85 72 63 63 61
41 44 36 35 38 44 32 31 26 22 24 25 29 34 38 35 41 46 43 54 56 59 59 56 55 57 61 66 69 68 66 64 69 72 69 61 57 59 84 90 94 81 73 86 74 71 71 69 66
46 47 47 52 52 51 32 34 30 27 26 29 30 32 34 46 56 63 64 73 75 66 66 72 70 69 66 70 67 76 75 73 75 76 71 69 78 85 93 90 94 94 96 90 83 82 80 71 66
52 52 53 68 54 51 43 34 26 26 27 29 32 35 46 56 62 61 72 87 85 81 77 79 86 89 84 91 92 88 83 87 86 82 80 88 93 96 94 95 96 95 95 96 96 85 72 64 43
51 52 58 57 56 63 53 39 34 30 30 34 45 49 50 52 64 75 83 88 88 88 84 86 78 63 59 61 73 88 94 94 91 88 95 97 96 96 95 96 94 96 95 94 90 77 57 45 35
57 61 60 64 89 64 41 45 41 36 38 40 48 51 54 62 69 79 82 89 88 80 73 74 76 63 61 65 69 72 82 87 93 97 97 96 95 96 96 96 96 96 95 92 77 61 46 32 23
54 55 58 59 59 70 76 52 46 46 47 54 56 64 64 73 82 84 90 92 88 81 74 74 75 63 52 51 68 66 75 88 97 98 96 96 96 96 96 96 96 96 92 75 58 31 23 20 14
55 59 59 60 74 67 73 71 55 53 51 55 56 59 64 68 85 85 84 88 80 74 71 78 69 64 50 58 60 67 83 94 97 96 96 95 95 96 96 95 94 88 71 66 40 14 11 11 14

GFSSGP_700_rhum_009.txt.gz
RH
2 2 2 10 13 16 16 16 16 17 17 42 34 20 32 59 46 52 32 19 15 16 20 20 21 22 22 22 22 22 22 22 23 27 29 40 35 38 50 53 51 58 55 50 57 72 94 96 89
1 1 5 12 19 19 18 15 15 16 20 29 34 45 51 48 47 34 23 18 18 21 22 23 24 23 23 23 22 22 22 22 22 23 26 29 40 51 45 48 55 56 66 53 49 55 60 60 90
1 10 15 17 17 17 19 18 16 16 15 25 34 38 53 52 50 33 23 26 26 25 24 24 23 21 18 17 18 18 17 17 18 20 25 30 46 40 37 45 40 41 60 58 47 57 60 66 68
11 13 14 14 14 16 18 18 16 16 24 24 43 52 62 46 35 31 26 26 25 23 21 18 15 13 13 13 12 11 14 18 20 19 20 20 22 29 35 40 38 37 36 39 60 65 73 87 68
12 13 13 13 13 15 17 20 19 31 36 35 38 55 55 37 37 31 22 18 16 12 11 10 12 14 16 15 16 17 21 23 22 21 20 18 17 18 26 39 44 41 40 34 33 46 61 84 87
14 16 15 14 14 14 18 22 25 30 33 40 41 45 44 35 38 27 18 18 12 11 11 12 13 12 14 18 20 20 19 18 18 20 21 21 21 20 17 15 21 33 34 42 46 42 28 20 41
13 14 14 12 12 13 12 21 21 21 35 33 36 40 50 38 30 29 31 12 12 13 12 9 9 8 11 16 16 16 17 20 24 28 27 31 33 32 32 29 27 30 33 34 45 44 52 40 32
12 13 12 12 12 13 12 17 17 17 20 19 22 44 33 42 34 26 14 11 11 12 11 10 8 8 13 17 19 24 29 32 36 28 27 37 41 39 39 38 38 42 52 53 60 67 64 66 66
17 14 12 13 12 13 13 14 20 16 18 15 20 18 22 50 54 16 16 18 12 13 17 11 11 16 23 27 28 30 34 37 25 28 38 42 44 44 44 42 42 43 39 44 60 58 55 57 77
15 14 14 14 13 14 16 14 16 16 17 22 25 31 30 30 12 12 14 41 17 9 16 16 25 34 36 32 33 32 29 37 19 18 25 31 31 33 37 29 16 8 9 16 28 13 22 40 50
18 19 22 19 12 13 16 17 22 22 21 29 31 38 38 26 20 16 70 79 65 25 25 30 33 33 32 26 20 16 14 24 15 8 7 7 6 7 8 7 6 9 11 12 12 14 12 13 13
21 14 14 12 8 8 9 16 23 21 25 23 24 25 29 24 23 29 26 24 24 27 29 27 26 21 17 11 14 10 11 10 10 10 11 12 12 12 12 12 13 14 14 17 18 20 25 24 22
25 20 15 11 15 12 13 14 26 26 22 14 12 6 8 11 16 23 17 18 20 22 12 17 15 10 7 7 8 9 10 12 13 16 19 20 20 20 21 22 23 23 24 25 25 24 24 27 27
16 18 28 28 25 21 12 14 21 20 23 18 17 8 4 5 11 20 13 8 8 10 6 6 8 6 5 8 17 20 22 23 26 25 22 23 23 24 24 24 25 25 26 27 29 31 31 29 29
25 27 32 30 22 20 20 15 19 24 25 22 18 19 18 9 8 13 10 8 5 4 5 6 9 8 12 19 27 30 33 36 37 37 36 35 36 37 38 38 38 37 34 30 27 27 31 33 35
29 25 25 24 22 21 21 16 16 20 25 20 19 20 20 20 23 23 24 25 25 21 12 10 13 14 21 30 29 30 32 36 39 41 43 49 52 55 59 62 62 62 59 55 48 38 35 36 39
26 27 25 25 23 22 24 25 25 18 21 23 22 21 20 22 25 25 27 32 35 32 28 21 21 24 30 34 34 35 33 35 37 37 40 45 49 52 54 56 62 64 63 60 56 50 45 43 44
22 25 25 28 27 26 25 25 25 23 25 24 23 22 24 26 27 28 31 36 37 37 33 26 26 28 32 34 40 42 44 46 46 45 45 44 47 52 56 61 64 62 61 58 52 48 47 48 47
22 23 26 27 22 25 21 26 24 27 22 21 21 22 23 26 28 24 28 38 40 38 30 31 33 34 38 41 43 46 47 46 48 49 54 57 58 61 63 63 60 55 52 50 48 50 51 53 60
16 30 32 26 22 32 30 20 20 27 24 22 14 13 16 18 20 24 27 30 34 33 36 38 40 43 43 44 46 50 52 51 52 56 60 62 64 66 65 61 60 58 54 56 59 65 71 69 66
16 34 32 28 32 26 28 20 20 24 24 21 18 20 20 19 20 22 28 30 31 34 38 39 44 46 50 53 53 54 56 57 57 61 66 68 70 72 74 76 75 72 68 64 70 78 78 74 67
19 21 26 32 42 41 38 36 24 23 22 23 26 30 31 30 26 29 33 37 38 41 46 48 45 49 52 51 55 59 56 61 67 66 68 71 70 70 73 91 98 93 84 81 84 86 84 76 70
34 40 28 35 37 40 34 34 24 24 24 26 31 35 35 38 33 38 43 42 47 53 53 51 55 52 54 54 54 58 67 67 68 69 73 75 74 74 81 93 98 100 99 98 97 92 88 79 75
44 44 26 35 37 46 40 34 31 27 28 29 34 34 35 37 40 48 50 54 60 63 60 62 65 62 56 53 54 53 64 72 80 75 82 83 86 91 95 97 99 99 98 97 96 96 95 93 86
38 43 51 51 62 65 36 30 22 34 30 29 30 32 35 44 48 54 59 68 76 78 75 73 72 68 64 64 81 88 96 96 90 96 99 98 94 95 97 96 96 96 97 94 97 93 95 96 93
53 53 60 74 83 65 42 42 33 35 32 47 48 51 48 53 58 65 73 80 82 80 78 80 74 75 64 54 60 69 75 84 98 100 100 100 100 98 97 97 96 95 96 94 96 97 95 96 93
52 60 59 59 56 66 54 42 29 39 40 39 56 56 59 64 66 82 78 81 84 83 83 78 79 71 58 56 61 58 54 52 64 78 97 100 98 97 97 95 97 96 96 97 96 95 93 93 80
59 58 60 59 93 84 56 48 44 40 40 39 57 59 63 68 71 74 77 82 84 75 70 83 66 61 61 62 60 56 53 55 72 88 100 99 97 97 96 97 96 97 97 96 95 93 91 76 54
60 53 61 69 72 90 98 68 52 44 51 58 57 58 75 72 72 78 81 90 88 87 85 61 61 63 55 59 53 53 42 53 77 93 97 97 99 98 96 95 95 95 95 94 94 92 67 49 19
58 68 63 71 85 76 79 79 52 51 58 55 62 75 67 69 76 78 78 79 83 87 64 66 68 60 56 51 50 39 46 66 84 97 99 97 96 94 95 96 97 94 93 92 90 72 50 13 9

GFSSGP_700_rhum_012.txt.gz
RH
2 2 4 15 14 17 17 18 20 25 27 38 31 30 39 38 39 43 24 17 18 28 22 20 21 22 23 26 24 23 22 22 23 25 23 30 45 50 56 57 48 41 52 48 49 50 57 73 88
2 1 8 14 19 18 16 16 16 19 32 42 34 53 39 41 32 31 23 21 24 25 22 23 24 24 23 21 19 19 18 18 18 19 22 24 33 48 61 62 64 60 58 60 63 56 58 60 63
1 11 16 16 19 20 19 18 17 23 25 26 34 42 37 36 26 20 19 22 25 25 24 22 20 17 14 14 15 13 13 14 16 17 18 20 31 50 48 43 43 36 50 65 63 61 58 61 70
14 14 14 17 18 19 20 18 21 24 24 26 42 40 43 44 25 22 21 25 25 23 20 17 12 12 15 17 16 16 15 16 20 22 21 21 19 19 24 32 30 36 40 42 47 73 85 82 74
13 12 13 16 18 19 21 22 29 34 33 37 42 44 42 39 30 24 23 20 14 12 13 15 14 14 14 13 15 18 19 18 19 19 19 18 19 19 18 20 23 28 38 36 38 35 38 55 73
13 14 14 15 13 13 21 21 32 34 36 35 33 37 38 36 38 29 25 16 13 12 12 11 11 11 14 16 15 16 16 16 17 18 18 20 20 19 21 20 18 19 24 22 27 38 38 36 27
14 13 14 14 14 12 12 20 21 18 23 26 25 16 35 42 36 28 26 22 16 14 12 12 12 17 17 14 16 20 23 26 27 25 24 20 20 22 25 26 28 29 31 30 32 44 53 50 48
17 14 13 14 13 13 14 14 16 17 14 18 17 19 20 29 34 34 22 17 18 12 16 20 13 15 19 22 29 33 34 35 36 32 17 32 35 37 38 38 37 35 36 36 38 50 57 69 75
16 14 14 15 13 13 13 15 17 15 15 19 20 24 28 29 29 32 31 17 13 15 25 22 18 23 30 32 31 28 24 26 39 22 13 13 25 28 34 31 28 27 20 11 10 18 10 15 31
14 13 14 15 15 16 14 14 17 19 17 22 24 29 33 32 31 18 18 12 14 28 29 37 29 31 30 27 15 10 8 15 15 10 8 7 8 8 11 12 8 4 4 6 6 6 8 9 15
16 16 17 15 12 12 14 17 21 18 23 25 27 27 27 27 26 26 14 19 26 24 28 33 33 28 18 9 8 8 6 8 8 9 10 11 12 13 14 14 14 13 13 15 16 16 16 14 14
12 10 3 4 6 4 6 5 13 23 20 22 20 20 18 10 9 11 13 23 20 24 26 30 29 19 13 8 7 6 8 12 15 20 23 24 23 23 23 23 22 22 24 24 24 25 25 23 20
12 20 22 25 19 20 11 12 18 18 21 20 13 17 10 4 4 9 10 13 12 11 12 16 18 13 9 8 8 14 19 23 26 28 26 26 23 22 23 24 24 25 26 26 26 27 29 30 30
14 23 29 28 26 20 21 16 19 21 22 21 20 19 20 20 16 9 10 14 19 22 16 13 10 10 9 9 13 21 27 27 29 36 40 40 40 39 39 40 40 39 36 32 30 28 29 30 31
29 28 29 25 31 24 22 19 19 20 23 25 22 20 20 21 22 23 24 22 24 26 28 26 18 16 17 17 20 30 34 32 32 34 38 42 46 49 51 53 57 59 61 62 61 58 55 50 44
28 26 26 27 27 26 23 24 25 26 21 20 24 25 23 22 24 26 26 28 32 32 32 33 30 25 23 25 29 32 33 35 37 40 40 43 46 50 48 47 50 53 56 59 63 64 60 54 47
19 26 25 26 27 28 28 27 24 22 27 27 27 26 24 23 25 26 28 31 34 37 38 40 36 30 33 32 32 37 41 41 42 42 44 46 47 47 50 52 56 61 61 62 62 60 56 53 51
22 23 23 27 28 23 20 22 21 24 26 23 22 21 23 24 24 26 29 31 35 41 42 41 34 36 37 40 42 42 43 47 49 51 50 52 54 56 59 61 62 63 63 61 59 57 54 52 49
24 22 27 29 28 21 24 25 23 24 26 25 22 18 22 22 23 25 25 21 26 30 33 36 41 42 44 45 47 49 52 51 52 58 61 62 60 60 65 66 66 67 64 62 60 58 54 52 55
28 18 30 19 22 31 29 20 20 20 25 24 22 15 20 23 22 20 23 27 29 31 32 38 42 42 46 48 51 50 50 48 47 54 64 67 70 70 70 70 72 72 72 73 71 67 63 62 66
29 21 22 30 31 35 36 24 24 25 26 25 23 20 20 20 23 25 29 34 39 39 39 45 50 49 52 54 49 44 44 45 46 52 59 72 76 78 80 81 78 77 83 86 85 79 76 76 73
21 30 29 30 37 40 41 42 26 24 24 25 26 25 28 32 35 38 39 41 46 49 52 54 58 55 56 55 49 46 45 46 48 49 59 70 80 86 89 90 87 82 85 96 98 97 90 82 74
34 30 28 29 39 42 36 38 31 29 29 27 28 30 34 38 41 42 49 54 59 61 65 66 66 67 65 65 58 52 45 47 52 55 58 65 82 90 92 95 96 95 93 99 100 99 97 88 87
43 37 30 32 39 48 44 41 34 36 33 33 37 40 40 42 49 53 55 63 69 67 63 65 69 71 75 82 69 52 48 48 48 53 59 66 80 82 96 98 98 97 97 95 94 94 97 98 97
44 41 51 50 65 62 38 37 42 38 43 43 45 51 50 50 62 65 67 70 72 75 71 70 85 95 96 94 76 55 54 53 56 58 65 84 98 97 98 100 100 98 96 98 99 96 96 96 99
56 56 61 76 84 64 40 42 43 38 42 47 58 61 61 61 65 70 70 72 73 76 86 95 98 96 93 70 63 61 52 49 61 59 62 66 78 100 96 100 97 100 99 96 98 98 98 97 97
59 56 60 61 62 72 53 43 35 39 36 45 47 62 58 63 70 73 72 73 79 86 89 96 93 89 87 64 65 66 54 52 52 46 44 51 70 96 98 99 99 96 97 98 97 95 81 95 95
60 59 61 70 82 88 65 56 49 46 42 44 56 59 55 64 68 70 69 72 75 85 91 90 91 78 61 62 63 54 54 50 43 42 51 73 98 99 98 96 97 97 96 95 94 93 94 94 90
57 67 69 70 74 95 97 73 53 49 64 64 60 58 60 66 68 66 67 76 81 84 83 78 69 65 63 57 51 50 48 38 40 54 73 90 99 99 98 97 96 94 93 94 93 92 85 76 59
61 63 74 90 82 85 88 77 55 70 58 71 70 74 72 68 64 62 69 74 78 71 68 69 70 67 58 45 32 27 30 42 54 87 97 98 98 97 99 94 87 83 84 82 72 48 24 15 14

GFSSGP_700_rhum_015.txt.gz
RH
2 2 4 14 17 18 18 24 30 32 43 48 47 43 34 30 42 39 16 20 24 27 22 22 25 26 28 30 26 24 23 32 38 37 41 41 49 52 50 55 65 54 54 67 60 60 57 49 53
2 3 15 19 17 17 18 24 26 37 33 47 44 42 34 27 27 24 21 28 22 23 22 24 24 24 21 18 16 16 14 14 18 20 25 27 34 50 45 68 66 61 60 72 72 68 65 57 60
6 16 19 20 20 21 20 22 24 27 41 50 49 44 40 29 22 21 22 24 25 24 25 23 20 18 14 15 16 14 13 14 16 17 19 21 25 36 52 65 60 67 61 59 68 62 58 62 68
16 16 19 20 21 23 26 23 23 29 41 42 40 39 37 36 24 21 22 24 26 24 22 20 13 13 15 16 15 16 17 17 19 19 19 20 20 20 24 39 42 49 38 47 42 46 45 60 78
13 15 18 20 21 22 31 35 33 37 35 37 36 33 35 34 28 22 22 24 22 18 12 12 12 14 18 18 16 16 14 12 14 15 16 20 22 21 20 20 25 33 36 42 40 37 37 42 67
14 13 15 16 16 16 19 22 32 33 34 33 28 12 25 40 38 28 20 16 14 14 13 12 13 16 15 15 14 16 22 26 29 29 29 28 27 27 29 28 26 25 27 28 25 25 31 34 38
14 14 14 14 13 12 14 18 21 18 16 18 18 15 18 27 34 31 30 25 17 18 14 17 17 16 13 14 23 30 31 32 34 36 30 21 34 38 40 40 38 37 35 34 34 35 40 37 39
14 14 15 13 13 13 12 14 16 15 17 14 20 22 22 21 19 25 31 24 28 18 15 19 21 16 24 29 27 21 15 18 27 35 11 7 10 22 33 36 34 32 31 27 21 19 22 21 20
13 13 14 13 13 13 14 14 13 13 16 16 18 24 25 26 26 26 24 19 19 13 20 21 24 28 29 26 19 14 10 14 12 12 8 7 7 7 7 10 13 8 4 3 2 3 12 5 6
13 13 14 15 16 14 14 14 17 18 18 20 23 27 26 23 19 18 17 15 12 19 21 22 25 25 26 21 12 12 9 10 10 10 10 12 13 13 13 13 12 11 11 11 11 10 10 9 10
15 15 18 14 12 14 16 17 14 13 17 18 18 20 15 12 9 9 8 14 12 12 16 30 30 26 25 17 7 8 8 13 15 18 19 20 20 21 21 22 23 24 23 22 23 23 22 21 20
9 6 20 18 19 6 10 8 10 13 9 5 14 20 19 14 5 4 4 5 4 8 11 19 22 20 17 14 8 6 10 17 22 25 28 30 30 28 27 27 27 26 26 26 26 28 28 29 30
18 20 22 23 22 21 21 19 21 21 20 18 18 20 20 21 21 18 12 12 17 26 31 33 33 23 19 17 13 11 15 25 28 28 30 33 38 39 40 40 41 40 38 35 31 29 28 28 29
16 25 24 26 28 23 22 19 20 20 21 22 20 21 21 22 22 23 24 24 24 30 35 39 40 32 24 20 19 20 23 29 30 30 31 33 36 39 44 47 49 49 53 56 57 58 56 48 40
26 26 27 29 28 31 25 23 20 25 27 20 19 23 23 24 24 24 25 27 29 33 38 40 40 36 30 32 32 28 29 31 33 38 42 42 44 45 45 47 50 52 52 51 51 55 61 64 63
25 26 26 26 25 32 29 21 26 27 25 24 18 24 26 25 25 25 26 27 30 31 35 38 39 34 34 36 37 37 38 40 40 40 42 44 46 48 47 47 47 50 52 52 55 58 59 60 60
16 25 24 26 29 30 28 23 20 23 20 20 17 23 27 28 26 26 26 27 28 32 36 39 37 40 38 38 40 42 45 46 46 46 47 48 48 49 50 52 54 56 56 56 57 59 61 61 58
21 18 20 28 31 26 20 19 23 26 21 22 22 22 21 26 26 27 28 29 30 34 42 45 44 46 44 42 45 45 47 44 42 45 47 46 50 54 55 57 59 60 60 61 61 61 61 59 58
24 27 18 28 23 20 29 23 20 21 21 23 24 22 18 20 24 27 29 26 30 38 43 44 43 51 55 49 50 49 44 41 40 40 45 48 48 53 60 63 64 66 66 66 66 67 67 66 65
29 29 21 16 27 33 34 25 21 23 26 26 23 22 15 18 25 28 24 29 35 37 39 41 42 52 63 61 57 57 56 50 49 41 45 51 56 59 57 55 57 64 69 70 68 68 68 68 69
26 23 26 33 33 41 33 26 27 26 26 24 26 23 24 24 28 33 34 41 47 51 51 48 55 66 70 72 68 66 65 58 52 44 42 47 55 59 65 68 74 85 90 86 87 86 79 74 71
28 31 31 33 38 41 36 36 31 28 28 28 28 28 33 37 38 40 45 54 57 61 61 63 66 67 68 67 72 72 75 67 61 55 50 45 52 60 69 84 99 100 99 97 96 92 91 88 84
35 29 33 32 40 41 39 37 38 36 34 33 32 36 42 44 45 47 54 60 62 63 66 66 68 72 76 74 75 74 82 71 64 53 51 46 46 59 79 91 100 100 99 98 96 96 94 97 98
38 32 32 36 44 47 47 44 42 39 40 38 42 47 49 50 52 57 62 63 66 70 71 76 79 79 72 74 80 79 77 71 54 57 57 50 46 52 57 67 78 98 100 100 97 99 100 97 100
51 32 40 48 65 63 44 43 48 53 56 55 56 53 57 62 63 65 66 72 73 74 78 82 85 88 88 84 86 87 78 62 67 64 55 50 50 49 50 59 81 96 100 99 93 100 97 100 99
58 51 55 62 85 69 43 47 50 46 45 61 61 62 62 60 63 69 73 75 75 78 83 86 89 91 92 84 78 71 64 61 56 52 51 52 50 47 46 53 68 99 99 97 98 97 100 98 97
60 60 60 62 65 76 55 48 50 50 47 57 58 58 57 62 66 73 75 76 79 83 83 81 82 85 80 68 63 64 63 55 43 37 38 41 42 44 48 63 80 93 96 100 98 98 98 96 96
62 62 63 64 83 83 64 51 44 48 55 52 55 61 61 65 74 77 76 72 72 76 79 82 78 71 65 64 55 51 44 32 26 26 29 38 54 73 87 90 98 97 100 98 96 96 96 93 93
61 63 72 71 77 94 98 68 53 51 63 68 62 58 60 68 74 73 71 71 76 79 75 67 62 61 58 50 44 35 24 20 19 25 36 64 84 90 94 96 97 98 97 95 93 87 74 65 68
69 75 70 71 79 80 83 73 56 64 62 65 62 62 64 69 75 77 80 86 92 92 93 82 70 58 45 29 16 14 15 15 19 32 53 92 97 96 96 96 86 88 92 87 77 73 69 64 46

GFSSGP_700_rhum_018.txt.gz
RH
2 2 8 16 17 23 27 47 50 50 48 48 42 35 30 30 42 43 34 32 31 31 28 26 30 31 31 30 28 29 32 27 33 35 42 47 43 48 64 59 64 69 65 59 61 65 62 65 66
2 15 19 19 18 20 33 36 34 29 36 50 41 36 30 27 26 17 22 24 26 29 27 26 26 25 24 23 22 20 19 22 27 25 28 33 38 61 63 63 65 75 73 80 77 72 67 75 64
18 19 19 19 18 18 26 26 29 34 48 49 43 36 29 28 24 24 26 27 26 26 26 22 19 19 18 19 18 17 17 20 19 22 23 23 24 27 38 51 62 72 71 82 87 72 70 75 66
17 19 20 19 25 21 20 28 34 38 42 41 38 37 34 32 25 22 24 26 25 24 22 18 15 14 13 12 12 15 16 14 16 20 20 21 24 25 31 38 48 56 54 53 58 62 55 55 50
18 20 20 21 30 36 32 38 41 37 34 24 21 20 24 34 26 23 24 24 22 17 13 12 12 13 14 16 14 14 16 17 26 27 26 24 23 27 27 24 29 38 36 43 39 39 42 39 38
18 18 18 20 20 21 26 27 25 26 24 24 21 16 17 29 28 24 22 21 16 14 15 14 16 17 20 16 13 23 26 30 31 31 32 23 19 23 24 27 28 26 25 25 26 26 29 29 35
13 15 13 14 14 15 18 19 19 20 19 18 19 17 16 20 35 27 28 28 21 20 20 18 20 19 16 24 31 29 20 16 24 33 26 9 9 22 33 33 32 34 33 31 31 32 34 38 44
13 13 13 12 13 14 15 16 16 16 15 16 19 24 25 26 26 32 35 28 24 22 16 18 20 22 29 26 14 9 6 12 21 28 12 8 6 7 10 14 17 22 17 11 4 4 6 18 9
13 13 13 13 13 14 13 14 13 14 17 16 20 23 24 22 20 20 21 22 27 14 17 20 22 16 13 10 9 9 7 8 9 9 10 11 13 14 14 14 12 10 8 7 8 9 9 8 8
13 13 13 14 15 14 14 15 16 15 12 14 12 10 9 6 5 6 9 14 13 16 19 14 10 11 16 15 13 8 9 8 11 14 18 21 22 23 24 24 24 24 23 21 19 18 18 18 19
13 14 13 13 14 16 18 17 14 11 8 13 20 21 19 12 4 3 5 7 9 10 10 7 8 9 9 8 8 8 6 11 18 22 24 26 29 29 26 24 24 25 26 27 28 27 27 26 26
10 18 20 21 13 13 17 14 19 18 12 18 20 21 21 21 22 14 7 7 12 16 13 15 23 23 18 15 14 14 12 13 19 25 26 27 28 30 34 36 37 35 34 33 31 30 29 30 30
20 23 24 25 23 23 22 21 22 20 20 18 21 21 22 22 23 23 22 20 23 27 30 33 37 35 30 29 29 28 26 24 26 29 31 32 32 33 34 36 38 40 40 41 43 44 44 43 41
23 24 26 28 29 28 22 20 20 20 24 25 19 23 22 24 24 24 24 26 26 30 34 39 43 38 33 34 33 33 33 33 34 35 37 38 39 40 42 42 43 43 44 46 48 50 51 50 51
23 24 26 26 26 29 24 22 23 22 28 26 18 22 26 25 25 26 25 26 30 32 35 39 44 42 40 36 34 35 36 37 40 43 43 43 43 42 42 42 44 47 48 48 48 48 48 50 51
24 24 25 26 27 29 32 22 26 24 26 25 24 19 24 27 27 27 27 27 31 35 40 45 48 45 46 43 42 45 44 43 42 40 41 46 47 48 48 48 47 49 50 49 51 53 54 56 57
14 20 18 25 31 31 32 26 20 26 21 21 20 20 25 28 28 28 28 27 29 34 41 46 49 47 49 55 52 51 50 46 47 43 40 39 43 49 50 51 52 52 52 52 54 55 56 56 57
20 23 22 21 26 24 19 21 23 18 21 21 24 23 22 25 30 30 29 30 30 32 38 44 50 49 47 51 59 59 58 56 55 53 47 42 40 45 50 52 54 60 62 60 59 57 57 59 62
24 28 25 17 20 22 30 30 22 21 23 26 26 22 18 20 28 33 31 30 30 34 41 45 46 47 45 51 62 66 65 64 59 62 53 46 42 43 47 50 54 58 66 72 69 63 62 63 65
25 24 22 21 27 31 32 28 26 26 26 26 24 24 18 20 29 31 30 30 37 47 49 56 50 51 63 68 71 75 75 74 65 69 67 61 50 48 50 48 50 59 70 76 72 69 67 64 62
28 27 30 31 26 37 35 30 28 27 26 26 27 27 29 31 36 37 37 38 43 54 61 66 68 68 70 75 82 84 84 82 81 78 76 63 60 57 56 55 53 56 65 69 77 84 82 80 80
33 32 31 31 34 41 36 35 35 30 31 32 31 34 39 42 44 48 49 51 59 66 68 70 72 72 73 77 79 80 79 79 79 82 79 67 65 65 62 56 54 56 66 80 93 100 99 99 92
33 30 33 36 36 46 42 37 41 37 36 36 38 43 45 47 48 51 59 64 63 67 70 73 74 76 80 80 84 88 87 86 77 67 66 62 56 54 52 54 54 56 63 68 93 100 99 97 98
35 34 36 43 46 50 48 46 50 45 48 47 47 47 49 51 56 61 63 63 66 70 75 76 79 83 84 86 86 91 91 77 64 62 56 52 53 53 50 48 49 52 53 58 73 97 99 99 98
44 32 36 49 64 63 47 46 57 58 56 58 60 58 57 57 61 61 60 68 69 73 83 86 87 89 97 98 98 92 75 66 58 51 46 44 39 33 27 24 24 35 44 49 54 72 100 98 100
58 47 53 51 85 72 44 49 63 53 51 60 61 58 56 54 58 67 72 73 74 84 88 90 95 97 95 75 68 64 61 54 47 42 32 22 19 20 20 22 24 32 42 50 68 96 100 99 98
59 55 59 62 68 75 53 50 58 53 56 64 62 58 56 61 73 79 80 82 86 94 97 97 95 91 86 87 85 74 66 43 21 18 16 16 17 24 29 40 46 56 71 72 98 99 98 98 97
62 61 62 60 84 80 62 49 46 64 69 64 60 62 64 73 83 87 87 85 84 86 87 90 90 80 75 73 60 47 25 22 25 19 14 9 10 22 47 76 86 85 85 86 96 98 98 97 96
67 66 68 68 74 92 97 66 53 58 56 61 60 63 64 69 77 79 79 80 79 86 89 88 74 72 72 61 35 23 30 34 32 25 16 14 20 55 79 92 94 94 100 94 86 87 91 93 90
68 70 69 60 72 81 87 72 52 64 59 61 57 57 64 76 80 81 80 85 95 79 67 68 81 80 56 29 39 47 39 24 20 17 14 23 52 83 94 95 97 96 96 94 90 88 90 88 86

GFSSGP_700_rhum_021.txt.gz
RH
2 2 10 15 18 40 51 54 50 57 46 41 36 34 30 31 42 43 42 36 45 39 38 38 39 40 43 45 43 40 36 34 34 36 29 30 34 38 59 68 81 81 80 79 82 74 77 75 75
2 12 17 17 29 33 50 41 45 43 45 41 36 30 26 23 22 29 35 34 36 33 31 29 29 30 32 30 26 23 20 20 21 25 21 21 26 32 40 70 87 88 89 95 90 84 73 77 73
18 19 18 22 20 28 43 32 31 42 46 41 33 29 26 24 21 22 30 36 28 25 26 25 22 17 17 19 18 18 16 17 17 19 19 20 23 26 35 48 63 70 82 82 79 86 80 60 60
19 19 19 18 19 24 29 36 39 43 43 41 38 30 27 26 25 24 31 26 26 24 19 13 13 13 14 14 16 15 13 12 14 14 14 15 18 23 26 30 35 46 56 61 54 51 48 46 46
20 21 22 22 28 36 40 41 37 34 30 25 22 21 23 26 25 23 25 24 23 14 13 14 14 15 17 18 15 15 17 23 25 25 24 25 24 20 19 25 25 25 26 32 32 38 40 36 41
20 19 19 29 38 38 30 25 24 20 20 21 21 19 23 30 25 25 23 16 15 17 18 16 16 18 20 17 17 24 25 20 19 26 31 31 16 21 25 28 29 29 26 24 24 25 26 26 25
17 14 16 20 23 21 20 18 17 18 17 20 20 18 20 29 32 21 25 26 22 19 20 19 18 18 17 23 26 18 8 12 20 27 32 7 6 6 16 30 32 32 34 35 34 30 32 32 34
14 12 14 16 17 17 17 17 15 17 17 19 19 26 26 22 30 30 33 30 23 27 20 15 18 22 28 20 10 8 6 7 8 16 10 8 8 10 10 9 9 10 11 8 5 4 4 5 18
13 13 13 14 14 14 16 15 15 14 16 18 18 20 19 19 17 20 22 27 30 21 14 20 22 18 11 9 7 5 8 7 8 9 11 14 17 20 21 21 20 18 16 14 12 11 11 13 13
12 13 13 14 14 14 16 16 16 15 13 11 10 8 6 5 6 11 18 18 15 16 22 20 13 8 7 7 7 7 6 7 12 16 19 21 22 24 25 26 26 26 26 26 26 25 23 22 23
13 13 14 13 16 16 16 15 14 12 13 19 20 20 19 11 4 6 8 12 14 15 14 11 14 22 22 21 21 19 14 12 14 19 23 25 26 26 28 31 32 32 30 29 28 28 28 27 27
13 20 21 13 13 17 18 17 18 14 18 20 22 22 21 22 22 11 6 6 8 10 15 19 29 32 30 29 29 29 28 27 26 27 30 31 32 32 32 32 34 36 39 39 39 38 37 35 32
19 24 25 24 23 23 19 20 19 21 22 19 22 22 23 23 24 23 20 18 22 26 27 29 31 31 34 36 34 33 34 35 36 37 39 40 40 40 40 40 41 41 40 40 40 40 40 42 43
21 25 26 27 27 24 21 20 20 20 26 25 21 23 23 24 25 25 26 26 28 31 32 35 37 38 41 42 38 41 42 41 40 40 41 39 37 38 40 41 42 44 44 44 45 45 45 45 45
21 27 26 26 27 28 24 21 23 24 23 28 22 23 26 26 26 26 27 28 30 33 35 38 43 46 44 48 48 50 52 51 46 46 50 45 39 36 36 39 43 44 45 47 48 48 48 48 48
23 24 24 26 28 29 30 25 26 24 20 23 28 24 24 27 27 28 28 28 30 34 37 40 45 48 48 45 46 49 55 57 55 54 55 52 48 44 40 40 45 49 49 51 54 55 56 57 57
16 16 14 22 30 31 30 22 20 19 20 26 21 20 22 27 28 29 29 30 32 34 36 38 43 49 50 49 48 50 62 65 62 63 63 62 57 52 47 43 44 49 50 51 53 55 57 55 56
17 20 22 22 20 19 19 26 24 20 22 23 24 24 23 22 28 29 31 31 33 34 35 37 44 51 53 50 50 62 66 69 68 68 68 63 70 67 56 50 48 51 51 51 55 56 56 56 56
18 21 23 21 21 20 29 29 25 24 25 26 25 24 23 18 27 32 34 33 31 32 35 42 48 52 51 60 66 66 65 70 70 68 69 75 75 74 73 58 53 51 49 48 51 63 65 64 72
28 26 25 26 27 24 35 30 28 28 27 26 25 25 20 20 28 32 32 32 35 46 57 63 62 63 68 64 62 66 71 74 80 83 81 81 76 73 68 62 57 53 52 50 48 48 56 73 84
31 28 29 30 28 31 36 33 29 28 28 30 29 28 31 34 38 39 42 45 48 54 59 64 68 70 70 74 77 80 84 85 87 87 88 81 73 70 63 57 57 58 60 61 60 56 55 59 80
29 30 32 34 38 39 36 34 36 32 33 34 33 37 42 45 46 47 48 50 60 63 66 70 74 76 77 77 79 82 85 88 83 86 85 70 61 52 46 45 47 48 51 51 53 60 64 78 84
35 35 36 34 40 41 44 39 48 38 36 36 37 40 44 49 52 54 56 63 65 65 67 70 74 76 78 80 83 85 89 90 92 90 71 61 56 49 42 40 36 34 34 35 39 52 59 70 87
39 38 41 47 50 50 49 46 54 48 42 43 47 48 51 55 58 59 62 63 64 67 66 68 72 76 80 84 89 88 92 91 71 79 75 61 46 30 28 23 19 18 16 16 18 23 32 49 63
44 35 39 47 54 52 48 47 63 57 52 56 60 62 60 58 56 58 62 67 70 72 69 69 72 88 98 92 94 96 89 90 79 61 44 31 28 29 26 18 12 10 10 10 15 29 36 45 61
54 46 46 50 60 60 53 58 68 58 60 66 61 59 61 59 60 64 66 73 74 76 73 77 88 89 94 92 85 90 92 68 49 32 33 39 35 32 30 26 21 17 20 33 48 63 76 83 98
58 54 55 60 70 72 54 62 65 60 59 64 64 63 59 58 60 61 68 79 83 84 91 91 89 87 75 75 86 82 62 40 35 46 46 41 28 22 21 19 17 23 46 76 82 85 100 98 97
61 61 61 58 73 67 56 60 52 58 69 70 61 58 54 54 63 73 84 88 90 91 91 94 82 77 85 87 86 77 67 59 53 38 31 26 20 17 15 31 54 76 93 97 100 98 98 97 95
67 67 67 67 76 83 89 58 48 58 58 62 62 58 61 72 82 87 88 91 94 96 90 74 71 72 80 86 81 73 55 40 34 29 23 17 17 30 57 89 98 95 93 97 96 98 96 96 96
69 71 68 54 66 72 83 61 41 45 55 67 62 58 61 60 61 61 60 56 56 56 63 67 59 68 88 75 51 36 31 28 21 14 13 23 50 75 95 94 99 98 97 96 98 95 96 96 96

GFSSGP_700_rhum_024.txt.gz
RH
3 2 8 14 22 27 34 50 57 61 60 30 28 42 43 26 47 60 45 52 57 61 54 43 42 43 45 41 45 42 32 29 26 28 45 38 37 49 56 66 69 70 76 77 88 96 92 76 78
2 6 12 15 24 27 36 46 52 60 35 32 28 26 32 26 27 40 41 45 52 51 43 38 35 32 29 30 27 19 17 17 20 25 25 22 23 24 43 52 73 76 85 82 88 98 87 86 83
8 14 19 21 21 24 30 41 58 41 38 33 29 27 22 22 29 36 38 39 35 30 29 27 22 17 16 16 15 15 15 15 14 17 20 18 18 21 24 30 44 56 77 77 85 79 68 71 60
19 20 23 18 22 35 36 54 62 42 40 34 33 27 23 24 22 30 37 27 26 25 20 16 14 14 15 15 15 15 14 13 13 14 15 15 15 16 20 26 29 37 46 55 60 63 44 40 43
18 22 22 23 32 42 49 58 63 57 46 29 27 24 20 25 25 29 27 26 23 17 14 14 14 15 16 17 17 14 18 26 29 28 29 28 27 26 25 22 22 27 27 28 30 36 34 36 34
22 26 23 27 38 49 55 50 47 46 28 22 21 22 23 25 26 27 26 23 15 14 16 17 16 17 17 16 15 23 23 11 12 15 24 31 20 10 12 21 24 26 26 27 29 30 30 30 32
21 20 22 26 30 33 36 19 40 41 45 35 18 36 28 27 26 25 18 15 18 19 22 20 19 15 14 18 21 8 5 5 9 21 28 10 6 6 6 10 22 30 32 34 36 35 32 30 29
15 16 18 19 18 19 19 19 22 31 30 19 20 38 22 32 27 20 28 30 22 22 25 18 16 17 22 14 6 5 5 5 6 6 7 7 8 11 12 11 10 8 9 11 8 6 4 4 5
12 13 14 16 15 17 16 19 15 16 25 17 19 26 22 19 28 28 30 31 28 27 18 18 21 18 11 9 8 6 6 6 7 11 14 17 19 21 22 22 23 23 21 19 17 16 15 14 13
15 13 16 15 18 17 17 18 18 24 24 23 20 15 13 11 15 22 21 21 19 15 16 20 14 10 9 10 12 12 9 7 9 14 20 23 25 26 26 26 27 27 26 26 26 26 26 26 25
16 16 16 14 14 19 18 16 12 22 22 24 26 15 7 4 7 8 12 15 14 18 18 14 16 22 26 28 28 28 26 22 20 21 24 29 31 32 32 32 31 32 34 35 34 34 32 30 29
12 11 11 9 13 16 21 19 18 22 19 19 21 21 22 20 9 5 6 9 9 10 13 21 26 29 34 37 36 34 33 33 34 34 37 39 40 40 41 41 41 40 40 39 39 38 38 39 40
23 21 22 22 23 22 19 23 22 17 19 21 21 22 23 23 23 19 12 10 12 18 28 31 30 36 41 41 37 41 44 44 42 39 40 42 41 38 38 39 42 44 45 45 44 45 45 45 44
22 26 27 28 26 23 22 20 21 22 25 26 21 22 23 24 24 25 24 22 25 30 35 34 34 35 38 42 46 49 49 52 53 46 46 51 50 44 40 38 36 37 40 44 46 48 49 49 48
22 27 28 27 27 28 24 22 24 21 22 24 26 22 24 25 26 26 26 29 33 36 35 36 39 39 41 45 45 44 44 48 57 58 55 56 56 53 51 46 44 41 39 38 39 41 42 45 47
27 25 20 27 28 28 28 23 29 25 25 23 24 21 24 26 27 27 27 29 32 32 33 36 40 43 46 50 49 48 47 52 62 65 64 66 68 62 64 61 53 50 47 44 42 42 42 42 44
21 15 19 26 25 26 26 26 32 21 20 24 24 24 22 25 27 28 29 30 31 33 35 39 43 49 52 52 52 50 49 64 67 71 73 74 71 73 72 74 71 71 60 50 47 44 43 44 43
18 19 23 24 24 21 33 35 24 23 23 26 25 21 22 25 28 28 32 32 33 34 38 42 49 59 54 56 54 55 68 67 68 71 71 71 57 60 62 60 62 62 62 57 55 55 55 48 50
13 23 27 28 19 25 40 34 28 29 28 26 25 24 23 23 30 32 32 34 35 35 38 44 44 46 54 54 59 68 63 63 65 65 65 62 69 74 71 67 66 62 51 49 55 59 61 62 58
28 31 30 30 25 28 40 34 29 27 26 25 24 23 22 27 31 33 34 34 34 36 43 51 56 60 62 62 70 68 73 77 79 82 84 86 86 90 92 74 62 54 52 54 52 53 54 57 60
34 37 42 40 37 28 39 37 36 28 28 29 28 28 30 30 32 35 36 38 41 46 51 56 60 65 68 70 73 75 77 78 80 85 89 90 90 90 81 68 62 56 49 41 41 41 43 42 47
36 32 33 37 42 26 33 26 40 40 37 34 33 34 36 38 40 42 44 48 51 56 61 64 66 67 68 71 72 73 75 79 82 83 85 90 93 80 69 60 54 42 30 30 25 23 22 23 23
48 32 34 33 46 42 38 30 44 43 51 53 37 41 44 46 52 56 58 59 62 65 64 64 65 66 68 70 72 74 79 95 96 93 75 72 70 62 53 43 36 32 30 28 27 23 16 14 15
35 35 36 46 53 41 47 41 39 45 60 65 45 46 48 55 58 57 56 60 63 65 68 70 69 68 70 73 76 88 85 77 67 62 65 66 60 53 44 42 37 34 28 27 28 27 21 15 16
53 49 36 45 45 37 51 43 54 66 53 54 53 56 59 59 58 58 58 61 63 68 71 73 77 77 78 83 86 76 71 67 69 71 72 62 54 52 46 33 31 27 24 21 20 20 22 29 42
54 53 50 48 38 36 49 36 54 62 53 54 61 61 60 60 56 49 48 54 58 65 75 80 79 79 87 87 77 61 60 72 72 69 61 50 37 35 29 26 23 19 16 16 24 46 63 81 80
62 62 51 65 58 61 41 56 66 56 57 61 64 64 61 57 52 46 64 78 81 81 81 77 66 54 52 53 56 59 67 67 54 33 24 23 24 23 20 15 17 26 39 57 85 92 92 98 92
58 56 63 61 77 48 28 41 37 50 70 65 70 67 61 57 52 54 62 59 58 58 56 51 49 51 49 45 51 65 66 46 31 27 24 21 14 10 13 32 56 76 90 95 98 99 97 96 97
67 69 65 65 67 60 55 31 44 60 64 63 62 62 64 59 62 60 60 64 59 55 53 51 51 48 48 58 59 45 32 27 23 17 11 9 12 32 53 73 93 89 93 98 97 96 96 96 95
63 71 68 63 60 71 65 46 46 50 48 51 60 59 60 67 78 70 68 72 70 65 56 55 56 58 52 35 31 27 22 16 11 8 13 34 60 68 66 78 91 100 98 95 95 94 94 92 91

GFSSGP_700_rhum_027.txt.gz
RH
3 4 9 11 20 20 29 35 39 46 50 62 53 55 57 58 70 79 64 38 58 60 60 50 42 41 42 38 38 39 34 21 20 22 26 33 35 35 34 53 62 74 78 83 82 90 85 85 82
2 5 11 17 18 18 27 36 35 44 52 51 45 41 45 53 23 44 42 48 59 65 57 41 37 37 32 34 31 23 17 16 18 19 24 26 25 25 25 30 40 60 78 78 84 79 87 83 83
2 8 17 15 18 19 28 33 42 49 51 49 47 55 60 74 90 99 46 48 52 51 38 33 30 28 21 17 16 15 15 14 14 13 14 15 17 17 19 19 23 27 42 53 62 62 79 73 64
10 12 18 16 20 23 28 37 44 47 51 48 42 54 24 83 96 56 38 38 33 29 26 22 17 15 14 15 16 16 15 13 16 21 23 23 22 20 19 17 16 23 26 31 36 40 51 52 37
17 19 16 17 25 29 36 40 41 40 42 44 41 52 54 24 24 33 34 27 26 22 17 15 14 15 16 17 16 14 15 20 13 14 18 26 31 32 30 23 25 24 24 26 27 26 26 26 25
20 20 16 23 30 37 41 44 39 36 38 38 39 52 68 24 26 30 27 26 22 17 14 16 16 18 17 14 14 19 13 5 9 16 21 27 19 8 7 10 19 25 26 27 28 28 28 29 31
20 19 20 25 31 35 40 38 31 30 32 36 37 45 50 27 28 27 26 20 15 16 19 20 19 16 14 16 16 6 5 4 4 6 15 12 6 6 6 7 7 8 13 22 30 31 28 24 15
17 18 19 22 22 24 24 30 31 28 33 38 44 36 59 26 25 24 19 18 19 19 23 22 14 16 18 10 5 5 5 5 5 7 8 9 12 16 19 20 21 19 16 12 8 7 5 5 6
14 14 14 14 14 15 16 16 18 26 27 35 41 53 62 30 26 20 27 32 27 24 26 14 20 16 10 8 7 7 6 6 6 10 15 20 22 22 22 24 25 24 25 24 24 24 23 22 21
14 11 12 13 14 14 14 14 19 27 25 29 40 34 64 18 29 26 27 27 30 26 16 19 17 10 8 10 14 18 18 15 13 15 17 21 25 28 31 31 30 30 29 30 30 31 30 29 28
14 14 15 14 14 13 12 13 16 17 20 24 29 42 66 16 9 20 70 76 78 53 77 23 10 12 22 26 29 31 31 30 31 30 31 33 35 36 37 39 38 40 37 38 36 36 36 36 38
14 13 12 13 16 17 16 16 16 16 18 23 28 42 52 15 23 69 80 75 77 89 85 12 17 25 28 33 33 35 39 42 44 42 38 38 40 41 40 38 39 40 42 43 44 45 43 42 42
16 15 15 17 19 22 20 20 17 18 20 23 31 44 57 69 71 74 75 72 78 84 88 78 28 27 33 39 40 43 46 45 47 48 46 43 45 49 48 44 41 40 38 37 36 38 41 42 43
21 24 26 26 26 22 24 22 25 23 24 25 30 40 50 54 60 67 72 73 76 82 89 67 30 32 34 36 40 42 41 42 44 51 56 56 55 57 56 49 51 51 47 44 42 39 37 37 39
23 23 27 27 29 30 26 21 20 24 25 26 31 34 43 51 54 62 73 78 79 79 88 83 36 37 39 41 43 45 47 49 48 58 62 62 63 64 66 66 64 66 66 56 50 46 42 41 39
23 22 21 26 28 29 27 22 21 28 29 28 26 34 40 47 54 58 67 70 74 78 88 90 38 40 41 42 47 50 51 51 49 62 64 63 72 72 64 54 70 64 59 63 58 56 52 50 48
19 17 15 24 26 27 24 21 28 32 24 26 26 27 32 42 54 59 73 68 70 84 90 88 50 44 52 54 54 51 53 52 61 66 64 63 60 61 60 57 53 52 53 48 44 41 44 40 40
13 13 17 16 25 23 22 23 28 31 29 31 32 32 35 36 47 66 90 57 66 57 36 38 43 47 51 55 51 59 56 61 64 66 69 62 72 66 66 66 68 63 56 47 44 45 45 46 50
17 16 18 21 27 24 27 26 31 34 32 34 34 37 40 48 56 57 40 32 34 35 40 38 40 42 45 54 58 60 56 69 70 72 75 76 78 79 75 65 71 79 77 71 60 57 55 50 47
23 24 23 27 30 20 30 27 32 36 40 40 40 43 47 30 27 31 33 34 38 35 35 40 46 51 54 60 60 60 62 70 72 73 76 77 79 85 94 96 94 89 88 73 62 56 46 34 33
28 28 33 32 32 32 30 28 33 37 40 43 45 50 52 55 41 33 35 36 37 44 50 53 55 58 59 63 64 65 66 70 70 72 77 83 95 91 91 90 82 76 66 52 43 34 30 31 32
30 38 40 38 34 25 31 22 32 36 42 50 60 66 65 61 39 40 42 45 49 54 54 56 60 62 63 65 64 64 65 68 70 75 83 78 70 65 65 63 59 56 56 48 43 39 36 33 29
39 27 42 41 36 28 28 22 32 35 42 53 66 72 43 42 44 48 53 54 54 53 55 60 64 64 65 65 66 67 69 73 80 88 73 62 50 58 60 60 56 51 50 49 44 35 34 34 30
33 47 41 43 36 33 25 28 33 34 41 57 71 68 44 46 48 53 56 55 52 50 54 60 68 74 74 73 74 69 75 82 79 60 49 54 61 56 40 36 35 30 33 28 24 22 24 25 24
43 39 35 38 38 36 38 33 40 53 58 62 73 74 49 53 57 58 57 54 49 41 50 61 72 74 80 75 73 70 59 46 45 48 56 60 51 40 33 26 22 22 22 21 18 15 15 22 32
47 44 46 45 37 29 39 26 42 58 63 58 67 63 55 60 58 59 56 45 39 48 54 45 44 46 46 45 45 45 41 41 47 59 62 51 32 23 22 22 19 14 10 12 30 54 65 79 91
50 50 51 49 58 49 26 41 54 54 65 70 74 74 79 66 62 65 60 48 45 46 53 53 56 59 52 46 45 43 44 45 43 34 24 22 21 19 14 10 10 17 37 54 80 91 98 96 86
44 48 52 52 69 43 21 25 27 60 66 71 72 76 83 73 84 92 68 58 57 60 61 64 69 67 55 51 50 47 45 34 27 27 18 13 9 8 10 21 40 58 66 84 86 91 100 97 96
44 50 55 49 49 50 43 29 44 47 50 55 67 76 82 91 95 96 96 95 97 100 91 77 74 65 62 58 50 43 30 26 23 12 6 8 10 15 36 54 65 70 68 67 74 80 84 80 89
55 52 50 51 45 52 61 50 49 47 58 63 65 80 93 92 92 91 98 100 99 100 86 79 74 70 62 52 42 35 26 11 6 6 6 10 27 47 54 69 83 96 99 80 78 76 83 88 94

GFSSGP_700_rhum_030.txt.gz
RH
4 4 6 17 23 22 19 30 37 42 48 52 50 49 64 61 62 82 96 49 41 52 45 53 43 38 40 39 34 37 33 18 17 19 21 24 31 32 34 25 25 38 41 64 75 80 80 80 77
4 4 8 18 24 21 29 33 40 47 48 38 42 39 54 50 38 42 64 61 54 44 59 49 41 41 34 33 32 24 15 15 15 15 17 21 22 22 21 17 20 28 36 44 54 73 70 55 67
3 5 17 21 17 18 29 38 47 45 40 41 48 57 67 82 90 46 55 46 48 39 53 40 35 32 26 17 15 16 17 17 15 13 14 16 16 16 16 16 16 18 27 32 42 46 47 55 58
8 14 16 18 18 26 30 42 40 40 43 41 42 50 31 88 70 45 45 40 42 40 34 30 26 19 15 15 16 17 15 12 13 14 13 16 22 26 27 25 25 22 20 16 18 22 26 26 30
8 16 19 18 26 30 34 38 34 39 39 39 40 76 69 32 21 39 37 36 32 28 24 20 16 15 17 17 16 12 13 14 6 10 15 20 26 23 12 7 8 15 20 23 22 23 23 24 23
20 20 20 21 30 33 37 37 35 36 38 34 42 68 90 24 25 30 33 29 26 23 19 15 17 17 15 13 12 13 8 4 4 4 9 19 9 6 6 6 7 8 9 15 19 25 28 29 28
21 20 21 26 29 33 39 36 28 29 29 32 35 54 59 60 26 31 28 26 23 17 16 19 20 16 12 12 11 4 4 4 4 4 6 7 7 9 12 16 18 19 18 16 12 9 8 6 6
19 17 22 25 27 31 29 29 29 28 35 34 40 42 47 31 27 27 26 21 16 19 20 20 22 13 13 9 5 5 5 4 5 5 9 11 13 16 18 21 22 23 23 23 23 24 24 22 21
15 18 19 18 21 19 18 19 21 24 26 31 50 48 51 25 25 24 21 24 28 24 23 25 16 14 6 5 6 7 8 9 10 13 14 20 23 27 28 29 30 30 29 28 28 28 28 28 29
14 13 13 13 13 14 14 13 20 27 26 33 49 67 38 27 27 23 23 28 33 30 27 23 14 10 8 8 14 23 26 28 28 29 31 31 33 34 36 35 35 35 36 40 36 38 37 36 35
14 15 13 13 12 12 13 14 19 19 21 28 36 58 13 8 19 26 36 71 83 76 87 24 12 8 12 23 28 32 32 36 38 39 41 39 39 38 41 43 43 40 38 36 34 34 34 35 39
14 12 10 13 13 12 13 12 15 15 19 23 28 37 54 27 37 51 72 74 81 91 86 49 9 16 26 31 33 36 42 42 44 42 42 46 45 44 46 51 51 48 47 46 43 41 38 36 34
13 10 13 14 16 18 16 16 15 17 18 22 32 45 58 65 70 74 77 74 74 89 88 59 18 25 30 35 38 42 42 40 40 41 42 43 52 54 53 56 57 54 49 45 46 46 45 41 37
16 17 18 20 22 14 18 21 18 18 22 22 31 41 53 62 66 69 74 72 74 80 84 100 41 28 32 34 38 39 40 42 44 47 47 50 57 58 56 56 55 54 52 50 52 53 46 42 39
20 22 23 24 26 27 23 21 19 23 24 25 28 31 42 49 55 62 67 71 72 79 88 92 90 34 36 39 40 44 44 45 50 52 50 52 58 58 50 56 54 57 45 46 41 39 40 34 34
19 21 22 23 24 25 23 24 19 22 25 25 25 28 34 44 50 54 66 74 76 78 81 94 98 87 40 45 38 40 44 49 53 53 53 58 59 50 46 51 53 52 50 46 40 41 36 36 38
21 19 20 25 23 26 24 22 23 28 30 28 25 25 32 38 47 52 60 68 74 79 85 97 100 94 76 44 40 46 48 57 58 55 65 64 60 61 60 65 70 70 65 57 56 54 52 52 49
17 13 14 16 23 20 20 20 25 29 28 28 26 25 27 33 41 53 65 73 79 80 85 83 81 80 68 50 51 53 59 59 60 57 69 69 70 70 75 77 79 83 85 86 79 73 73 69 66
16 14 14 17 23 22 19 22 26 30 30 32 33 34 35 37 42 54 69 72 65 52 63 42 40 47 50 47 49 48 54 66 66 60 64 72 74 81 79 79 83 70 70 63 57 66 71 77 68
18 20 20 23 25 18 26 24 29 34 37 38 41 45 45 45 46 53 60 66 72 53 47 39 37 47 52 54 59 60 61 63 62 61 65 80 75 74 80 83 68 59 60 63 63 66 63 56 48
22 24 32 30 29 28 26 26 30 36 40 43 47 52 55 49 37 37 40 40 37 38 42 48 52 52 54 61 62 63 63 63 63 65 69 77 82 88 90 66 55 53 55 56 58 54 51 51 49
26 38 36 32 31 26 26 24 30 35 41 48 56 57 57 61 54 33 35 38 42 49 54 52 52 53 56 62 63 62 64 67 69 74 80 82 80 70 53 43 47 54 54 46 40 34 29 30 35
36 37 26 37 35 32 25 30 26 34 40 56 66 72 71 73 59 46 44 46 50 53 51 44 45 52 55 57 64 67 66 70 74 69 64 52 38 35 39 45 52 50 44 32 27 26 27 26 25
26 42 39 39 36 39 30 24 31 34 38 54 68 76 78 64 51 50 52 58 54 53 48 38 36 48 60 56 42 38 37 37 35 36 37 37 37 40 50 53 38 27 24 23 21 19 15 12 11
39 38 40 50 48 48 35 31 39 40 45 54 70 73 73 70 61 65 63 63 66 61 47 38 40 40 41 43 52 55 54 48 44 44 43 40 38 35 30 29 25 19 14 10 8 10 12 18 23
43 39 44 55 64 50 36 28 50 48 43 49 58 72 61 82 77 84 86 86 74 66 47 46 48 53 54 54 58 60 54 50 47 45 40 37 35 36 26 11 7 6 7 10 19 38 52 66 79
44 50 44 41 48 59 31 40 54 60 64 64 71 74 81 87 84 86 97 98 68 48 49 49 50 58 60 58 61 60 58 51 44 41 38 36 23 10 8 6 6 10 24 37 46 57 62 69 78
40 40 43 52 69 51 27 29 53 58 63 67 65 72 79 83 86 92 95 91 73 66 70 76 68 69 68 72 69 65 53 48 44 37 23 11 10 9 6 6 14 32 44 61 68 68 67 67 71
41 42 46 42 41 53 57 37 39 44 54 56 64 67 71 80 73 80 78 70 82 80 90 96 97 82 81 80 72 58 50 40 21 12 12 11 9 10 14 29 51 74 94 97 99 93 90 96 88
47 49 48 50 52 57 56 55 42 47 52 59 65 72 80 90 94 85 96 99 87 97 92 99 98 84 89 74 58 50 31 15 19 18 15 9 9 10 33 70 81 92 98 100 100 87 99 91 100

GFSSGP_700_rhum_033.txt.gz
RH
6 4 5 10 16 20 23 33 54 52 48 44 42 44 54 62 67 74 73 88 60 59 49 47 46 35 35 35 33 35 34 18 17 18 19 19 20 24 24 21 18 14 16 22 31 54 63 74 69
5 4 8 20 19 24 44 45 47 44 46 47 42 50 43 50 35 72 90 54 68 47 48 55 43 36 37 34 34 29 16 17 18 17 14 12 13 14 14 13 12 11 11 17 29 32 41 43 48
4 6 14 15 20 26 48 48 42 41 40 34 43 49 44 45 65 59 52 41 56 52 59 49 41 39 30 21 16 16 18 17 12 10 11 12 15 19 20 20 19 19 20 18 17 17 20 24 28
4 9 16 20 24 31 47 42 38 41 42 41 40 47 59 62 61 62 50 37 46 49 44 37 34 28 18 15 17 18 13 9 10 5 6 10 16 17 16 10 5 6 9 14 17 18 17 17 18
8 14 22 20 40 49 42 36 40 39 40 41 44 61 62 69 30 40 34 40 35 34 31 27 21 15 16 18 13 10 11 10 4 3 3 7 8 6 5 5 6 8 9 8 8 11 13 16 18
14 21 22 21 38 38 36 36 39 44 41 46 46 53 56 22 26 36 33 33 30 27 23 18 16 18 15 11 11 10 4 3 3 3 4 7 6 6 9 13 14 16 16 17 17 17 14 10 7
16 21 21 24 36 38 36 30 32 37 31 39 37 39 43 15 26 31 28 27 25 21 16 18 20 20 13 12 10 3 3 3 4 4 7 10 13 15 17 20 21 22 23 23 23 22 22 23 22
20 20 24 27 34 37 31 29 28 30 33 38 47 44 45 21 28 29 26 25 19 17 20 21 21 19 11 7 3 4 6 7 7 10 16 22 25 25 27 30 31 32 32 31 30 29 28 28 28
19 21 18 22 30 28 26 26 28 26 32 34 35 32 31 24 26 26 25 22 20 23 25 25 22 12 7 4 4 6 13 21 23 25 27 31 32 32 33 34 35 37 36 35 35 36 34 34 35
16 15 13 17 20 16 15 13 14 22 17 30 32 41 55 27 24 25 22 23 28 29 24 18 11 7 4 5 8 18 26 28 29 35 35 37 39 40 40 40 40 39 37 36 35 35 33 33 34
14 13 13 13 12 12 14 14 24 22 26 25 19 15 20 23 26 28 24 28 21 27 18 10 14 7 6 11 21 24 28 32 33 38 38 40 41 43 45 46 46 45 44 42 40 38 35 32 32
13 11 12 12 12 12 12 13 17 19 24 27 31 25 10 5 9 18 28 52 71 65 39 30 22 10 21 29 32 32 33 36 36 36 39 42 44 46 49 52 52 50 52 49 46 41 35 37 38
13 11 11 12 12 12 14 14 16 19 20 26 30 33 36 29 25 40 68 74 77 75 72 51 44 26 30 33 39 39 42 41 42 42 43 46 48 50 53 57 51 47 47 46 45 40 43 42 45
13 12 9 9 10 13 16 18 15 18 18 25 32 36 48 51 53 65 66 77 74 77 84 78 38 40 33 33 37 40 43 44 43 43 44 50 52 52 55 57 45 43 44 46 45 44 42 38 33
17 21 23 22 17 24 22 23 20 19 20 23 24 34 45 49 55 67 64 68 73 72 74 65 61 35 41 33 33 38 34 38 48 47 46 52 54 53 60 59 56 60 62 62 61 65 61 52 45
19 22 23 24 25 25 23 23 20 23 23 24 26 26 34 47 50 55 60 64 67 71 72 78 81 78 95 81 47 39 41 47 55 58 58 56 53 57 64 66 72 74 77 78 81 75 60 65 69
19 21 23 24 23 26 22 23 21 24 25 26 25 26 30 42 51 54 59 69 75 76 78 92 85 89 81 79 70 58 59 58 56 66 60 63 61 60 66 73 77 79 78 78 73 56 52 47 51
20 16 22 23 23 20 21 25 26 28 27 27 27 25 32 35 48 53 60 66 72 72 79 83 90 85 67 60 53 56 51 52 57 66 74 72 69 74 68 76 82 75 74 76 75 55 50 51 57
16 16 17 24 23 21 18 25 26 30 30 30 32 29 28 31 37 52 58 63 69 65 59 69 77 75 64 54 54 55 57 67 83 96 98 100 88 68 73 76 75 72 72 73 58 47 54 56 58
18 20 26 25 27 20 25 26 26 30 31 34 32 32 34 34 35 39 58 63 66 58 60 68 56 44 50 53 53 56 62 65 72 72 71 67 67 70 77 83 82 71 48 42 41 48 48 51 54
27 24 29 29 29 29 19 28 29 33 35 38 40 36 33 34 37 46 56 57 62 55 41 38 44 52 50 46 45 56 62 63 65 68 74 80 82 86 87 72 48 42 43 46 50 50 48 43 38
32 31 28 27 25 32 29 29 31 33 38 45 50 48 44 39 38 42 42 38 35 36 42 50 52 48 40 34 42 55 62 68 69 64 58 57 54 46 40 40 39 37 40 54 50 39 30 26 24
37 34 25 23 24 36 24 31 32 37 43 48 49 52 51 49 43 42 38 41 44 49 55 55 49 42 38 33 35 38 38 38 40 46 50 49 46 41 40 39 41 43 36 32 30 28 23 15 9
35 38 39 39 40 45 45 40 37 38 43 50 52 55 57 65 64 50 45 45 46 50 52 47 50 44 46 50 53 54 52 52 53 55 54 52 49 44 39 37 36 36 34 24 14 11 8 7 9
40 38 46 49 65 59 42 48 54 43 40 45 49 60 60 55 66 78 74 75 64 44 41 41 41 42 48 51 56 55 58 64 66 62 59 56 47 40 38 32 22 16 16 14 9 8 9 18 21
40 43 50 60 81 61 24 51 63 56 58 65 70 70 66 68 74 79 62 51 50 60 61 51 56 54 50 48 48 52 62 72 69 67 56 47 42 30 19 22 22 17 13 11 11 14 21 38 52
35 52 46 34 52 59 42 57 58 56 57 64 75 66 73 84 81 80 79 73 61 50 50 58 55 58 58 59 68 73 68 75 68 55 48 43 25 20 26 23 20 14 10 14 25 39 62 71 73
46 35 40 49 67 62 45 52 54 62 60 65 70 77 91 95 88 90 92 81 74 71 75 78 77 82 85 82 84 84 77 65 58 53 43 20 22 30 26 17 12 12 21 35 67 77 79 82 84
43 45 46 44 44 64 82 47 45 54 67 66 74 78 77 79 78 80 82 89 90 88 86 77 86 94 94 74 86 89 72 64 60 49 29 24 32 27 17 15 16 28 61 79 88 99 96 95 92
36 45 48 52 51 55 57 53 48 49 48 59 72 74 78 87 84 90 92 86 96 93 92 98 100 99 92 78 92 88 64 57 50 44 42 40 31 26 19 25 54 98 100 100 100 96 79 73 44

GFSSGP_700_rhum_036.txt.gz
RH
6 6 5 11 14 18 31 47 56 51 45 46 57 60 56 69 65 62 54 56 53 54 49 47 46 38 34 33 33 35 35 20 17 19 20 18 16 16 16 16 13 12 11 10 13 18 26 39 50
9 6 7 15 22 26 46 52 54 66 54 46 43 46 50 48 57 51 43 40 53 55 49 51 45 38 38 34 34 29 19 17 20 16 10 10 11 14 14 14 14 14 13 15 16 17 22 30 33
10 8 12 23 18 25 48 50 54 56 49 46 38 42 38 42 41 36 57 62 54 50 50 57 44 37 35 24 19 16 19 18 11 9 7 8 12 15 17 17 12 6 6 8 10 13 12 11 11
8 14 18 20 26 31 45 46 54 50 47 44 43 31 44 48 44 23 48 46 52 56 58 50 42 39 24 15 17 19 13 9 10 4 3 4 5 4 4 4 4 5 8 9 8 7 9 14 18
14 18 20 23 43 48 44 44 50 47 43 45 40 44 45 50 43 29 52 54 54 54 42 38 32 20 16 18 13 9 10 9 3 3 3 6 7 6 8 11 14 16 17 17 17 17 18 15 10
12 22 28 41 52 52 43 43 40 39 39 46 36 37 32 18 31 37 40 38 37 34 29 22 17 18 18 16 11 9 3 3 3 3 7 10 14 16 19 21 23 24 26 26 26 24 23 22 22
12 21 21 41 47 50 43 44 41 38 37 34 36 33 38 35 21 36 36 32 28 23 18 17 19 20 21 11 10 3 3 5 6 8 13 20 24 26 27 27 29 30 30 31 32 32 34 33 32
20 20 22 49 66 59 46 32 35 35 40 38 43 30 31 26 25 34 31 26 22 19 17 20 21 23 13 8 3 4 6 7 13 20 25 28 31 35 35 35 37 37 37 36 35 34 34 34 33
17 17 23 24 47 40 27 29 28 32 34 41 42 37 19 18 26 28 26 24 20 19 21 24 26 18 9 4 4 6 12 19 23 27 30 30 38 37 37 38 38 35 36 36 38 37 37 36 35
20 17 21 25 26 31 25 20 14 25 24 18 24 29 20 21 23 25 24 21 21 25 25 23 15 10 6 5 7 16 21 27 30 32 35 36 33 33 38 40 40 39 38 36 36 37 36 34 32
17 14 21 23 16 13 13 15 17 18 16 15 12 11 15 27 25 25 23 23 21 15 15 13 9 6 5 10 20 23 30 33 36 37 37 32 31 36 42 43 45 45 41 37 34 32 32 30 29
12 13 13 12 12 10 13 18 17 18 23 22 18 19 9 13 20 22 22 18 17 25 28 38 24 10 10 22 27 32 35 36 37 37 39 36 40 48 51 51 53 53 46 39 38 39 38 36 35
13 12 13 13 13 12 13 16 18 20 22 25 30 23 33 33 22 19 23 48 52 54 58 53 46 44 24 25 29 32 37 39 38 35 38 41 43 52 54 54 59 59 56 56 53 55 57 57 50
12 11 10 13 15 15 14 18 20 20 18 20 28 23 40 48 48 47 47 51 59 58 66 69 65 66 51 35 39 42 38 40 43 44 42 46 49 52 56 58 62 67 62 62 66 66 65 62 65
14 6 7 11 12 10 16 18 18 18 20 21 23 26 34 48 51 52 56 58 59 58 63 50 72 78 78 50 57 52 55 54 55 51 46 49 52 56 62 61 70 70 70 72 75 72 69 68 62
18 22 23 22 24 19 19 21 18 20 22 23 26 27 31 52 55 71 72 73 72 74 73 74 78 79 68 64 67 59 58 57 57 53 52 57 60 66 68 64 64 65 67 72 77 74 74 70 68
20 22 23 24 25 25 27 24 21 23 24 25 26 29 32 46 56 70 71 72 72 74 77 77 78 74 75 73 70 62 52 56 56 58 75 84 80 73 67 64 66 68 70 74 77 77 72 62 53
21 19 19 24 25 26 25 23 23 24 26 28 27 27 30 33 52 64 68 67 70 76 78 81 80 80 79 83 77 68 61 66 72 84 88 90 96 97 90 85 87 78 79 82 78 67 52 40 36
19 21 22 25 23 21 19 25 29 29 28 28 27 27 26 32 46 60 69 69 72 74 77 78 79 79 82 82 63 62 69 70 74 82 84 92 98 100 100 100 83 82 82 73 56 42 37 36 34
25 22 24 24 28 20 26 28 29 29 29 29 29 29 30 31 36 53 66 64 59 65 64 64 67 68 59 56 55 54 58 64 70 93 95 96 94 87 86 83 85 84 81 61 48 43 38 37 36
26 30 28 30 29 25 27 33 36 36 34 34 34 33 34 38 42 54 54 53 55 58 62 60 50 53 54 50 45 39 37 50 68 75 76 73 65 60 61 62 59 56 53 52 48 42 38 34 33
31 32 34 32 28 20 26 34 44 41 39 40 35 33 30 34 42 47 48 51 51 45 39 42 48 52 53 52 43 38 41 46 49 50 52 56 59 60 60 55 52 52 47 41 36 34 33 31 21
23 26 24 25 34 35 34 38 42 48 42 40 40 39 34 37 39 41 42 40 37 38 41 46 51 46 33 31 33 37 41 46 43 41 39 43 51 57 59 58 52 45 40 37 34 25 21 19 16
37 31 35 39 43 47 51 45 43 49 41 43 44 43 45 51 52 40 42 40 34 30 31 32 33 34 36 40 42 48 57 55 47 51 53 55 60 64 58 48 44 39 30 24 25 26 22 17 13
35 39 45 52 66 62 42 50 52 48 45 46 44 56 67 67 57 43 38 34 48 46 37 40 41 44 50 52 56 63 68 69 58 61 70 71 63 54 49 42 31 21 26 30 27 21 15 14 16
42 45 49 58 74 52 48 65 61 56 57 63 71 75 88 87 82 68 72 73 75 73 65 67 71 64 62 71 73 76 86 83 67 78 74 63 57 50 41 28 20 28 35 29 19 15 18 31 57
42 49 46 41 58 57 58 65 66 66 70 76 77 83 72 92 90 94 90 92 96 98 96 92 84 88 93 91 97 90 93 74 77 84 72 66 61 50 34 32 30 37 29 20 18 24 57 74 81
34 35 47 46 63 61 52 60 61 61 64 69 73 80 90 89 89 99 95 96 94 88 92 94 93 96 98 98 94 97 68 80 97 87 67 55 50 47 42 40 36 32 25 24 34 60 94 98 100
38 47 46 45 51 67 82 52 48 58 64 70 82 88 98 98 98 99 94 92 91 94 93 98 98 81 86 100 88 70 80 80 61 48 39 37 34 38 52 48 32 25 22 31 67 80 94 96 93
30 41 33 31 45 53 57 51 56 53 61 72 78 82 78 93 95 97 100 99 88 85 90 84 65 83 90 59 53 62 49 41 46 48 40 43 43 52 79 37 26 26 35 46 64 42 26 32 35

GFSSGP_700_rhum_039.txt.gz
RH
7 6 7 11 15 18 26 33 51 63 72 68 68 64 62 60 62 61 55 51 46 50 47 46 46 44 36 33 32 33 33 21 17 20 20 14 10 10 12 13 12 12 12 12 12 13 19 22 27
7 7 7 14 19 22 46 44 57 55 55 66 68 67 67 68 64 55 46 44 40 48 49 48 44 39 38 34 34 28 20 17 20 17 9 7 7 11 15 16 16 15 11 8 10 12 14 13 12
7 7 9 21 19 23 48 52 50 62 62 65 57 66 58 46 52 53 46 34 40 45 49 55 45 38 38 28 21 16 18 19 13 9 6 4 5 5 5 5 4 4 6 8 7 7 9 12 15
7 10 13 16 18 20 45 48 42 45 57 55 79 55 53 48 34 44 49 45 43 46 50 57 45 39 35 19 16 18 15 9 10 4 3 6 6 5 7 10 15 17 18 19 19 18 18 17 11
8 13 17 23 45 39 41 49 50 49 48 47 52 47 58 58 45 46 45 47 47 53 58 49 43 37 20 17 16 12 10 8 3 3 6 11 13 16 19 22 25 26 27 28 28 27 26 26 24
16 22 24 42 48 48 51 55 47 50 43 44 46 37 26 28 55 49 48 50 54 60 45 38 30 17 18 18 14 10 3 3 3 6 10 18 23 26 27 28 30 32 32 32 31 29 30 32 32
16 25 27 53 53 49 56 51 45 42 40 36 38 34 31 20 51 42 38 39 43 39 29 20 17 20 22 17 10 3 4 6 8 15 22 26 29 36 37 38 38 39 38 38 36 36 35 34 34
15 20 21 35 59 56 52 58 46 38 36 36 34 38 29 22 37 38 35 32 28 22 17 17 21 23 22 10 4 4 6 12 20 24 28 30 36 36 38 38 39 38 38 38 36 36 38 38 37
17 20 37 61 51 52 54 52 36 33 34 35 37 36 21 13 27 32 29 26 23 19 17 21 24 25 14 6 4 6 14 20 26 29 30 36 36 35 37 38 40 39 38 38 37 36 34 33 33
22 20 20 38 50 56 36 33 28 28 19 24 29 26 17 17 25 28 27 25 21 18 26 29 30 20 10 5 8 15 20 26 31 33 36 37 33 34 37 41 43 43 43 41 40 40 35 36 36
19 18 18 28 38 31 20 15 13 20 12 8 8 6 8 14 22 25 24 22 26 32 38 28 15 10 6 9 17 20 27 31 35 36 36 33 31 31 39 45 48 47 49 49 48 48 46 44 44
15 21 24 30 31 23 15 17 19 21 19 17 17 13 4 8 15 21 23 24 26 42 36 38 35 20 8 14 20 26 31 33 36 36 33 32 34 36 44 52 54 56 59 59 57 50 50 48 50
14 13 12 13 17 13 20 15 17 19 22 18 22 19 29 31 27 21 18 26 34 38 37 45 35 28 27 24 26 30 33 34 34 36 40 42 42 42 51 57 61 62 63 62 63 63 59 56 50
13 12 13 14 13 13 14 16 17 21 19 19 21 27 34 44 48 49 51 52 52 58 62 63 43 36 45 50 32 60 54 53 45 52 54 53 49 55 60 66 68 68 65 65 66 67 67 72 72
12 12 14 16 15 14 14 17 16 18 18 20 23 27 41 55 61 65 67 64 66 67 74 76 65 63 63 73 62 65 60 58 54 49 52 54 55 57 65 71 73 72 67 66 68 67 69 74 76
20 17 12 14 14 12 16 14 18 18 19 23 26 29 36 53 60 68 71 73 71 74 76 76 77 85 77 80 87 76 71 71 59 54 56 57 58 62 64 68 70 72 70 74 72 72 75 79 80
20 22 23 24 25 23 20 25 23 19 22 24 26 27 30 40 56 64 73 77 78 76 78 80 78 87 92 99 86 84 81 68 58 60 64 68 71 78 80 72 70 74 80 85 96 87 88 87 75
17 20 20 21 25 26 27 24 25 22 24 24 26 27 29 32 47 57 69 74 77 74 77 83 91 98 99 85 85 85 75 59 64 70 76 87 99 100 100 99 100 100 99 95 89 91 83 64 44
23 20 23 20 25 26 25 24 23 23 25 25 26 29 29 29 34 38 59 69 73 72 79 86 84 85 84 83 83 72 56 57 58 64 90 100 99 99 100 100 97 86 86 76 63 52 49 48 44
20 21 23 24 23 25 24 25 24 25 27 29 29 29 29 30 29 37 52 60 73 76 69 66 69 70 68 56 54 50 47 51 68 73 73 69 67 71 74 72 69 68 88 100 90 61 52 49 44
23 24 25 25 27 28 28 30 31 31 32 32 33 34 36 48 49 52 52 58 58 59 64 64 57 53 55 55 51 47 45 47 51 55 52 50 52 56 62 68 71 72 68 62 57 53 47 41 36
29 26 27 30 30 26 35 40 41 38 39 38 36 42 50 59 58 60 59 57 50 46 47 52 56 57 54 44 46 46 48 50 49 49 46 49 52 42 49 54 60 64 64 58 49 44 34 22 20
30 34 30 31 32 35 43 36 50 50 46 40 44 50 50 50 45 49 54 51 46 46 39 36 37 36 36 39 41 44 45 44 44 40 47 61 56 49 60 65 66 61 54 51 45 36 24 26 31
34 32 36 41 44 48 48 54 49 47 47 48 51 50 51 53 56 59 50 52 50 52 52 48 40 44 52 60 53 59 61 58 64 63 54 55 53 62 71 66 61 57 55 52 44 31 28 34 35
37 36 47 53 63 65 52 54 51 54 56 54 51 54 61 68 68 56 66 60 64 55 50 50 54 62 69 67 66 75 78 75 73 75 65 57 69 78 77 72 67 58 49 46 42 39 37 30 23
38 41 42 57 73 49 54 63 56 53 54 60 70 71 73 72 72 82 68 75 72 62 62 70 76 82 80 76 77 74 65 68 83 74 62 72 88 82 59 45 40 38 39 38 35 32 24 22 27
45 49 36 44 59 56 61 65 64 63 66 66 70 74 80 70 67 76 79 78 77 92 92 93 92 78 73 81 76 64 66 78 67 63 65 56 55 48 44 32 33 36 37 31 22 19 19 23 40
33 40 46 41 60 57 56 63 63 69 69 69 73 72 77 80 74 86 85 85 96 99 100 95 93 85 94 80 67 85 80 58 49 47 40 38 53 60 66 50 51 55 41 26 25 27 32 45 62
39 34 34 43 52 68 81 53 54 52 62 67 71 74 76 75 91 82 86 100 98 92 98 97 91 86 67 66 68 60 45 33 26 28 36 27 26 63 79 68 69 87 81 55 32 44 46 50 38
24 34 30 23 42 57 62 48 51 56 64 62 60 72 76 74 83 96 100 98 97 99 100 83 61 53 56 48 39 26 15 15 20 39 72 66 75 78 84 86 80 98 100 87 39 45 59 58 24

GFSSGP_700_rhum_045.txt.gz
RH
7 7 8 11 18 14 15 38 62 72 65 67 85 87 78 67 67 69 60 60 58 50 49 50 51 46 44 42 40 38 37 24 18 19 17 10 8 10 13 12 10 7 5 6 8 8 7 8 9
8 7 8 11 15 14 26 29 58 72 62 80 94 88 87 84 82 74 60 57 50 50 50 52 46 42 40 40 41 40 32 17 18 17 10 5 5 4 5 8 12 17 19 20 20 20 19 18 14
8 7 8 15 18 22 41 43 57 68 70 87 80 72 83 78 77 82 73 62 52 51 52 49 44 42 43 42 41 26 17 18 14 10 4 7 10 17 21 23 25 27 28 28 28 28 27 27 25
7 9 12 16 16 28 49 66 70 68 74 75 72 66 67 73 78 78 77 76 52 52 51 48 44 45 38 33 19 17 16 11 10 3 10 15 22 26 28 31 34 34 34 34 33 33 32 30 30
7 12 15 16 20 25 25 67 68 68 71 68 66 55 74 71 61 75 82 75 55 52 55 48 44 43 29 17 18 16 12 6 3 8 17 26 31 35 35 36 36 36 35 35 35 34 34 34 33
10 13 16 24 45 23 30 58 72 70 70 54 50 48 59 56 65 94 81 67 55 58 61 51 45 38 19 18 19 12 3 3 6 17 26 34 36 36 37 38 38 38 38 38 38 37 36 35 34
14 17 22 46 52 38 42 66 66 66 52 57 43 50 52 53 63 76 84 68 55 57 63 51 46 21 19 22 14 6 4 7 16 26 31 36 36 35 33 34 38 38 40 40 39 40 39 40 39
19 23 43 56 63 74 72 72 69 68 50 54 50 56 45 53 62 66 66 58 56 59 56 48 22 20 24 19 7 4 7 15 25 31 36 39 36 35 35 39 41 42 42 42 42 44 44 45 46
21 23 24 56 63 74 75 70 56 57 60 64 48 43 32 34 57 58 52 46 45 43 40 20 20 24 27 13 5 8 18 25 33 36 39 39 38 36 36 36 42 46 45 45 47 48 52 51 50
21 29 24 34 55 65 61 59 52 53 62 58 52 36 16 38 40 38 36 33 33 26 18 21 25 30 24 7 9 20 27 33 38 39 40 41 37 38 41 40 42 47 47 50 51 54 58 61 60
16 20 22 46 48 45 55 58 45 57 41 32 31 31 16 36 33 32 29 23 19 20 30 28 20 18 11 16 26 31 36 40 40 41 41 39 45 51 52 47 46 49 51 56 58 60 63 63 62
21 28 30 44 46 40 42 51 57 37 24 19 13 15 18 25 28 26 22 21 29 36 35 33 17 12 23 30 34 40 45 45 44 44 42 50 52 48 52 48 50 52 56 61 66 71 71 70 69
27 29 41 42 47 43 40 44 30 28 25 22 12 16 14 19 26 25 27 35 42 64 56 49 40 31 29 34 39 42 44 43 46 48 58 56 51 48 49 52 56 60 66 72 78 87 87 83 80
23 28 24 30 44 38 29 31 27 28 26 32 37 38 37 24 25 26 38 54 62 75 83 74 69 69 64 47 40 54 69 71 69 72 77 79 70 65 61 58 60 67 76 90 89 79 66 74 75
18 15 27 27 42 34 26 26 24 26 27 30 28 30 39 46 53 57 60 63 75 82 86 89 88 81 82 83 85 68 80 74 74 78 80 80 80 67 65 65 64 69 75 77 68 72 68 76 79
19 16 16 17 21 24 22 21 19 23 24 25 26 34 44 47 47 50 60 69 76 81 87 90 87 98 95 92 93 88 98 91 69 84 92 87 77 71 74 70 94 97 66 82 89 98 59 80 56
15 16 15 16 17 17 19 18 19 22 23 25 25 28 36 47 56 62 65 68 73 78 84 89 92 91 98 100 98 98 83 83 92 93 83 74 76 66 73 58 83 51 78 58 50 47 44 42 44
22 18 15 16 17 24 17 21 26 25 21 24 25 27 29 33 46 54 64 70 74 77 78 86 92 95 99 100 99 84 83 82 70 62 68 68 61 51 48 49 49 48 47 48 48 45 50 54 55
19 20 22 24 24 26 27 27 27 25 24 22 24 27 29 34 39 48 52 63 67 70 78 80 98 96 79 89 71 61 54 52 50 49 48 48 48 52 53 51 50 52 51 46 42 42 42 42 44
21 21 24 24 22 24 25 25 23 23 25 22 26 29 35 44 46 42 44 54 66 73 73 87 86 86 70 60 53 48 52 55 60 63 63 63 60 50 41 41 43 47 45 43 40 38 35 36 39
20 23 25 25 26 26 25 24 24 24 25 24 26 29 37 38 42 49 60 62 63 67 69 62 56 51 48 52 63 71 74 74 71 66 60 57 48 36 36 36 36 34 32 29 28 30 34 40 46
25 28 27 28 28 28 28 28 26 26 25 24 26 31 41 54 63 67 60 54 54 51 50 49 60 61 66 66 70 64 59 59 57 59 52 43 41 39 39 36 31 25 20 19 19 18 20 22 29
26 33 33 31 31 30 32 34 30 31 31 32 35 45 61 70 66 60 63 62 60 57 59 64 71 83 81 71 68 70 69 66 61 59 45 42 43 40 36 29 21 20 19 17 14 14 18 19 27
27 32 34 33 34 43 35 40 43 33 29 35 42 58 67 65 61 63 63 63 65 68 70 84 90 81 78 77 72 72 73 63 66 56 48 47 40 32 25 20 21 18 18 18 16 17 21 44 56
35 31 41 43 52 45 52 54 42 42 43 45 54 58 60 60 63 64 66 72 77 72 75 82 85 80 76 82 80 84 82 72 67 53 48 39 28 20 16 16 16 18 18 17 16 19 26 38 55
38 37 38 54 59 53 56 58 47 45 44 49 62 64 61 62 65 71 67 66 65 68 75 82 83 83 86 83 94 91 82 68 54 45 32 20 15 14 14 11 12 14 14 12 15 26 49 61 64
43 46 40 39 54 54 43 45 34 39 43 48 55 58 61 64 69 58 64 66 70 78 85 88 90 98 98 96 97 93 71 56 44 31 19 14 11 8 6 6 7 8 10 19 43 71 70 81 89
40 43 43 42 57 42 44 46 30 28 38 47 53 62 66 70 58 53 62 73 78 85 92 98 98 99 100 99 94 76 55 46 31 18 13 10 7 7 6 7 9 15 35 55 64 64 76 96 100
38 45 35 34 38 43 48 31 21 25 45 43 52 66 69 65 57 61 71 83 85 84 94 97 96 99 100 99 85 59 49 29 15 12 9 7 6 7 8 11 20 31 50 54 64 72 96 100 88
39 36 32 27 37 48 53 28 21 22 33 52 69 72 73 72 71 73 79 87 86 92 95 100 98 98 98 89 90 68 24 15 12 9 7 6 6 7 10 14 23 34 44 82 79 99 91 85 94

GFSSGP_700_rhum_048.txt.gz
RH
7 7 8 8 28 29 24 26 56 66 68 65 81 95 97 93 96 78 68 68 58 60 53 52 50 49 49 50 43 41 39 26 19 19 13 9 7 6 6 6 6 10 15 17 18 18 17 15 12
8 8 8 22 25 18 16 26 55 48 68 77 93 97 95 84 76 71 94 80 69 54 52 56 49 45 47 42 41 42 36 18 18 15 10 6 5 8 14 20 22 24 25 26 26 25 25 24 23
10 8 17 20 15 15 19 37 88 69 75 73 76 86 88 84 73 85 79 67 60 59 54 55 46 42 41 41 43 39 18 18 14 11 5 7 15 21 25 28 30 31 31 32 31 30 30 29 28
8 7 11 16 14 26 45 76 90 86 80 75 81 78 94 86 88 74 70 68 74 61 60 52 45 44 44 42 33 18 18 13 11 4 10 17 25 29 33 33 33 33 34 34 34 34 33 32 31
7 16 18 16 18 27 64 82 86 85 79 75 68 65 69 72 69 78 73 84 63 60 59 50 48 45 39 24 18 17 14 8 4 8 17 27 34 34 34 35 34 35 35 37 36 36 36 34 34
18 22 18 17 26 42 48 89 86 76 68 60 74 47 41 43 63 86 66 81 60 58 55 50 46 39 22 17 18 14 4 4 5 15 26 35 35 35 34 34 34 34 35 36 37 39 39 40 38
24 19 20 28 38 48 74 82 74 74 76 56 62 56 61 47 69 98 99 87 62 63 57 51 44 32 18 21 16 9 4 4 10 25 34 37 36 34 34 35 36 38 37 38 40 42 44 45 45
25 22 37 41 42 57 86 83 78 65 71 47 45 72 60 63 63 97 96 74 65 70 60 50 38 18 22 22 12 5 5 7 22 32 40 39 38 38 38 39 42 44 43 42 44 48 50 48 51
17 26 40 49 49 80 81 80 59 53 54 59 61 61 57 65 68 81 93 66 63 65 57 45 20 23 26 16 7 7 7 15 32 38 41 41 42 39 41 41 42 44 47 48 50 52 55 56 56
24 27 29 40 61 62 73 70 49 60 42 61 66 57 45 60 71 72 71 65 62 58 44 21 21 26 28 13 7 10 14 29 40 41 43 44 42 46 48 49 46 46 50 52 56 58 60 61 64
26 27 30 41 63 56 55 61 57 61 56 71 77 44 24 65 66 67 68 64 49 28 19 20 29 33 28 9 14 22 28 42 42 43 45 44 48 56 59 60 57 57 59 59 61 63 64 67 70
24 22 30 50 54 39 53 47 55 65 51 30 34 28 34 46 40 43 39 25 19 23 31 32 24 18 14 18 28 34 44 46 43 45 44 45 66 69 68 66 67 69 72 71 72 72 72 72 71
23 34 40 45 40 45 45 51 58 52 26 11 14 23 33 34 31 24 21 26 36 42 38 29 16 21 26 33 38 45 48 47 46 50 56 69 73 82 81 76 74 76 85 84 78 73 72 74 67
30 37 37 36 46 48 50 47 47 30 24 13 17 26 30 29 26 23 28 44 65 59 56 57 51 36 34 39 44 46 45 47 68 71 73 70 80 83 90 88 85 76 76 69 74 65 58 65 63
24 25 27 35 36 50 40 38 36 29 35 33 33 25 25 25 24 29 46 64 73 80 86 87 77 78 69 45 38 42 66 85 83 73 64 61 83 88 88 89 79 80 68 76 79 45 48 80 50
20 23 27 25 38 40 29 23 23 29 36 39 43 41 41 45 48 54 61 68 76 83 89 90 94 95 92 86 83 68 76 98 92 66 67 71 90 74 79 83 74 61 43 62 44 43 50 46 44
19 20 20 29 38 30 24 21 20 24 28 37 41 44 44 46 50 54 62 66 72 78 84 87 90 89 91 99 100 100 96 97 86 92 93 93 76 78 69 51 46 46 46 46 46 50 48 49 45
19 17 19 18 19 24 24 21 19 22 26 27 31 38 45 52 57 61 63 66 71 76 79 83 88 96 97 100 99 94 63 82 75 76 67 57 48 45 46 47 49 50 47 46 44 47 47 45 40
23 20 18 21 17 26 25 18 22 24 23 25 30 31 34 40 45 54 63 68 71 74 78 82 90 94 99 81 73 60 56 51 44 44 45 50 56 59 57 49 40 38 38 38 38 32 24 20 17
23 24 25 23 19 27 29 29 27 26 26 24 26 30 31 36 44 48 52 56 55 62 67 76 82 79 60 57 49 48 53 60 62 60 59 59 56 45 40 41 40 36 32 24 18 15 13 12 11
30 27 28 26 23 25 29 29 23 23 22 25 24 26 30 35 43 43 41 49 57 60 62 67 60 49 46 51 57 56 56 59 67 66 66 65 54 47 45 44 36 25 18 14 13 12 10 8 8
28 23 24 26 27 23 26 19 32 23 22 23 25 27 31 35 37 48 54 58 55 51 51 53 58 62 66 74 76 76 81 92 91 82 71 66 53 49 46 37 24 16 13 12 11 10 8 7 6
27 25 30 31 30 30 31 25 32 29 28 25 25 26 30 40 50 54 58 55 57 57 55 56 59 69 87 85 82 87 92 98 96 80 72 59 52 48 37 22 15 13 12 11 8 8 7 7 8
25 32 34 35 36 29 28 34 17 38 48 35 35 41 48 54 58 57 58 60 64 77 80 79 83 88 86 85 86 90 94 97 85 78 65 56 48 34 20 14 12 11 8 6 6 6 9 35 73
34 35 27 32 31 26 51 40 22 36 38 42 43 49 57 62 61 62 65 74 79 66 64 71 84 92 93 94 95 97 89 87 85 75 60 48 31 17 12 10 7 6 6 12 48 71 100 92 89
40 34 27 26 29 28 50 37 42 41 41 42 48 66 66 62 64 68 75 64 62 64 70 77 85 89 90 85 85 98 91 93 94 66 49 32 17 12 9 7 5 5 32 80 81 87 88 84 86
41 38 42 48 46 47 31 43 40 31 34 39 47 59 64 65 67 72 58 56 66 72 78 84 92 95 91 100 89 96 96 97 80 75 40 19 13 10 7 6 5 6 72 89 92 84 85 74 72
41 42 42 41 46 29 20 28 23 28 38 38 48 53 65 69 67 70 53 57 69 79 84 86 96 100 100 98 96 97 98 81 60 34 21 14 10 7 6 6 6 7 33 94 83 81 80 85 68
46 46 41 41 37 24 21 15 22 26 23 30 46 58 66 65 70 66 56 62 73 81 89 96 100 91 92 99 99 87 73 52 39 22 15 11 8 6 6 6 7 10 22 85 76 80 78 62 77
33 43 44 32 36 52 46 20 14 13 12 21 29 43 55 58 66 69 72 77 78 82 94 94 100 96 100 98 77 65 59 41 23 16 12 9 7 6 6 7 9 13 18 59 36 34 49 61 100

GFSSGP_700_rhum_051.txt.gz
RH
13 7 11 13 24 19 18 19 24 63 71 84 51 69 70 67 74 84 95 85 54 52 58 54 49 46 44 44 42 43 40 29 21 19 11 5 4 4 6 11 17 20 21 22 23 23 23 22 22
11 8 8 24 20 16 17 19 27 51 91 90 71 95 92 88 83 83 81 84 67 64 60 56 50 47 46 44 45 46 39 22 21 14 8 6 7 14 20 23 25 27 28 29 28 28 28 28 27
10 9 21 16 16 12 14 23 59 82 85 89 65 64 82 84 80 84 93 96 74 70 65 60 53 44 45 46 49 44 26 22 15 11 6 8 18 23 27 30 31 32 32 33 33 32 32 31 30
10 11 20 22 14 12 17 49 72 78 85 80 69 76 76 84 86 98 99 93 78 73 83 57 49 40 43 50 47 27 21 15 12 5 9 17 25 30 33 33 34 35 35 35 35 35 35 34 33
11 20 18 18 17 14 23 70 70 83 72 78 75 65 72 82 80 96 97 86 94 89 75 55 42 45 48 44 27 19 15 11 6 8 14 26 33 35 36 35 34 32 34 35 36 38 38 36 36
17 19 19 18 17 18 29 58 59 71 73 68 73 59 49 43 66 75 89 84 84 88 72 55 52 47 40 26 18 16 11 5 4 11 23 33 37 38 37 35 34 35 37 37 38 42 42 40 38
20 19 19 18 22 35 33 61 80 78 74 89 66 86 42 56 77 77 81 94 77 72 59 53 54 46 23 19 19 14 5 4 7 19 30 38 39 38 36 35 35 39 41 42 43 46 48 49 46
18 22 19 23 33 38 62 69 76 79 74 63 96 71 53 42 64 87 80 79 77 68 59 59 46 22 19 22 18 11 4 5 11 26 38 41 41 40 35 34 39 43 45 47 48 51 53 54 54
24 23 20 51 41 46 74 69 66 79 68 86 80 84 80 58 60 93 97 87 77 81 68 51 29 19 23 23 13 6 6 7 21 35 42 43 41 39 34 39 45 46 47 50 53 57 59 59 58
21 22 28 41 54 57 75 64 68 66 69 77 90 70 56 54 60 70 90 77 75 74 57 40 22 23 26 23 10 6 7 11 30 42 44 45 42 39 42 52 58 54 52 57 60 64 68 66 77
20 24 31 31 55 58 52 66 62 52 44 51 67 56 43 50 73 84 98 74 73 70 48 24 20 24 30 28 10 8 10 23 42 44 45 44 42 45 62 68 64 66 59 65 66 66 74 73 71
25 26 24 32 45 46 52 60 37 66 64 52 78 46 52 97 92 84 100 90 71 44 23 21 23 28 32 21 10 15 18 39 46 46 48 48 52 68 73 71 72 82 76 70 80 87 67 67 62
25 28 40 57 39 46 46 50 85 58 52 57 86 89 100 100 99 99 97 43 26 27 28 29 30 23 18 17 21 25 31 51 50 53 56 67 81 91 98 92 81 84 76 80 74 68 66 56 50
28 38 48 42 47 51 46 49 49 50 58 81 42 89 92 91 90 87 72 50 40 37 35 31 21 16 20 26 34 40 46 50 56 58 71 76 64 68 76 84 86 83 79 84 74 64 68 72 43
27 42 38 36 45 42 43 38 40 52 63 70 76 77 80 76 76 71 69 52 55 46 47 51 56 49 34 28 32 42 54 55 62 80 70 60 60 82 82 78 95 90 83 66 49 39 38 38 42
33 32 29 28 34 39 35 28 36 52 62 66 69 71 71 68 63 62 41 54 61 65 64 72 79 82 82 79 67 50 46 61 80 68 63 60 59 70 78 87 81 69 45 41 42 43 42 39 39
23 25 25 25 30 25 32 26 26 50 58 67 67 64 58 46 61 39 45 52 68 79 76 77 88 86 88 93 100 99 93 92 91 78 87 75 88 85 76 60 45 45 44 39 35 33 32 33 33
18 19 20 22 25 23 20 25 22 36 48 62 71 74 78 44 46 50 59 62 72 79 78 77 80 87 90 90 98 86 75 99 87 91 91 78 54 46 47 45 41 39 37 39 38 34 31 27 20
17 14 16 16 17 18 18 27 32 41 47 58 73 81 83 72 48 52 56 58 61 66 70 74 78 84 92 95 74 50 54 54 57 54 45 48 51 47 51 49 45 44 45 44 36 25 18 16 14
21 20 18 18 20 23 23 28 26 22 34 62 66 75 86 61 46 55 59 62 64 67 70 74 79 83 84 58 47 43 46 50 56 57 55 54 59 63 56 51 49 48 41 28 20 15 14 12 9
21 22 26 21 25 23 25 29 40 37 54 59 69 74 87 60 48 50 47 42 41 46 60 72 74 62 49 55 68 75 71 64 65 66 78 81 75 70 60 52 49 38 24 17 14 12 10 7 5
23 24 23 23 26 22 24 20 36 38 22 21 26 72 87 94 43 40 36 38 49 62 61 52 51 54 61 78 84 82 85 99 99 98 94 88 75 68 57 53 42 27 18 14 10 7 5 5 7
39 23 26 22 20 32 25 18 34 49 52 40 29 45 90 48 41 34 44 53 60 54 55 56 55 57 66 80 84 85 88 92 98 95 91 88 81 70 64 53 28 17 13 12 11 12 17 28 33
25 30 31 27 24 25 19 21 22 36 36 54 71 82 86 49 40 51 57 56 56 58 60 71 72 68 72 80 85 88 94 99 99 94 92 92 79 64 46 23 16 12 11 40 49 23 61 77 90
32 30 29 31 24 26 29 28 18 36 41 42 70 78 86 61 52 60 57 58 60 69 68 61 65 71 77 83 88 90 90 98 100 95 97 88 73 50 23 17 12 8 8 18 28 49 89 96 96
32 27 25 28 24 19 34 19 25 35 32 46 70 83 84 58 62 63 60 65 69 62 59 66 71 75 82 91 89 88 99 88 85 98 90 65 46 27 20 14 10 6 7 21 54 19 84 89 94
33 30 32 31 38 35 19 25 34 28 32 34 72 87 94 76 62 66 65 71 55 56 65 73 78 82 86 94 95 93 100 98 99 75 63 47 30 21 15 11 8 6 5 6 41 38 62 88 94
33 38 32 30 38 29 15 17 22 41 47 33 66 78 76 81 84 94 86 66 60 59 65 76 87 88 96 98 99 99 100 99 72 62 46 32 27 18 12 8 6 6 6 7 29 43 82 86 94
40 33 32 34 32 31 19 15 28 29 43 48 59 71 76 84 92 96 96 84 60 63 68 77 87 94 97 100 100 99 100 89 66 52 35 26 18 13 9 7 6 6 7 8 34 20 62 61 50
37 31 33 34 29 32 36 23 20 24 42 46 52 67 71 83 92 95 70 71 70 74 84 85 87 96 100 100 99 99 89 79 63 42 27 18 14 10 8 6 6 8 8 12 14 20 24 28 38

GFSSGP_700_rhum_054.txt.gz
RH
12 11 10 11 26 25 19 19 18 29 45 63 64 65 48 50 50 67 84 99 69 70 55 58 47 45 38 34 32 34 31 23 19 17 10 5 4 6 11 17 20 22 24 25 26 26 27 27 27
11 12 11 18 23 18 16 20 44 53 57 66 57 89 78 63 58 77 79 83 70 83 59 54 50 46 41 35 38 35 32 19 20 12 7 6 10 18 21 24 27 29 29 29 30 30 30 30 30
12 9 20 18 17 20 15 30 36 63 72 59 43 62 57 75 77 86 94 91 90 72 62 59 57 44 48 40 41 35 26 22 15 11 6 10 18 24 28 30 30 31 32 31 31 32 32 31 30
12 13 14 21 20 15 13 35 56 63 87 83 84 71 68 75 78 77 94 96 78 75 71 62 62 52 46 43 42 28 24 17 12 6 9 17 25 30 32 33 32 32 32 33 34 35 32 30 29
18 22 14 16 18 17 16 44 64 58 73 74 85 73 72 73 75 80 82 84 98 87 94 84 72 68 44 43 34 24 18 14 11 5 13 24 31 34 35 33 30 30 32 33 36 39 40 40 38
23 18 19 20 18 19 16 32 65 74 71 69 69 55 51 59 62 70 89 87 98 97 95 88 72 52 44 36 27 18 15 7 4 10 20 29 36 38 36 33 32 34 36 39 41 43 46 44 46
21 19 18 20 20 25 32 69 62 72 51 64 65 92 44 46 65 83 93 83 99 96 92 75 62 48 36 29 20 18 11 4 4 13 25 36 40 41 38 33 35 39 43 45 45 46 50 51 52
18 18 19 20 18 60 56 54 68 63 78 68 69 64 75 52 67 74 89 99 97 96 84 76 66 52 35 22 22 19 8 4 7 18 31 39 42 41 37 36 40 44 44 45 48 51 54 57 58
19 19 21 21 35 52 56 60 77 66 73 69 79 81 61 80 60 73 82 98 98 89 73 62 51 46 29 29 24 13 5 5 8 24 36 43 43 39 39 40 48 53 50 50 53 53 55 58 58
21 21 21 33 36 45 51 49 61 76 77 88 78 63 64 53 60 80 79 92 98 97 73 60 52 26 24 25 22 8 5 6 11 29 42 44 44 44 40 51 63 59 59 56 56 60 63 60 64
20 21 22 44 56 53 59 66 74 58 48 47 88 74 44 35 62 82 92 93 88 75 64 55 24 22 23 28 23 9 7 8 15 36 43 45 46 48 57 64 82 61 60 62 64 64 72 67 66
20 20 25 52 48 49 60 59 61 63 55 70 68 78 31 86 83 100 71 99 89 72 53 33 21 22 29 31 26 10 8 11 30 40 44 49 58 60 75 81 67 62 74 83 82 81 80 76 64
21 24 32 42 44 42 50 47 52 56 42 89 76 46 77 85 93 81 99 82 67 60 39 22 23 28 28 24 20 15 11 14 21 35 48 52 59 77 87 88 80 79 78 82 82 76 78 64 44
27 27 46 42 51 47 49 61 65 55 72 77 82 68 81 98 57 99 75 62 36 24 23 28 27 24 15 11 13 17 17 18 27 50 49 55 69 68 83 83 82 88 86 88 82 69 53 38 36
31 40 40 36 44 50 45 51 52 62 78 73 70 81 67 80 89 82 58 27 23 23 24 25 28 31 41 44 29 26 27 40 49 49 55 52 61 67 73 94 92 94 88 79 63 42 38 36 31
32 40 33 26 33 41 40 44 51 61 70 71 73 73 75 77 76 70 64 39 34 39 37 50 51 53 66 84 84 54 51 73 72 67 50 69 66 67 81 83 87 79 64 43 39 36 34 35 36
34 37 32 29 25 37 36 37 47 57 60 63 66 68 69 66 64 65 70 63 63 50 56 52 56 76 80 83 88 91 97 85 75 94 94 63 74 78 85 76 53 43 42 41 40 40 40 40 34
28 28 27 24 23 29 30 29 38 50 59 52 63 69 68 45 59 45 37 53 78 67 53 58 69 86 84 84 87 99 72 47 45 58 88 73 86 82 56 44 45 45 46 44 43 41 38 31 25
25 23 23 25 22 21 19 27 35 38 46 70 63 68 74 74 57 38 42 47 66 89 62 58 71 76 82 89 94 76 42 39 39 49 71 80 54 47 50 54 58 56 55 50 50 49 40 30 25
19 19 16 16 16 17 17 23 26 35 38 52 62 68 77 85 45 44 50 55 56 59 61 67 73 80 90 91 61 45 54 64 66 63 63 66 53 54 68 66 68 62 58 58 50 35 30 23 18
23 26 21 21 18 18 23 19 30 34 39 44 56 69 79 79 49 47 54 55 55 56 62 66 65 77 74 54 52 58 74 76 72 71 67 72 84 84 74 71 69 66 62 47 36 28 21 17 11
39 41 25 28 31 20 22 33 35 37 45 50 56 64 73 86 84 54 43 38 47 41 47 63 66 54 53 57 62 76 82 81 88 88 99 86 82 75 82 75 60 52 43 36 23 17 13 8 6
25 26 27 20 18 25 27 41 36 35 43 55 61 69 74 89 98 76 50 30 32 48 60 53 55 57 64 77 78 79 89 100 95 94 95 95 98 93 86 57 50 42 33 19 14 10 7 8 12
30 26 29 25 24 43 34 42 36 39 41 52 65 74 84 95 89 68 53 47 52 57 55 58 67 68 67 66 70 83 85 90 88 92 80 91 97 98 71 50 33 23 15 11 8 6 5 6 17
31 28 30 72 66 35 19 33 31 39 40 56 62 64 86 84 88 73 56 54 57 56 59 68 64 57 62 67 74 82 84 87 94 98 100 97 98 68 54 36 23 17 14 9 6 5 14 9 15
36 23 47 51 68 35 30 23 32 40 32 46 61 68 75 83 85 82 74 64 57 60 66 63 56 61 63 67 72 82 87 90 99 100 99 98 78 61 44 31 21 16 10 7 5 6 6 8 52
31 31 32 28 26 34 26 18 39 35 26 21 63 74 74 93 87 84 84 81 64 64 59 56 63 69 63 68 84 88 97 100 99 99 100 94 66 50 34 25 18 12 7 5 5 6 8 10 21
25 29 33 27 40 41 20 17 30 43 20 34 65 71 77 87 74 77 89 84 88 74 59 50 61 77 62 76 84 97 99 100 99 99 85 77 66 42 32 23 14 8 6 5 6 7 8 12 18
37 36 28 24 30 46 51 26 33 36 40 17 56 69 80 74 74 81 94 100 96 97 79 56 67 78 83 84 96 98 100 99 96 88 86 67 48 35 29 16 9 6 5 6 8 9 12 16 19
32 33 30 32 32 31 34 33 27 31 35 32 46 60 74 73 80 89 97 98 100 79 74 75 88 86 88 100 100 100 98 99 83 79 68 53 41 30 18 10 6 6 6 8 11 12 16 21 26

GFSSGP_700_rhum_057.txt.gz
RH
12 13 11 13 16 27 24 16 19 21 48 51 63 46 41 54 57 61 63 68 69 85 66 59 50 42 40 31 25 23 21 19 18 11 5 5 6 10 16 19 21 24 25 27 28 28 29 29 29
12 12 9 18 19 22 22 23 35 34 54 57 61 52 52 47 58 58 73 85 86 73 77 68 53 46 42 32 30 26 21 19 18 10 4 8 14 19 22 26 28 29 30 30 30 29 28 28 28
12 14 12 19 17 19 16 24 36 31 40 50 53 49 32 39 52 56 70 94 83 85 80 82 59 55 42 33 34 32 21 22 16 9 5 13 19 24 28 30 31 31 30 30 31 31 29 29 28
14 19 16 20 19 18 18 17 40 43 50 46 51 51 38 57 62 67 86 94 92 97 95 85 76 55 43 40 38 30 25 20 14 7 10 17 24 30 32 32 31 30 30 30 33 35 37 37 36
22 22 23 15 16 18 26 36 49 55 55 62 47 50 70 73 77 84 88 86 100 99 98 92 94 65 49 45 39 26 22 17 11 5 13 22 29 33 34 31 30 31 32 34 34 36 40 41 44
20 23 20 19 20 41 47 51 58 55 51 62 66 62 57 66 73 73 92 98 95 96 98 98 88 86 58 50 35 25 18 13 9 7 17 26 33 35 33 32 32 34 38 37 38 38 43 46 48
21 23 21 19 18 32 46 50 52 62 69 71 62 51 45 37 39 42 82 98 98 97 98 99 100 76 53 46 32 20 15 6 4 11 21 30 36 37 35 33 35 38 42 42 43 43 47 50 49
24 19 18 19 21 45 47 54 60 63 72 75 81 73 58 41 50 75 92 100 100 99 94 96 90 60 48 38 25 23 16 6 5 13 27 35 37 37 34 34 34 40 46 44 43 49 50 49 52
24 24 21 18 35 45 54 50 57 74 68 74 83 88 74 54 56 71 86 99 99 99 95 93 75 54 53 45 36 29 17 7 7 16 25 36 38 37 38 36 38 47 48 47 51 55 54 56 61
23 21 20 37 34 48 46 48 50 56 49 65 83 82 79 55 64 71 84 100 99 94 71 82 79 71 52 32 24 14 7 5 6 13 26 35 38 39 40 40 43 51 56 58 58 66 68 65 65
21 21 21 28 45 42 47 46 44 60 57 63 54 70 56 64 75 78 82 100 86 76 83 74 66 38 27 26 24 21 9 6 8 14 23 29 38 39 40 53 54 61 61 64 69 67 66 71 69
21 24 29 44 43 43 44 52 58 65 72 88 78 78 63 66 76 87 97 93 70 86 78 63 35 23 26 27 26 25 17 8 6 10 27 37 44 48 49 55 70 78 64 73 76 76 76 71 64
21 27 35 41 48 48 60 51 53 63 72 86 70 67 67 90 99 99 93 96 82 71 44 32 22 20 21 21 19 15 16 12 9 14 29 42 49 53 62 85 97 92 87 90 84 83 76 61 44
22 29 36 40 44 53 47 47 52 62 41 62 50 73 77 81 96 64 86 79 68 40 27 22 24 23 20 19 22 28 25 20 21 24 34 51 48 53 72 91 84 77 82 84 85 69 51 40 38
31 30 35 35 49 58 50 55 61 68 70 73 87 79 87 86 70 34 54 48 34 26 28 29 23 38 53 70 72 64 55 51 42 50 47 50 54 61 70 75 72 76 82 74 59 46 41 39 38
30 34 38 36 45 52 45 58 66 61 63 77 80 66 77 88 74 53 44 46 25 32 31 38 44 54 65 82 84 82 78 81 65 82 74 76 64 76 70 80 80 67 60 52 44 41 41 40 40
32 36 33 37 50 37 38 42 58 58 68 70 75 71 83 77 72 74 74 45 28 38 37 43 54 63 73 77 84 84 86 89 84 58 65 65 74 71 82 82 79 65 54 45 43 45 47 46 47
31 32 32 29 40 29 32 35 54 60 62 62 62 66 69 56 59 58 60 45 39 42 45 51 59 69 72 76 78 82 90 75 43 41 42 47 78 87 83 75 74 53 47 44 49 52 51 47 39
33 38 28 28 28 32 29 31 42 52 55 60 59 54 57 44 43 53 59 53 46 40 40 51 66 74 71 74 81 86 78 44 48 56 57 52 64 86 82 56 49 48 58 57 57 48 37 36 35
32 30 37 25 24 23 27 27 31 47 51 45 40 59 51 30 28 33 43 54 47 46 50 57 62 68 76 81 84 75 48 56 65 70 65 65 64 60 62 62 66 62 62 62 46 43 39 37 30
33 31 25 26 22 15 16 26 34 34 35 41 49 57 68 44 28 31 40 47 51 52 55 60 64 76 72 70 69 53 57 63 64 71 71 72 69 73 74 69 70 71 69 49 46 41 37 31 24
31 33 24 28 26 22 23 36 32 35 38 46 53 65 62 67 66 58 44 47 52 56 60 62 67 68 72 57 55 61 69 62 67 70 67 74 71 79 68 85 80 79 55 48 44 39 32 24 15
33 24 27 32 30 32 33 33 33 32 36 37 49 54 57 60 68 75 65 49 52 51 53 50 66 62 55 54 57 62 58 64 65 74 87 97 98 95 99 93 78 65 57 48 40 29 20 12 8
29 26 27 37 40 46 30 27 36 32 34 43 49 56 64 73 86 90 83 58 42 34 42 57 57 53 57 61 58 63 68 76 84 93 100 100 100 100 100 87 74 60 44 30 21 14 9 6 5
31 28 43 55 64 60 39 37 31 30 33 32 39 54 67 74 83 80 74 61 38 42 52 54 56 63 60 55 59 66 74 86 92 92 99 99 97 93 99 80 65 43 31 23 17 10 6 5 5
31 39 37 62 78 55 38 47 39 35 38 42 46 50 56 51 62 62 55 39 41 55 57 60 66 66 54 58 64 72 80 88 100 100 99 100 98 98 77 71 51 38 31 22 12 6 5 4 5
27 35 36 34 33 39 30 34 46 45 42 34 47 57 58 54 67 62 56 45 57 61 62 69 71 60 52 51 60 74 90 98 93 93 99 100 97 84 78 55 42 38 26 15 7 5 5 5 7
34 31 42 31 38 42 32 29 41 46 46 41 61 44 43 58 64 64 62 56 61 66 70 80 72 60 56 59 76 89 88 96 100 100 99 99 78 72 64 50 44 32 17 8 5 5 6 8 9
32 30 26 28 29 56 66 36 41 41 32 13 21 20 21 25 41 71 70 83 91 94 89 74 79 82 73 79 92 99 100 100 98 100 99 83 76 71 56 45 35 20 11 6 6 6 8 10 13
28 32 38 30 30 32 37 32 30 33 32 21 17 25 29 37 48 60 75 90 92 95 98 100 93 82 87 94 100 100 99 99 99 100 93 84 78 64 40 52 22 12 7 6 7 9 11 13 16

GFSSGP_700_rhum_060.txt.gz
RH
14 12 13 12 16 21 20 9 19 23 27 49 56 54 46 44 65 53 53 68 77 64 56 50 47 45 44 36 30 28 25 19 15 8 4 6 6 8 14 18 20 22 24 25 26 27 28 28 28
12 12 13 19 18 21 14 14 39 44 45 41 36 54 52 45 40 51 58 61 96 86 65 59 65 50 46 39 32 32 23 19 16 8 4 8 13 17 20 23 25 26 27 27 26 27 27 27 26
12 13 18 17 16 12 16 18 34 32 46 55 55 55 50 44 36 37 65 75 92 94 74 70 60 58 48 46 36 32 22 20 17 9 6 13 16 22 25 26 28 27 26 27 27 29 31 32 31
13 20 22 19 13 17 19 21 30 52 58 56 52 51 49 48 41 42 63 97 93 82 78 72 71 63 55 46 42 39 22 22 16 7 9 16 21 25 27 27 25 25 25 26 30 34 35 37 38
21 26 24 19 16 22 48 50 58 66 57 50 47 46 44 47 39 62 76 79 93 98 95 96 87 94 71 58 66 44 27 21 14 6 13 19 24 27 28 26 26 28 29 31 32 34 36 39 39
21 23 21 21 21 25 39 53 56 60 60 50 48 50 55 65 70 71 88 95 95 100 95 99 97 98 83 79 67 36 24 17 12 6 15 22 28 29 28 28 31 31 36 37 37 35 37 39 43
20 25 22 21 22 19 26 41 50 59 56 50 56 57 57 56 62 80 91 97 98 100 90 96 100 98 87 83 59 27 19 15 11 9 18 24 28 30 30 31 32 31 41 42 39 37 41 44 48
24 25 20 21 20 28 50 45 55 53 65 61 66 65 69 61 37 47 57 93 99 99 100 96 98 96 88 77 36 22 17 7 6 13 21 24 30 32 33 32 33 34 44 48 47 48 49 54 55
27 31 25 22 33 43 42 42 46 50 58 44 54 67 67 59 50 66 85 90 99 98 99 97 97 81 79 43 28 28 28 16 10 10 20 26 35 36 35 35 36 36 43 58 59 56 64 72 63
24 24 22 22 38 38 40 35 39 56 62 66 80 75 76 77 58 76 84 94 100 100 99 98 85 60 41 42 34 22 12 9 6 9 19 30 35 37 37 38 38 43 58 62 68 76 69 66 67
22 22 22 24 34 46 41 32 51 64 63 63 65 74 70 74 81 86 99 100 100 98 75 81 72 63 46 32 30 21 9 6 5 7 14 27 37 39 42 40 43 61 76 71 69 63 62 61 68
24 24 27 33 41 38 40 51 59 66 66 78 88 79 73 74 75 83 99 99 94 79 79 69 73 69 34 28 27 24 20 16 8 6 12 30 38 43 42 43 57 80 86 74 66 70 74 74 54
31 33 40 35 36 41 44 51 49 65 66 65 70 90 85 83 90 98 98 78 80 80 72 74 56 25 26 26 24 18 16 14 12 12 17 26 32 41 48 59 76 93 84 74 72 85 81 55 44
31 38 42 42 42 45 46 48 60 65 46 57 73 68 80 87 71 89 84 86 93 80 61 34 26 25 25 28 44 42 40 38 31 28 37 38 59 58 68 77 89 80 75 72 80 77 52 44 43
41 30 49 50 44 47 51 55 62 77 56 53 75 86 72 71 58 78 83 86 78 41 28 29 26 27 64 69 66 70 70 73 72 59 69 72 60 61 69 88 83 74 74 72 59 50 47 46 47
35 42 49 48 40 42 43 56 50 60 72 66 70 82 76 80 60 39 69 51 32 32 44 32 39 66 68 72 71 75 76 78 76 75 71 73 88 76 85 80 79 78 82 65 52 49 47 46 47
33 33 36 42 32 36 39 52 58 62 63 68 71 68 72 53 40 39 35 35 37 42 34 46 56 65 70 71 74 74 78 83 79 62 50 55 62 72 80 82 77 90 86 66 51 49 50 50 46
35 36 37 38 32 35 34 39 60 56 65 72 69 67 54 34 33 31 31 33 38 42 47 53 62 64 72 73 73 78 81 84 76 48 46 49 50 49 52 81 96 89 80 50 52 56 50 49 38
43 39 41 34 34 37 33 32 55 56 65 59 71 69 58 51 40 34 33 33 36 40 46 51 58 68 69 68 77 80 84 83 50 47 57 62 60 56 57 64 68 57 53 61 58 57 55 40 39
38 43 39 34 32 35 36 31 44 45 56 55 43 40 39 43 52 46 48 38 37 37 42 47 59 63 65 71 73 81 89 62 53 62 62 64 64 67 66 67 70 73 66 68 70 71 63 55 45
42 40 36 33 28 28 30 38 50 54 58 59 52 48 53 60 58 58 64 61 52 47 50 55 58 60 67 78 80 86 64 55 65 60 60 66 69 67 70 72 73 70 69 72 70 63 56 50 45
39 36 34 29 22 21 28 35 40 47 52 50 52 54 53 47 63 67 61 62 61 61 54 58 62 65 78 82 85 59 61 64 54 58 64 67 70 71 68 72 64 69 74 72 66 61 56 50 44
33 35 32 31 34 35 32 31 28 32 35 34 42 53 53 52 51 61 65 76 81 79 63 62 70 72 76 77 58 65 52 50 61 63 62 73 76 75 78 80 74 77 82 67 64 58 52 47 35
36 32 27 29 35 42 27 37 30 29 27 27 34 35 48 51 63 68 76 82 79 72 66 66 62 62 72 61 61 47 46 59 66 71 82 88 93 98 99 95 88 85 72 68 58 49 44 30 16
34 33 41 50 58 54 37 40 33 31 31 30 31 37 44 54 60 65 71 77 66 68 78 52 58 63 60 62 53 50 59 69 79 87 86 98 95 93 97 100 98 80 67 50 42 39 30 16 9
39 33 38 49 61 46 40 41 29 28 28 29 32 37 51 60 64 72 78 68 78 87 64 59 58 58 62 61 54 62 68 75 86 92 100 99 99 99 88 99 85 66 50 48 49 36 18 11 8
36 33 39 45 45 47 33 33 30 30 31 32 38 38 44 55 63 65 62 63 72 68 62 61 60 63 68 65 61 65 76 93 94 93 81 99 99 100 89 94 76 57 51 50 42 21 13 8 5
39 36 38 40 40 40 34 32 34 41 40 39 32 45 46 51 60 58 59 75 58 56 60 68 71 75 82 76 70 70 90 98 99 99 82 95 97 88 100 86 71 59 52 61 37 11 8 6 6
36 35 33 33 33 54 63 36 29 36 42 21 9 14 14 17 25 29 26 21 30 52 71 77 72 76 84 81 75 84 88 69 99 95 100 81 86 99 96 82 71 53 68 75 31 11 6 7 8
32 33 38 37 35 37 39 34 30 31 30 26 22 17 23 28 30 31 28 32 36 50 68 71 80 95 96 100 99 98 99 97 99 100 93 99 98 92 77 73 56 75 89 79 16 8 8 10 12

GFSSGP_700_rhum_063.txt.gz
RH
18 14 13 14 17 14 12 11 19 22 22 44 35 52 44 49 46 52 47 53 62 60 51 50 51 53 49 43 40 26 26 20 18 12 5 5 4 5 9 16 20 22 24 25 26 26 24 23 22
14 12 13 22 21 16 13 15 19 52 42 28 60 60 51 48 55 54 46 52 65 63 53 52 64 67 52 46 44 32 24 21 18 10 5 6 11 15 18 21 24 26 26 26 26 25 26 27 26
13 14 16 18 15 17 16 22 26 45 49 54 62 49 54 54 46 44 54 56 61 64 55 61 76 74 59 49 43 31 25 22 18 9 6 12 17 18 21 24 26 25 26 26 27 27 30 29 29
14 14 20 19 19 18 26 50 53 51 55 67 66 66 59 52 49 55 66 75 74 76 62 67 81 77 67 60 44 34 45 25 17 8 8 16 20 22 24 25 24 24 25 27 30 30 29 29 30
16 18 20 21 17 28 33 44 49 60 65 64 62 55 53 48 45 56 59 75 89 93 78 81 88 96 78 70 46 54 42 25 15 6 13 19 24 27 26 25 25 26 30 32 33 34 32 35 38
26 22 24 23 21 21 21 40 48 58 57 54 52 49 48 49 58 66 84 98 99 97 88 95 95 97 98 86 57 75 40 19 13 8 19 26 31 29 27 26 28 29 33 36 36 37 42 44 48
18 24 22 22 21 27 38 49 50 50 50 51 48 51 53 61 65 77 96 98 99 99 98 100 100 99 98 87 76 68 26 23 16 12 25 31 31 30 29 29 30 30 35 37 40 40 43 47 54
27 30 26 26 22 41 38 46 46 45 52 58 58 58 48 46 48 61 68 96 99 99 100 100 98 90 97 84 79 35 26 14 16 17 23 29 33 33 31 30 30 32 32 39 45 49 53 64 62
28 31 25 23 40 38 33 40 44 43 58 60 56 61 62 68 54 54 48 99 100 100 100 100 99 95 88 85 39 25 22 15 11 16 23 31 34 32 33 33 33 34 38 52 63 62 66 68 68
29 25 23 31 45 31 42 39 42 51 59 69 68 63 70 77 71 58 98 98 97 100 100 100 98 94 62 46 41 34 23 20 13 13 23 31 32 36 36 37 38 41 57 70 74 72 72 71 66
25 24 22 24 31 44 39 40 46 51 62 67 77 75 79 84 83 92 97 100 100 100 100 100 98 72 70 59 38 24 13 9 8 9 16 27 36 40 42 41 43 48 62 74 76 68 65 66 71
29 24 30 28 43 43 42 41 55 63 71 71 75 74 89 84 80 87 94 97 99 99 84 94 78 61 47 43 34 26 15 12 7 8 13 28 36 39 45 48 51 63 79 85 74 70 70 69 63
28 28 37 41 45 47 50 46 51 62 67 70 71 82 89 93 82 97 96 99 97 83 80 70 48 35 32 31 29 24 18 14 11 12 15 27 39 51 51 54 59 67 85 78 75 73 70 62 49
36 41 44 45 47 45 51 52 62 67 46 63 89 94 99 95 88 94 77 70 77 85 84 71 48 38 32 32 23 22 30 45 41 41 33 51 48 56 61 63 72 82 84 78 77 75 63 54 49
46 42 44 45 43 44 53 55 56 58 50 91 97 50 62 74 75 85 65 69 69 65 68 35 33 36 35 45 59 63 73 76 71 70 58 64 75 82 82 76 83 87 85 82 83 71 57 52 54
48 50 42 37 42 44 44 51 51 59 62 62 65 88 76 56 64 66 62 54 49 40 29 32 38 57 70 76 76 70 70 77 74 74 69 67 75 79 91 87 96 97 92 91 89 71 57 55 58
38 38 39 36 36 38 40 46 43 57 71 68 71 83 76 39 46 65 71 37 29 31 43 40 62 66 72 73 74 72 74 75 77 80 68 60 58 59 66 71 78 97 99 97 76 61 57 59 54
41 43 40 39 38 38 42 46 53 48 56 62 52 57 58 50 39 34 30 35 42 38 46 54 65 66 72 74 73 71 79 84 87 82 60 51 52 56 56 57 63 81 94 75 60 63 63 54 53
39 42 40 34 35 38 36 45 57 52 55 66 52 36 33 38 53 50 42 39 44 48 55 67 73 71 73 78 76 77 83 91 86 69 48 52 62 63 60 61 63 65 64 66 69 66 60 58 58
36 44 39 36 32 32 32 38 50 58 48 52 49 40 35 31 31 36 39 38 43 50 56 69 66 75 76 73 74 75 83 90 81 52 54 63 62 62 61 58 65 68 67 65 62 61 63 65 61
42 40 35 38 37 29 32 32 41 48 47 58 63 59 52 44 38 36 32 33 38 42 47 62 68 75 66 72 72 75 85 82 58 56 64 60 67 68 71 73 62 60 66 62 66 69 68 66 65
39 39 34 38 35 32 33 34 34 37 46 48 51 48 43 48 43 46 45 58 61 56 53 59 57 65 70 67 70 78 75 60 59 64 61 67 73 77 74 70 71 68 70 78 70 68 69 67 60
40 42 39 34 35 31 34 32 30 45 55 45 43 42 42 40 45 50 51 61 77 62 62 85 77 68 72 68 77 78 62 68 62 63 66 74 83 75 73 85 86 79 75 100 84 69 66 60 57
39 37 36 36 36 41 33 36 32 32 30 31 40 40 39 42 38 45 50 58 84 82 79 80 76 74 71 68 83 64 64 56 60 68 76 83 78 81 89 88 90 100 98 99 77 68 62 51 49
36 38 37 47 54 49 39 41 31 27 34 33 33 36 41 48 44 51 59 59 79 78 74 69 73 70 65 75 67 66 56 54 64 73 75 86 84 100 97 93 96 98 97 95 77 67 51 42 39
35 37 36 44 55 46 40 41 28 26 25 33 30 33 39 42 54 64 69 80 92 81 77 78 78 54 63 63 71 65 55 59 72 81 89 99 91 99 98 100 100 86 92 89 74 55 36 38 34
35 36 39 43 53 54 36 34 27 21 24 28 29 32 34 40 44 60 69 80 90 73 87 83 56 61 62 67 72 71 66 78 95 97 100 97 98 99 98 97 99 97 97 94 69 44 62 82 66
38 38 37 41 47 43 35 33 29 28 30 34 33 32 37 40 39 49 66 78 72 71 74 53 57 64 65 69 73 88 100 100 94 98 100 100 97 98 100 100 99 100 86 73 66 79 90 78 44
35 38 39 37 40 54 61 35 28 27 36 35 18 19 20 19 18 33 54 68 51 45 30 37 52 59 52 42 48 77 98 85 82 78 88 99 99 99 96 100 99 88 85 84 75 76 54 24 11
34 38 36 38 38 38 41 35 30 28 28 29 29 24 18 19 20 22 29 25 30 37 41 42 46 52 70 80 75 73 85 90 77 98 100 96 98 79 91 97 87 84 78 70 34 17 11 7 7

GFSSGP_700_rhum_066.txt.gz
RH
27 18 14 13 14 15 13 12 21 21 24 25 42 59 57 46 46 50 47 51 63 59 52 49 57 60 61 51 44 45 34 22 16 12 5 6 8 8 9 18 22 24 24 24 24 24 26 27 26
26 16 13 14 16 18 16 22 47 58 50 40 55 46 47 45 47 52 49 46 62 62 54 52 62 69 73 60 52 43 31 21 18 9 5 5 9 16 21 24 24 25 23 22 25 25 28 28 28
21 13 13 14 16 18 16 26 50 56 29 35 48 66 62 56 53 50 55 57 62 64 57 55 65 77 78 65 55 44 45 22 18 8 6 15 21 24 27 27 25 23 22 22 26 29 31 34 35
18 13 14 20 18 16 37 30 52 64 50 61 69 66 62 58 54 55 64 65 63 76 61 70 76 85 90 71 62 56 40 24 20 7 12 22 28 30 30 27 24 23 24 26 30 31 33 37 39
17 14 21 23 17 22 21 35 57 55 66 68 63 56 51 49 49 53 68 72 75 75 68 72 82 93 95 82 64 55 35 42 19 7 20 27 31 31 28 26 25 25 27 30 32 33 34 35 39
15 18 25 22 20 21 30 44 46 60 60 54 50 47 47 46 44 48 63 87 88 85 81 84 92 99 96 97 98 76 47 50 29 14 25 31 33 31 28 27 27 29 29 30 35 37 37 42 50
15 26 27 24 21 31 42 44 51 53 56 50 51 45 49 50 52 65 86 95 95 90 98 90 93 100 98 99 96 86 79 23 11 21 31 35 34 33 29 28 30 32 35 36 36 43 47 52 63
23 31 26 22 24 42 44 44 37 34 38 45 58 60 57 52 51 62 95 98 98 99 98 97 99 100 98 98 98 72 33 24 14 24 28 36 38 34 32 31 32 34 34 40 52 56 56 61 62
31 31 24 25 34 49 45 46 40 38 44 53 64 70 64 62 63 64 90 75 98 92 93 98 100 97 100 98 75 49 28 18 20 20 31 37 37 35 33 35 34 36 41 52 62 68 67 68 62
30 28 26 23 24 25 46 45 42 44 59 73 73 73 71 70 72 64 65 72 90 97 99 100 100 100 100 72 46 38 26 17 18 22 30 34 36 35 39 38 39 41 45 69 77 78 74 67 63
30 25 23 26 30 37 47 43 46 53 59 70 75 74 85 86 86 83 86 96 99 99 100 100 99 98 85 52 54 38 23 23 17 16 21 30 38 42 42 43 43 49 58 69 83 81 70 64 63
27 24 25 30 31 46 44 48 49 53 64 69 73 78 76 84 89 86 99 100 100 100 100 100 100 86 72 62 44 26 18 12 11 14 22 31 38 41 45 49 49 53 60 72 77 74 70 71 68
25 26 30 36 44 45 51 50 58 63 66 69 78 74 90 88 92 92 96 89 100 94 97 95 73 58 45 39 30 22 15 12 13 15 19 26 36 46 51 54 59 63 68 74 77 75 75 72 63
32 37 41 42 46 49 53 52 62 49 47 73 79 94 98 87 83 89 80 99 72 47 42 54 64 56 36 28 24 18 16 15 15 17 26 41 48 52 60 67 66 70 82 88 86 86 82 73 58
45 46 44 46 46 52 55 58 56 48 38 47 55 74 83 86 100 89 85 64 72 83 60 35 34 32 30 26 26 41 53 58 48 49 47 55 67 69 76 80 87 90 96 95 96 91 83 65 64
50 49 44 47 48 51 53 52 52 52 62 48 36 64 82 98 83 76 67 67 79 57 36 35 43 40 38 53 61 69 80 82 82 79 76 62 58 62 64 68 94 93 100 99 93 90 75 72 70
39 40 39 42 40 48 45 51 51 58 63 64 40 40 45 78 90 74 78 63 39 33 39 49 53 56 64 75 78 81 82 82 80 82 74 63 58 73 73 73 67 71 93 96 91 75 72 75 72
40 41 41 39 38 37 36 46 51 57 61 66 66 60 55 38 59 70 58 36 35 37 40 55 64 74 78 80 83 83 80 80 83 78 71 58 56 63 63 64 65 76 91 84 72 76 70 65 64
36 39 38 38 38 35 35 36 46 57 52 61 57 41 40 40 33 45 49 43 37 43 44 60 69 75 78 80 85 84 80 76 72 70 70 55 57 66 69 67 65 65 72 72 72 67 57 55 56
41 39 37 34 37 36 34 33 40 45 50 47 49 41 41 35 31 30 33 36 40 48 56 60 64 72 84 83 88 82 76 81 82 85 72 52 70 70 69 67 66 70 71 65 71 71 68 67 63
42 40 41 40 39 36 34 33 33 37 42 57 53 56 50 37 33 34 35 38 43 46 49 53 60 67 74 83 75 70 78 82 88 76 54 71 68 68 69 67 66 71 72 75 59 64 67 88 75
39 40 42 39 38 34 35 34 28 28 35 40 44 46 45 48 44 41 42 40 54 55 49 53 56 60 70 74 71 74 84 88 77 58 64 64 64 66 69 73 68 78 83 86 80 67 67 70 71
37 39 41 38 36 37 37 34 27 25 27 30 33 37 44 50 49 49 45 53 61 58 63 68 83 78 76 72 76 78 85 87 65 65 60 63 67 72 75 90 85 86 80 93 90 92 76 76 74
38 40 40 40 40 45 35 38 33 29 26 28 27 31 37 46 46 48 50 54 53 61 62 61 63 74 92 89 76 79 87 70 58 58 62 66 71 83 95 90 98 95 93 81 98 91 88 88 80
39 40 39 47 54 50 39 46 30 29 33 34 36 32 34 40 47 48 49 54 59 57 64 60 67 72 76 74 72 79 80 65 54 60 66 71 84 98 99 88 99 90 98 98 100 85 92 85 75
38 38 39 43 53 44 37 41 28 29 26 24 27 30 30 32 37 42 50 60 66 75 72 72 78 90 85 65 70 76 68 68 71 64 69 70 76 82 98 100 99 99 99 100 100 97 85 89 82
36 35 38 43 55 60 37 33 29 22 26 28 29 31 30 29 35 42 50 60 69 76 75 70 90 95 66 60 67 65 71 78 79 70 57 75 86 96 91 100 97 99 98 98 99 81 82 83 82
40 38 40 40 50 48 38 33 27 22 26 28 36 37 37 32 33 38 42 62 72 85 75 78 94 75 56 62 64 68 71 74 46 71 68 77 91 99 99 95 98 76 92 92 99 95 82 74 38
30 38 41 41 42 53 63 33 28 27 28 33 17 14 18 22 32 33 38 54 67 88 72 75 47 44 51 68 70 63 56 66 78 90 86 98 81 100 98 99 70 94 99 100 96 86 58 44 33
26 38 35 41 43 42 45 40 32 30 28 29 28 28 24 22 20 17 27 35 48 69 55 46 53 50 54 57 59 65 78 87 94 68 99 99 99 98 84 94 92 90 90 97 92 74 56 20 8

GFSSGP_700_rhum_069.txt.gz
RH
28 27 19 15 14 14 15 14 17 31 55 43 42 55 62 54 51 50 52 53 53 60 63 66 74 67 65 58 52 49 47 45 26 15 8 7 10 12 9 16 22 23 22 22 23 26 28 28 26
28 22 15 14 15 17 18 17 40 46 51 43 50 36 41 40 46 45 45 54 54 68 68 62 69 75 72 67 58 49 48 30 21 13 6 8 8 12 19 23 23 23 22 23 27 29 30 28 29
26 16 14 14 18 19 17 27 37 34 51 52 46 51 50 47 46 55 53 56 53 69 71 64 68 75 77 72 59 53 40 26 23 9 6 10 18 22 25 24 24 25 23 26 30 31 32 32 34
22 15 16 20 18 16 31 25 56 44 44 46 57 64 67 61 57 57 50 52 66 69 68 66 70 81 89 84 64 55 38 33 24 8 11 21 24 25 27 26 26 25 26 30 33 33 34 37 43
21 16 18 19 19 20 26 39 63 57 58 66 65 64 59 58 54 56 59 67 74 77 67 65 81 92 100 95 72 56 49 34 16 8 22 27 29 30 28 26 25 26 29 34 36 37 39 45 54
18 19 23 21 18 22 34 45 50 58 60 61 54 52 52 51 47 51 69 76 81 82 79 82 94 99 98 95 84 63 42 31 24 17 27 31 33 31 28 26 27 30 32 36 38 42 46 50 55
16 26 23 20 21 35 42 47 47 50 44 49 55 57 54 46 50 59 71 75 86 83 91 95 100 100 100 99 93 62 46 47 46 22 32 34 34 33 30 29 31 33 35 38 44 50 53 56 60
16 28 24 22 24 44 36 50 47 45 45 43 55 61 60 56 54 59 89 92 96 91 94 98 99 100 100 96 95 77 69 69 32 27 35 36 38 37 34 35 35 34 40 45 49 58 64 65 62
29 26 25 25 42 27 35 49 45 42 50 58 61 68 66 63 63 62 67 90 97 98 98 99 100 99 100 98 95 97 90 26 19 31 37 41 42 40 41 39 39 42 45 47 64 68 69 68 66
29 26 23 24 26 29 39 40 38 42 49 60 71 73 71 67 68 68 65 91 90 99 99 99 99 99 92 100 99 90 46 27 22 27 36 41 45 45 44 44 43 44 47 62 70 73 77 74 66
30 24 24 24 29 33 40 40 40 43 50 59 64 68 71 76 81 81 82 81 82 82 92 100 100 100 100 98 76 31 24 23 23 27 34 39 43 50 46 45 47 51 59 64 76 74 78 72 67
29 24 24 29 30 40 48 50 43 50 50 59 70 74 75 76 91 90 89 98 95 100 100 100 100 100 100 95 52 38 32 25 19 20 28 43 44 43 48 50 50 59 61 65 69 73 75 72 72
31 24 29 36 40 49 54 48 60 43 40 68 74 79 83 90 91 91 91 94 100 100 100 98 100 97 74 69 58 36 23 17 20 20 25 31 38 44 46 51 60 66 67 72 81 85 84 83 80
37 37 40 40 45 54 55 58 56 41 45 79 83 86 89 94 94 93 91 97 99 99 100 100 100 74 46 35 28 20 14 14 15 21 28 32 34 49 61 67 71 74 80 84 84 89 89 84 78
48 46 45 46 47 53 55 53 54 54 49 50 75 99 100 98 98 96 99 79 71 74 60 51 40 35 39 34 22 19 17 19 21 25 36 60 71 77 80 74 67 79 74 70 88 89 85 81 73
49 42 43 48 50 49 52 48 53 51 62 45 65 71 78 97 85 98 65 75 73 66 56 52 50 39 39 24 26 32 44 57 74 74 72 67 65 71 69 66 59 66 73 78 87 84 80 72 73
43 38 37 41 42 47 41 44 48 46 62 67 36 60 79 79 73 74 79 88 87 67 42 44 43 38 38 43 65 72 78 76 79 80 79 76 71 61 67 62 67 73 76 76 85 81 74 78 70
37 37 36 36 40 40 40 36 40 45 53 72 66 35 54 57 68 71 71 78 60 43 48 47 51 50 62 71 75 80 82 84 87 88 91 82 68 64 61 68 69 66 66 70 74 77 76 72 58
39 39 39 37 39 41 37 35 34 39 47 49 55 52 32 49 46 53 50 42 39 41 44 50 62 70 76 81 84 87 86 81 83 90 86 74 59 56 70 70 68 66 67 72 76 67 62 59 57
42 43 39 38 40 37 34 33 34 36 39 47 52 44 40 30 26 29 37 44 44 46 54 64 69 73 80 85 90 89 82 81 86 88 75 69 54 64 68 66 66 67 70 74 76 73 64 71 60
43 42 39 43 37 34 30 30 31 32 36 39 50 53 44 35 30 29 31 38 44 48 52 57 63 68 74 72 73 78 76 79 85 89 74 60 59 65 61 63 68 76 74 71 75 78 73 76 81
41 38 41 43 39 34 31 32 28 30 31 34 36 46 50 43 37 35 35 36 40 46 53 58 63 64 66 64 67 76 82 85 96 89 63 62 62 61 62 68 79 89 90 88 79 75 71 70 71
40 39 41 42 39 40 36 36 28 24 25 22 28 32 40 43 41 38 38 38 45 51 52 53 57 61 65 64 67 74 80 88 96 95 65 58 57 61 65 79 84 93 97 90 98 97 97 64 79
38 41 42 40 41 45 38 37 31 27 26 29 30 28 33 40 44 47 49 51 57 60 70 74 77 79 84 74 68 75 80 91 98 78 60 54 56 65 73 83 94 99 96 99 99 99 78 77 97
40 40 42 44 48 42 40 44 30 26 30 31 28 33 35 38 41 46 50 53 55 55 61 71 74 68 71 73 73 73 82 94 96 74 55 55 64 72 80 84 90 99 96 99 99 90 92 69 85
39 40 37 39 44 37 41 42 26 27 26 24 20 23 32 33 37 44 49 52 54 59 66 71 73 69 66 76 80 90 89 97 92 71 64 62 70 75 73 79 89 100 100 92 100 69 87 83 90
38 42 38 39 49 55 39 32 29 27 25 26 26 31 32 32 31 34 39 48 55 64 65 81 68 71 85 97 69 69 81 80 76 81 74 80 69 72 75 88 100 100 98 81 73 70 93 89 88
40 41 43 40 50 47 39 34 29 26 29 35 27 32 36 30 32 36 40 49 58 67 75 79 67 77 100 76 56 60 69 71 79 72 66 74 82 86 96 84 99 97 75 80 86 89 88 84 82
40 44 39 42 41 46 47 36 27 28 29 28 30 27 20 19 20 19 29 39 53 67 69 75 74 69 54 44 50 59 65 69 66 71 87 88 84 91 99 92 99 93 82 99 86 90 83 81 76
40 36 32 42 43 43 45 41 33 30 31 34 31 30 27 28 26 23 18 13 14 41 58 56 65 56 57 55 52 56 50 53 79 90 89 89 92 99 81 93 92 84 97 93 93 85 82 78 59

GFSSGP_700_rhum_072.txt.gz
RH
25 26 26 18 25 20 17 18 22 27 41 46 51 86 85 71 75 56 48 48 48 57 66 77 76 65 60 54 47 48 55 54 45 33 16 10 7 12 10 17 22 23 23 25 26 27 25 25 26
27 26 20 26 21 17 15 20 25 45 48 52 41 58 67 82 50 46 46 46 51 56 69 75 82 74 67 60 53 58 59 50 39 18 12 6 10 9 16 24 27 26 24 26 28 28 29 30 35
26 23 28 27 22 17 16 19 27 59 53 48 50 46 73 62 42 54 47 54 59 52 69 77 81 82 76 71 65 57 52 49 24 18 8 6 6 14 24 27 27 26 26 30 30 30 33 37 42
25 20 20 20 19 16 20 26 62 82 42 55 60 52 65 58 57 60 52 51 61 60 72 81 81 84 83 84 77 60 54 35 21 17 6 6 15 23 27 28 27 27 31 34 34 36 39 42 50
25 21 22 19 17 18 23 41 64 84 65 60 56 77 64 78 66 61 57 53 65 98 97 93 87 88 94 95 79 60 52 31 21 18 6 15 21 28 30 29 29 31 36 38 37 41 45 49 53
31 22 20 16 17 24 33 48 55 67 64 64 69 65 61 86 60 50 69 72 86 89 96 92 95 98 100 100 78 68 50 26 27 10 15 24 27 31 31 28 31 35 39 39 42 46 51 54 56
30 27 20 19 25 32 39 50 53 53 51 60 61 85 60 59 51 51 59 77 87 97 99 92 99 99 99 98 89 76 40 22 27 26 24 25 32 33 31 32 35 37 39 46 50 52 58 62 61
26 24 22 21 27 32 35 44 45 36 34 34 44 88 69 54 51 54 69 76 89 88 98 94 98 99 100 100 84 40 30 44 42 46 22 32 35 35 34 34 37 39 43 48 56 64 65 70 68
20 26 20 23 32 28 37 43 40 37 40 43 42 52 61 68 62 59 57 58 76 93 98 98 98 100 98 98 84 62 53 52 59 48 34 38 39 38 35 40 42 42 48 54 72 72 77 77 73
31 26 22 24 25 29 32 40 47 45 43 42 49 58 65 69 70 71 74 65 75 87 96 100 99 99 100 99 94 81 76 89 67 32 42 44 44 42 44 45 42 46 57 68 72 77 84 80 73
31 28 27 28 28 31 39 45 46 44 65 79 72 61 67 73 66 80 84 90 100 99 98 99 99 94 99 100 97 93 82 50 30 41 46 44 48 50 50 48 48 56 61 65 78 82 81 78 75
28 31 26 28 33 36 52 48 52 48 43 37 66 69 74 74 80 86 92 83 88 89 96 99 99 100 97 100 100 100 90 54 32 44 42 49 51 53 53 53 55 57 60 73 75 79 83 81 82
28 37 31 32 38 40 48 50 59 37 44 35 70 74 80 81 82 89 90 97 99 93 99 100 100 100 99 100 89 63 42 37 31 40 41 44 49 51 53 53 55 64 77 76 76 81 82 80 80
35 36 40 39 40 44 52 54 53 48 52 34 75 87 85 83 91 90 88 96 99 100 100 100 99 100 100 100 98 84 59 32 33 34 32 40 43 45 48 59 68 77 84 83 79 68 71 69 66
50 55 44 43 48 58 50 63 66 51 56 34 79 89 95 96 96 91 100 96 99 100 97 100 99 99 85 56 43 28 22 30 28 25 28 32 43 63 78 85 78 68 68 65 61 56 61 73 68
52 49 38 49 48 53 45 39 46 45 54 47 56 95 98 98 100 99 98 100 100 99 97 89 72 70 62 29 30 31 26 24 24 29 41 47 76 76 85 78 64 55 59 60 57 64 74 70 67
40 30 32 39 40 51 45 39 48 43 50 69 54 88 82 96 97 72 68 63 59 54 57 60 58 58 38 22 21 23 26 28 48 61 68 73 74 72 74 65 56 59 60 59 56 61 69 61 61
30 31 35 35 39 43 41 41 42 41 48 60 56 67 71 70 57 79 92 96 96 74 76 68 62 74 40 28 43 46 55 78 77 77 80 86 84 77 60 56 58 61 63 62 64 66 68 66 63
35 35 35 34 40 39 37 37 47 36 40 49 54 41 57 64 68 71 72 57 54 50 47 46 48 45 44 55 70 78 82 84 87 94 96 96 88 70 56 57 59 62 65 66 66 69 75 74 69
38 38 36 38 40 38 36 35 38 31 37 49 57 45 40 44 43 38 35 40 52 51 51 54 58 69 67 75 80 85 86 82 85 87 96 98 74 56 55 57 57 62 66 68 70 68 68 66 70
40 40 40 36 43 35 35 32 31 30 33 36 47 56 43 30 26 32 36 41 50 55 58 63 68 73 76 80 84 85 81 82 83 90 99 97 64 57 59 54 58 62 66 71 81 80 79 77 76
40 42 42 42 41 29 31 22 26 33 28 30 35 48 44 33 28 29 36 40 42 48 52 59 64 69 73 77 82 86 90 94 93 100 99 83 61 61 54 54 58 68 78 86 91 94 89 97 94
42 40 44 45 39 36 34 24 23 24 26 28 25 31 40 44 33 32 32 34 39 44 50 54 57 61 66 73 78 81 80 86 92 98 99 99 63 58 55 57 61 77 83 91 99 92 84 100 97
43 43 49 48 40 32 32 30 21 24 28 33 35 29 30 38 40 34 34 36 38 44 49 53 58 64 67 73 76 80 80 81 88 95 91 91 64 56 56 60 70 80 88 100 100 98 99 97 83
40 45 37 40 36 32 41 35 26 26 31 29 29 28 34 34 39 43 44 42 43 53 57 59 63 66 71 78 86 96 85 79 84 91 94 84 64 59 61 70 81 94 98 99 84 98 96 85 74
40 40 34 36 35 28 36 29 25 26 27 24 20 21 26 30 34 38 46 49 52 52 58 61 68 80 82 84 80 84 84 84 84 92 93 81 70 68 68 76 83 70 72 100 100 97 93 75 80
47 42 40 42 36 38 28 30 24 27 27 26 27 27 32 32 33 34 42 51 56 57 60 64 72 78 77 64 75 75 81 86 82 91 100 84 75 75 82 77 75 81 95 98 99 90 65 74 75
39 40 41 41 40 37 25 27 24 26 29 31 33 30 36 32 31 30 32 39 52 60 65 69 74 77 67 72 88 93 73 82 91 89 90 83 81 69 78 96 98 99 98 98 90 65 67 75 82
44 43 41 40 39 35 34 27 28 26 29 33 34 24 24 20 20 32 35 37 40 50 62 70 74 79 78 78 73 61 63 62 74 78 79 83 80 94 98 99 99 97 88 84 83 70 79 81 79
41 38 43 36 36 43 43 34 31 32 32 31 32 32 31 28 27 27 22 16 29 48 57 64 73 80 79 56 51 50 54 57 65 74 84 91 99 99 98 98 98 97 86 89 86 89 82 79 76

GFSSGP_700_rhum_075.txt.gz
RH
18 24 26 28 26 21 16 14 14 16 20 28 36 37 48 74 73 88 61 42 38 38 48 60 69 68 55 47 49 58 70 75 59 45 25 13 7 9 9 19 23 23 22 24 26 24 26 31 35
27 26 25 28 23 16 14 14 17 17 30 34 43 41 42 73 64 98 60 53 48 43 54 60 67 71 58 50 46 47 62 69 60 40 17 8 8 11 13 23 24 24 25 28 28 29 33 40 44
27 24 34 27 20 17 14 20 17 27 53 39 60 57 60 57 92 62 48 49 43 45 53 62 74 74 63 56 49 50 63 70 55 25 17 6 10 10 22 24 25 27 30 31 32 35 39 46 47
27 31 28 20 16 16 15 16 25 38 43 47 64 53 63 41 62 65 59 57 49 48 48 63 79 79 70 63 56 57 70 59 47 21 12 7 10 22 26 27 28 31 33 34 35 39 45 53 50
26 25 20 18 15 14 17 31 46 46 64 62 71 64 50 40 53 57 60 58 65 76 64 90 98 90 81 73 68 64 60 55 35 20 8 8 21 27 29 28 30 34 36 36 38 43 51 56 54
27 24 19 17 16 17 30 31 30 66 80 76 89 77 65 51 52 55 61 72 90 99 91 99 100 97 95 90 85 70 61 53 27 16 7 18 27 32 32 29 32 38 39 41 42 49 54 60 57
26 23 19 16 15 30 38 62 80 67 59 89 72 97 61 61 59 65 87 88 94 98 97 99 100 97 100 98 87 72 67 44 19 10 22 28 34 35 34 32 39 41 43 43 49 56 62 65 64
22 21 18 16 18 38 41 54 48 53 66 50 40 83 78 62 62 75 77 94 88 71 100 99 99 98 99 99 92 84 59 26 13 20 38 35 36 36 36 38 39 41 46 50 57 65 68 70 70
26 22 19 16 19 33 36 49 61 42 60 76 78 60 56 68 65 63 85 81 76 83 97 92 96 99 98 98 96 54 24 19 28 35 45 52 39 37 36 43 44 46 47 60 66 69 75 76 74
27 23 20 19 20 22 28 45 61 62 62 69 85 67 42 67 74 70 67 66 65 74 88 88 97 100 100 100 97 69 48 34 37 48 81 48 46 43 42 43 42 48 55 71 75 82 77 77 74
26 23 25 22 26 32 33 44 60 56 46 72 70 88 64 56 66 71 64 68 84 84 96 99 99 99 100 100 99 95 73 52 53 88 51 49 46 47 48 44 46 56 61 73 85 74 75 78 76
27 24 26 28 32 39 42 48 48 55 64 39 62 87 66 60 74 77 94 86 100 99 99 99 99 98 91 98 99 85 94 66 86 54 54 58 52 51 52 51 54 59 72 80 76 78 77 78 78
29 24 29 38 31 47 48 48 50 52 39 34 47 82 76 73 80 98 99 98 94 88 90 92 100 99 100 100 100 100 93 98 62 54 63 59 54 52 56 58 62 67 70 78 77 74 75 70 62
34 34 36 42 44 49 48 46 48 76 40 27 30 77 97 99 87 88 98 99 99 98 99 99 100 100 100 100 100 99 100 96 78 68 57 45 54 68 64 58 69 77 82 80 79 78 63 50 52
44 38 38 39 39 40 48 44 76 38 57 69 30 75 84 95 89 90 100 95 99 100 99 100 100 100 97 100 100 99 99 91 71 57 46 56 73 68 60 73 80 79 70 65 68 60 53 56 54
40 37 38 50 40 39 41 52 70 54 71 86 81 64 65 99 100 97 97 100 95 100 99 100 99 100 100 96 94 83 72 49 35 41 56 54 52 66 83 89 83 72 58 56 56 56 56 49 53
34 33 36 35 33 34 38 34 65 64 66 79 88 75 45 80 99 100 100 100 100 100 100 100 95 83 73 45 32 34 34 25 44 44 55 48 62 84 81 86 74 63 56 57 56 52 52 56 63
30 39 26 23 42 33 29 31 36 59 61 61 77 99 44 62 79 52 55 58 60 77 95 99 93 73 56 37 32 27 40 48 54 65 80 67 75 74 74 75 66 57 52 55 56 53 54 58 56
28 27 26 28 33 32 28 30 32 54 62 67 68 92 76 49 45 36 36 40 54 48 51 64 85 70 60 42 25 32 64 74 76 82 78 80 83 84 86 67 59 54 50 56 56 59 60 54 61
31 30 28 29 29 34 31 30 34 42 52 64 77 77 88 93 35 42 30 33 41 45 44 59 77 78 66 49 48 60 76 82 84 88 90 96 97 98 86 57 58 55 52 56 61 66 68 72 76
33 32 33 34 33 34 31 28 27 33 49 59 74 73 84 87 27 26 30 40 46 48 50 64 72 78 76 54 65 76 81 82 81 84 87 91 94 90 68 56 57 51 52 60 70 76 83 90 86
33 33 36 35 32 40 30 28 37 27 38 51 63 68 72 78 26 30 33 42 46 52 56 57 59 74 77 79 78 82 82 85 86 88 88 95 98 86 75 61 52 52 54 66 76 79 88 90 93
34 40 37 36 33 28 25 19 22 22 25 32 46 62 68 74 52 26 31 36 41 49 51 57 61 65 68 72 75 80 84 88 84 85 91 94 94 99 71 62 54 55 63 71 78 87 97 96 92
39 42 39 38 35 33 25 24 23 21 19 29 29 45 59 68 72 67 31 31 37 42 46 49 53 54 59 60 69 73 80 84 83 91 90 95 86 80 77 62 58 63 73 76 86 96 95 87 98
41 39 37 39 34 34 35 26 20 28 23 28 28 33 43 60 73 75 73 46 33 35 39 43 47 51 55 57 64 70 77 86 89 87 87 95 90 89 84 63 61 68 74 80 94 92 83 100 100
37 35 34 46 39 30 37 24 21 24 27 26 29 32 36 43 60 74 80 78 40 36 38 48 50 52 57 62 69 78 84 90 81 76 88 89 96 100 83 64 63 72 77 90 84 80 90 99 100
33 34 32 36 34 32 28 23 24 23 23 26 29 35 39 46 45 56 72 85 69 46 45 47 54 57 62 71 80 80 77 91 89 97 97 93 95 100 85 69 74 82 90 99 96 99 99 99 68
38 40 37 34 37 48 24 22 20 23 23 30 28 30 44 40 33 39 60 76 90 67 51 54 58 62 73 75 78 68 71 81 100 94 96 92 98 100 90 81 93 95 100 100 99 97 86 74 78
37 38 37 32 38 38 35 23 35 23 24 27 30 32 34 42 24 31 35 55 80 88 46 55 62 67 73 75 76 66 77 89 88 75 81 88 99 100 89 99 99 100 99 99 98 95 95 91 83
30 34 32 33 30 31 30 30 28 27 27 30 31 31 34 36 40 25 24 28 34 38 44 48 59 71 76 76 77 78 76 58 58 61 62 86 100 100 98 99 99 94 98 96 96 96 96 86 81

GFSSGP_700_rhum_078.txt.gz
RH
11 18 25 23 30 25 22 17 15 15 16 18 21 26 24 36 39 48 58 68 95 59 34 37 54 58 56 49 42 44 49 54 48 36 26 11 7 9 9 19 19 18 23 24 22 25 29 35 40
22 25 27 30 28 24 16 18 20 17 30 24 30 34 34 32 28 33 41 75 100 78 39 46 56 65 60 50 46 55 60 64 52 45 22 9 8 10 17 23 21 21 26 26 27 34 40 43 43
26 25 36 34 29 22 18 19 18 18 32 36 29 32 38 44 39 38 33 59 96 83 56 59 59 70 63 51 52 65 76 76 59 43 19 6 11 11 23 24 23 25 29 29 34 42 47 46 43
24 31 32 28 16 14 14 20 25 29 32 44 52 49 51 51 53 48 38 46 92 77 87 80 84 77 67 68 56 72 86 84 68 35 19 7 10 19 26 25 26 30 32 34 39 46 52 48 46
29 27 23 20 19 20 21 29 18 24 28 38 50 66 63 62 55 52 49 65 89 91 76 94 92 84 71 68 59 67 83 83 61 27 14 9 12 24 28 28 30 34 35 38 42 48 54 53 52
31 26 22 21 20 28 28 25 41 46 46 61 68 81 82 68 63 53 46 54 71 91 70 92 90 91 79 75 65 68 81 69 53 24 9 10 23 29 30 30 33 38 39 41 46 52 57 58 58
28 24 21 18 15 28 33 42 54 47 59 70 58 62 49 57 61 54 49 69 96 98 98 99 98 93 86 84 78 77 66 62 42 17 9 20 29 31 31 32 37 39 40 45 50 56 61 64 65
24 20 19 18 18 24 28 34 49 64 46 64 78 49 40 60 62 59 68 78 86 100 96 97 98 97 92 93 82 72 65 62 31 12 20 31 36 36 36 37 39 40 46 52 54 61 67 66 70
22 23 23 25 19 23 28 31 37 51 48 62 89 67 62 61 61 70 65 62 94 82 83 83 99 99 100 95 80 72 78 41 15 22 34 37 40 40 38 38 40 40 52 53 63 59 72 68 74
25 24 27 24 19 21 24 24 31 49 44 59 55 95 87 70 59 65 65 71 83 82 72 82 79 92 95 97 87 84 75 32 22 34 41 46 54 58 44 43 42 40 50 50 57 60 69 69 67
24 24 22 24 23 26 29 36 38 44 50 58 42 72 56 73 62 61 66 64 64 68 66 72 92 85 97 94 92 89 78 48 53 47 58 66 62 48 45 44 43 48 44 50 64 65 70 65 65
26 23 22 24 24 31 33 42 39 42 63 49 39 35 51 76 65 76 78 98 98 76 93 99 100 99 100 100 100 100 98 91 54 88 67 72 57 58 54 53 46 44 50 61 58 76 68 66 65
26 28 23 23 31 31 39 37 44 48 71 46 26 20 47 85 84 93 96 97 98 99 96 99 100 100 99 100 99 98 99 96 96 80 81 60 59 52 62 54 50 51 59 58 77 75 75 68 50
29 29 32 28 33 40 40 45 53 56 59 61 22 28 57 86 85 98 88 99 93 96 95 96 100 96 100 100 100 100 98 98 97 94 73 66 58 66 66 58 54 59 60 78 77 76 72 49 52
33 33 34 36 37 41 48 41 42 38 53 76 43 33 30 52 79 99 99 98 98 98 97 94 91 99 100 100 98 100 100 97 96 96 83 79 78 65 60 72 62 60 75 74 60 56 56 54 41
35 32 40 45 32 40 43 37 36 40 71 80 83 43 31 49 82 92 99 95 99 99 97 100 100 100 100 100 100 98 100 98 100 93 96 98 90 62 70 56 57 80 77 58 55 59 55 47 39
29 36 45 37 38 40 38 32 50 58 64 73 67 51 30 63 97 99 91 95 96 98 99 99 98 98 98 97 95 99 100 99 99 88 89 87 81 65 53 67 85 89 71 58 56 57 48 49 42
34 45 36 34 38 35 33 25 47 59 52 67 61 33 33 44 68 83 95 96 99 100 100 98 93 79 57 66 81 82 87 88 82 69 73 77 44 51 85 82 86 77 70 58 56 56 55 46 49
27 27 25 25 30 33 32 23 28 49 53 59 57 28 32 33 35 41 46 59 79 91 96 86 71 60 60 66 47 67 55 43 42 59 76 86 62 65 81 72 80 78 64 56 53 55 60 56 63
26 25 26 26 26 32 29 26 31 38 51 53 59 32 27 26 21 27 31 28 33 57 73 63 53 58 49 44 25 24 52 52 73 86 86 89 79 85 89 84 92 75 61 48 54 59 62 62 67
28 29 30 32 29 33 31 28 28 36 50 53 63 69 47 22 21 22 26 35 36 42 51 64 61 66 73 72 38 44 64 76 73 78 80 77 86 94 92 86 79 68 58 50 55 58 58 69 76
31 29 31 30 31 29 34 34 28 32 43 47 61 71 77 50 24 26 30 37 43 49 55 58 61 69 67 66 66 70 71 69 70 74 77 85 89 93 89 92 87 62 53 50 52 59 65 78 89
32 32 38 34 32 31 36 37 22 31 36 38 50 64 72 62 29 25 28 31 37 44 46 55 61 64 69 68 70 72 72 77 77 76 73 84 85 87 91 87 92 66 61 57 54 62 71 81 93
33 34 39 35 35 35 29 28 29 29 28 25 37 51 64 69 60 34 27 30 34 38 43 48 46 53 57 66 69 68 70 76 71 68 77 88 83 83 89 83 81 77 67 63 58 70 85 87 99
34 37 38 53 46 40 32 32 28 24 26 25 27 35 43 62 68 61 47 28 29 33 37 40 46 49 49 44 58 62 64 72 71 73 81 91 88 87 94 93 87 92 73 64 64 84 89 99 100
36 36 37 54 86 55 44 32 20 26 27 28 27 28 35 46 53 66 74 66 46 30 31 36 40 44 48 46 51 58 63 69 72 76 84 80 77 84 97 96 97 100 79 64 71 83 93 99 96
36 36 34 33 39 53 46 36 28 23 23 23 25 28 30 35 42 54 66 75 76 67 41 34 35 44 46 50 56 61 68 78 78 83 84 84 88 94 99 98 100 99 92 74 81 97 100 100 100
35 41 36 31 47 46 26 24 41 32 27 25 28 30 38 46 48 48 56 64 74 74 79 58 44 40 46 50 56 61 72 80 78 75 80 88 97 98 99 99 100 99 100 99 99 96 89 99 98
32 33 42 36 32 44 51 31 30 38 34 31 27 30 32 35 48 35 44 54 64 72 78 87 75 55 52 56 59 69 74 79 79 68 76 87 75 73 78 100 100 100 99 100 99 99 98 98 95
29 32 36 36 33 41 44 42 28 30 27 27 28 29 30 35 37 40 20 47 64 74 79 92 86 79 65 64 66 67 76 79 74 76 83 62 65 63 67 69 85 99 99 99 97 97 96 96 90

GFSSGP_700_rhum_081.txt.gz
RH
10 19 23 26 29 32 29 26 22 20 22 29 26 28 33 33 32 30 34 49 60 56 73 97 72 58 55 51 49 54 54 45 40 23 12 8 6 7 9 16 16 17 20 20 20 24 31 32 32
15 25 21 35 32 30 26 20 20 28 36 28 24 27 31 34 35 35 31 33 37 30 58 97 96 81 72 66 61 72 75 68 62 38 18 7 7 8 14 18 18 22 22 23 27 33 37 38 39
23 25 26 35 33 35 30 28 25 22 25 28 31 39 47 41 40 44 22 13 23 24 42 89 98 89 88 76 65 70 80 69 64 44 17 6 9 10 18 20 21 25 25 28 34 40 42 40 39
24 27 30 29 26 22 30 25 26 20 17 17 20 27 43 50 49 78 64 45 40 40 36 78 98 94 84 73 72 76 66 65 51 33 17 7 10 14 21 22 26 28 30 35 42 46 44 44 46
24 27 28 28 26 23 27 29 25 20 23 32 31 34 24 37 42 65 84 65 62 68 49 98 96 86 84 88 92 84 76 63 51 29 18 8 11 21 22 24 29 31 34 39 47 50 50 48 52
22 32 32 29 25 23 25 25 24 29 36 38 41 57 51 51 60 72 63 56 53 80 87 99 99 82 83 94 81 76 78 76 60 29 12 10 16 25 25 26 32 35 38 42 49 53 54 54 57
25 26 26 22 20 24 28 29 30 33 50 54 52 52 52 56 64 63 51 48 60 90 96 100 98 97 87 84 75 72 76 77 58 26 9 11 25 27 27 31 35 36 38 42 47 54 58 59 62
31 30 26 21 26 26 25 27 28 31 43 51 59 62 73 78 84 64 62 60 80 67 99 100 99 96 93 87 80 77 81 70 52 22 10 20 29 31 32 34 39 39 40 44 44 49 60 60 62
26 27 23 24 26 25 25 26 31 46 48 53 60 61 48 93 69 63 76 60 76 71 60 76 100 100 94 90 85 81 76 64 44 16 11 28 34 35 36 40 42 44 41 42 40 52 48 52 57
29 23 25 24 25 23 26 26 32 37 55 68 70 66 49 66 84 62 67 70 62 62 50 98 89 98 99 98 88 76 66 64 35 13 20 33 39 43 46 42 41 41 41 46 52 45 47 54 61
32 27 24 24 22 24 28 32 38 46 56 69 64 63 42 39 51 61 58 73 68 72 77 74 74 84 84 96 86 77 70 62 28 22 37 38 56 54 52 46 40 42 44 54 49 45 50 60 65
29 28 26 25 22 24 26 34 40 45 49 52 51 37 44 42 54 58 59 70 58 66 82 75 98 94 89 98 90 87 83 86 83 36 60 49 58 67 59 45 47 47 54 53 52 49 60 64 53
31 30 28 32 32 32 32 41 39 43 39 48 31 36 27 34 79 78 66 85 74 70 75 94 98 94 100 100 98 99 90 86 90 57 89 62 80 67 49 51 50 59 59 56 50 59 72 65 50
32 30 29 29 33 31 40 40 46 44 40 39 30 47 25 27 63 86 82 89 84 93 86 87 97 100 100 100 100 100 100 100 92 95 83 77 82 71 53 54 50 57 57 55 62 74 68 61 53
38 39 37 32 37 38 38 39 50 46 38 41 64 50 30 28 78 100 100 86 95 86 98 94 99 98 100 96 100 98 99 100 100 95 93 87 79 59 62 53 51 53 52 63 72 64 51 54 54
34 34 34 32 37 32 34 35 46 41 45 45 47 62 40 39 100 98 99 100 99 91 72 96 97 99 82 97 99 100 98 98 98 98 99 92 74 66 64 75 67 49 63 76 59 53 52 48 45
40 41 34 36 40 40 37 39 39 44 37 66 81 73 36 34 90 100 93 99 99 97 94 95 80 87 100 100 100 100 100 98 100 98 96 82 82 67 69 72 64 62 83 67 58 54 53 52 47
35 38 34 34 35 40 34 38 39 40 48 56 70 56 23 22 38 90 98 97 97 99 99 99 98 100 100 98 99 100 100 100 98 87 84 95 77 76 72 65 46 80 77 71 61 57 51 48 48
37 36 33 27 31 36 33 33 31 37 51 55 64 46 26 23 28 39 72 89 99 100 96 93 82 78 79 81 85 79 76 83 94 93 89 85 79 83 83 63 86 81 76 74 62 53 49 47 54
36 33 27 26 30 36 32 32 27 40 44 52 52 51 27 16 20 26 25 62 71 67 60 56 56 56 56 54 60 64 66 68 74 62 68 76 79 84 83 70 78 79 72 68 67 54 56 47 55
33 30 28 28 31 30 31 34 33 36 48 53 52 48 31 23 22 21 26 29 43 53 52 51 42 34 34 20 25 47 42 42 43 54 64 73 90 88 94 79 72 82 73 64 66 54 51 52 54
33 31 30 33 33 31 34 37 33 36 47 49 52 50 29 27 24 26 28 32 39 41 47 49 45 53 55 51 43 50 59 60 68 74 79 81 79 82 88 82 81 78 68 69 62 57 56 54 58
34 31 33 37 36 34 34 38 34 30 38 48 47 49 41 32 26 24 26 31 36 33 39 44 50 49 47 54 59 60 64 70 75 77 74 76 84 89 89 86 81 74 77 69 65 61 56 62 69
31 33 33 38 39 43 35 38 40 34 31 36 40 43 42 39 40 30 26 28 32 34 34 38 44 49 50 53 60 66 68 75 72 69 64 72 83 88 85 86 86 86 84 87 85 68 62 72 82
32 33 43 58 60 64 48 51 40 30 29 29 31 38 36 42 43 43 43 26 26 28 32 34 34 34 38 42 44 45 54 63 66 67 69 79 85 85 92 98 96 99 100 99 97 98 80 72 82
29 32 42 64 85 82 52 57 34 28 29 32 30 33 37 46 49 50 46 46 44 28 29 32 35 39 44 45 49 51 54 56 60 62 65 77 89 93 91 85 86 97 99 100 100 99 100 86 94
34 36 36 41 56 66 56 40 34 36 32 26 24 25 28 40 46 50 53 53 53 51 44 32 31 34 39 42 45 48 57 65 62 67 73 86 89 87 88 84 89 99 97 95 89 99 98 98 99
30 37 38 38 74 82 45 46 36 35 31 27 26 28 30 39 50 55 55 54 56 57 52 52 51 48 39 39 44 50 54 59 70 72 79 82 86 80 64 73 66 68 82 100 99 99 98 99 99
33 34 43 47 46 59 60 39 30 33 31 30 29 30 30 32 36 39 51 55 62 59 57 56 54 48 52 65 55 44 51 62 72 73 84 84 81 82 76 70 65 71 62 100 94 97 98 99 96
29 32 34 41 46 40 41 42 33 40 32 28 28 28 30 32 31 34 28 47 60 58 63 60 59 47 47 58 67 78 59 61 76 81 82 76 80 79 69 62 74 76 85 100 83 97 99 99 86

GFSSGP_700_rhum_084.txt.gz
RH
10 17 22 22 25 28 28 28 33 35 38 44 35 31 36 37 36 44 42 36 50 59 53 64 67 68 74 80 60 50 49 38 23 16 14 10 12 8 12 16 15 14 18 18 16 16 19 23 27
13 22 25 25 29 30 27 26 27 28 26 25 26 25 27 32 33 33 40 50 50 42 70 54 71 90 96 92 66 67 59 47 32 20 10 6 7 8 16 18 16 20 20 19 22 25 28 30 31
14 23 27 29 31 30 30 28 36 31 23 20 19 19 23 29 31 40 42 34 54 62 62 87 89 73 99 99 85 84 79 58 39 24 12 6 6 10 18 17 19 22 22 23 29 35 36 34 33
18 22 25 28 27 25 26 27 38 32 26 24 29 36 40 42 50 51 58 54 65 60 80 75 78 83 86 100 98 93 87 63 41 30 12 6 9 13 17 18 22 24 26 30 36 40 39 39 36
19 26 26 27 25 21 23 34 37 40 33 38 35 44 51 61 76 64 60 50 58 60 61 71 84 81 78 99 99 96 90 60 44 30 13 8 11 18 19 21 24 27 31 36 42 43 45 42 38
14 27 28 26 21 22 30 29 29 32 30 44 46 46 47 63 66 58 58 69 56 63 69 85 69 98 83 95 94 95 87 78 58 29 13 9 12 20 21 25 28 30 34 39 45 48 50 47 38
24 28 25 22 23 24 30 28 34 39 42 52 60 59 55 50 48 61 71 66 64 68 74 86 83 85 74 99 96 99 100 86 63 27 11 10 15 22 25 28 32 34 34 41 49 53 53 53 40
25 28 22 24 24 25 26 26 29 39 50 50 51 51 49 38 59 65 59 76 70 75 87 99 85 82 99 99 99 100 100 96 64 24 10 11 20 25 27 33 35 35 38 48 52 57 54 53 51
28 28 24 24 24 26 27 28 36 43 48 46 48 49 45 41 42 50 55 79 78 82 86 74 80 78 98 100 99 90 98 88 59 22 11 16 26 30 31 36 39 39 42 47 50 48 42 63 54
32 31 25 26 25 25 28 25 28 42 40 40 47 46 39 27 32 38 59 76 80 74 91 65 93 98 99 100 99 99 99 76 55 23 12 23 30 32 37 40 41 43 45 40 44 41 55 68 56
33 32 30 29 27 27 27 30 30 40 38 38 42 46 24 29 32 54 82 73 80 82 87 85 90 100 99 100 100 97 89 70 54 19 12 25 33 44 46 47 37 41 36 45 46 58 61 60 58
30 30 32 30 31 32 33 31 29 41 42 43 40 48 32 28 26 56 87 79 87 78 83 84 64 90 97 100 99 94 78 73 52 17 19 29 31 46 48 59 48 44 42 44 50 51 62 66 58
34 34 33 33 31 30 34 33 33 40 46 45 42 38 33 28 27 34 76 90 85 81 85 81 83 71 69 75 85 93 76 69 46 46 54 28 63 50 60 56 52 45 44 57 52 54 65 69 55
35 34 33 31 30 28 35 38 36 41 41 44 41 39 27 20 27 74 85 94 94 97 80 90 83 82 83 95 100 95 79 85 84 97 68 35 93 62 67 62 51 45 51 55 51 61 66 58 48
37 36 31 25 30 33 39 34 36 37 47 39 38 40 23 22 52 95 98 100 99 99 82 97 95 97 98 95 100 98 87 95 98 94 47 69 75 75 73 62 51 49 55 54 54 66 61 57 52
32 32 33 30 32 33 38 32 31 37 42 38 39 40 23 23 66 97 94 97 100 98 96 87 84 100 97 100 100 99 100 100 99 84 76 78 94 80 63 59 57 53 51 48 71 55 52 56 50
36 40 31 32 36 35 36 32 36 38 43 40 46 33 29 25 36 85 88 99 98 98 99 100 99 86 98 88 92 100 100 100 100 99 99 98 84 76 62 58 55 54 50 66 69 59 54 47 46
32 40 39 38 36 37 34 34 38 43 42 39 48 38 50 24 21 44 70 91 100 98 99 90 100 87 95 92 98 100 100 99 100 100 100 99 97 71 70 57 58 66 54 80 71 60 49 49 45
26 40 41 39 31 36 37 35 36 44 41 39 43 43 55 17 19 19 25 61 96 86 91 98 99 100 100 100 100 100 100 97 87 99 100 100 82 87 68 69 72 57 70 82 76 61 52 48 52
36 41 39 36 27 32 34 34 35 35 31 34 43 46 54 21 20 21 24 36 39 66 68 74 78 70 93 96 100 100 96 78 84 98 99 76 74 71 72 73 72 76 80 70 65 65 59 48 46
39 42 39 31 28 32 33 35 35 34 34 38 45 50 45 23 21 24 28 30 41 44 40 27 18 26 45 52 58 62 66 74 83 84 78 72 73 76 74 79 75 75 76 73 81 82 63 53 46
45 39 34 32 38 36 34 39 33 35 39 38 42 42 45 37 20 21 23 23 34 46 46 27 28 24 27 39 36 40 44 46 52 61 66 74 78 76 90 80 74 70 84 88 92 90 89 73 56
41 39 33 32 34 37 36 39 34 38 40 38 39 38 42 47 33 23 24 26 27 34 46 43 49 51 43 43 49 52 53 53 59 62 69 73 77 83 80 85 91 90 90 86 90 91 84 74 70
38 34 32 34 40 47 47 47 34 35 34 36 41 39 38 39 47 35 28 32 29 30 32 42 48 49 47 50 54 57 61 66 68 69 67 72 79 82 84 85 85 90 86 88 92 96 96 95 93
32 33 40 50 53 61 48 51 42 34 32 31 33 33 34 38 43 47 43 29 26 25 28 31 32 34 44 50 51 58 67 72 70 67 70 73 76 80 78 86 92 97 98 97 92 98 95 100 100
33 32 39 58 76 68 50 47 38 37 36 35 31 32 33 38 41 44 46 50 47 30 27 28 31 34 35 38 39 43 49 58 65 61 65 71 77 86 92 92 97 99 94 91 98 78 98 82 99
31 33 32 34 62 66 51 44 40 33 33 30 32 27 34 37 39 41 47 52 54 54 52 44 30 31 34 38 41 42 46 50 56 59 61 63 71 80 85 97 97 93 84 68 65 89 92 96 97
32 30 36 41 77 74 56 52 42 36 32 28 25 25 26 29 33 38 49 53 52 53 53 53 54 50 39 38 38 40 44 48 60 64 64 69 74 91 93 96 90 94 80 72 74 71 98 94 100
31 32 38 38 40 74 67 43 34 31 30 30 27 27 28 30 34 40 36 36 54 53 54 53 51 51 54 55 58 55 50 44 50 63 66 68 77 89 95 95 95 99 74 70 80 74 98 74 93
31 31 31 41 51 48 46 47 31 36 35 31 29 30 30 28 29 31 31 32 30 36 51 54 53 56 56 56 52 47 60 72 85 65 71 80 94 96 99 94 100 88 70 81 86 72 83 98 98

GFSSGP_700_rhum_087.txt.gz
RH
9 12 16 24 25 26 26 26 27 31 35 30 27 26 30 29 32 40 41 41 52 66 74 74 67 67 73 64 51 52 54 68 45 34 27 25 21 15 6 8 13 12 12 16 16 15 16 22 24
10 15 24 23 28 29 26 25 26 33 36 33 30 32 26 26 31 48 45 44 44 66 64 80 79 68 73 84 74 50 44 41 36 33 23 15 13 13 6 10 12 14 17 16 15 17 22 28 30
10 16 26 27 28 26 27 23 25 33 39 42 43 38 35 43 38 40 46 56 59 51 60 65 87 82 85 77 59 48 44 50 41 31 17 8 8 9 11 14 15 18 19 18 19 22 31 35 34
11 17 23 26 26 23 23 28 31 31 44 38 45 48 46 43 45 61 62 55 59 60 60 87 95 80 71 62 82 71 57 67 46 34 18 8 8 8 11 16 18 20 19 20 22 29 34 34 38
12 26 26 27 22 24 29 31 29 29 44 42 44 47 43 52 51 53 73 65 65 62 64 64 72 76 60 87 61 82 91 78 60 36 19 9 9 11 12 16 20 23 23 24 28 33 33 33 37
13 25 26 23 24 26 28 30 32 35 42 46 44 43 48 52 47 55 64 62 63 66 77 67 70 75 81 99 87 67 95 91 71 49 17 9 12 20 20 18 24 26 28 31 30 30 33 32 35
20 26 23 22 25 26 27 32 32 32 44 48 44 49 50 49 41 60 73 72 70 68 68 71 76 85 86 94 94 73 92 100 79 54 14 10 18 22 25 24 26 29 33 36 33 29 30 33 37
26 27 22 24 25 25 25 30 33 30 36 41 43 48 49 45 34 59 58 62 68 73 74 76 92 99 96 85 99 95 96 99 98 51 12 13 25 25 28 29 30 33 37 37 33 34 38 39 41
29 29 24 24 26 28 27 28 41 33 41 42 40 44 47 30 33 44 60 60 58 57 69 82 97 83 92 96 98 99 87 99 93 43 12 16 27 28 31 32 35 39 42 43 42 42 39 36 46
33 30 24 30 31 30 29 30 34 31 29 38 43 45 49 40 28 44 57 66 64 60 82 90 100 100 99 99 97 92 100 98 92 34 13 21 29 31 32 35 40 41 41 38 43 52 50 42 59
28 27 30 30 32 31 33 35 34 32 30 33 40 45 38 39 27 26 53 79 63 66 79 95 82 90 98 99 100 94 99 100 76 24 13 25 31 32 33 37 42 44 41 41 51 56 43 51 60
32 32 32 35 34 34 35 35 34 34 34 34 39 42 38 31 22 27 41 87 79 76 83 84 82 98 99 98 100 99 100 96 63 21 15 27 30 32 41 42 41 46 43 39 58 46 44 55 64
30 31 33 35 35 37 35 31 34 39 38 37 41 42 41 35 34 33 80 87 99 95 94 89 81 76 99 100 100 97 100 91 71 21 18 31 34 38 41 46 52 49 44 48 45 53 55 56 62
29 30 31 30 33 37 30 29 36 35 36 35 38 41 37 25 33 58 99 97 98 91 96 96 95 81 86 98 97 100 100 98 86 44 27 36 38 38 53 65 60 54 49 53 55 51 41 65 55
26 28 18 19 28 28 32 35 35 31 33 36 39 41 33 35 27 77 95 99 99 99 88 100 99 100 96 84 89 98 96 96 58 34 36 74 42 52 66 61 63 56 48 55 60 50 60 58 44
29 24 20 27 30 34 36 33 31 33 35 37 39 44 34 28 27 76 83 96 85 100 84 93 95 100 100 98 93 100 92 86 35 56 56 54 52 70 78 64 72 54 54 65 56 54 66 48 45
35 19 20 28 36 37 39 35 32 34 36 37 38 43 35 33 24 56 76 87 90 80 89 100 85 100 100 100 100 100 96 78 58 72 100 76 63 79 79 75 74 57 61 66 58 72 58 44 45
24 23 25 39 34 40 39 37 35 36 37 34 36 41 40 39 21 25 58 89 92 100 88 99 95 92 99 92 100 99 99 88 99 100 100 96 86 93 90 81 70 58 61 60 49 75 59 51 55
30 34 38 39 35 40 33 35 34 34 36 31 33 39 41 47 20 24 40 82 100 88 90 100 100 100 100 100 96 92 98 97 98 100 100 97 99 99 80 67 62 60 58 54 69 81 66 59 47
36 36 24 36 35 38 31 32 32 34 34 33 35 40 48 43 21 24 30 36 80 95 98 88 86 99 96 100 100 100 100 100 100 100 100 100 98 88 73 63 62 58 73 54 74 68 71 68 58
28 29 34 36 35 38 36 36 34 33 33 33 33 36 37 40 22 21 24 35 31 31 54 55 77 97 89 99 99 99 100 100 99 99 100 92 100 89 74 75 66 70 77 76 77 77 86 93 81
31 32 36 40 41 38 38 42 36 34 33 34 36 37 38 43 31 20 21 21 29 32 14 13 24 41 59 89 98 98 98 97 81 90 97 100 91 82 72 64 66 76 87 81 78 85 94 95 89
35 37 41 40 42 38 37 40 36 36 34 33 35 36 37 45 41 23 23 23 22 30 34 36 35 34 35 40 48 53 57 62 65 65 68 66 70 68 65 69 79 79 73 73 80 86 94 95 100
38 41 41 42 40 51 40 43 37 34 25 31 32 35 38 42 49 45 24 23 22 21 20 27 36 36 38 42 43 47 51 53 56 60 63 69 70 69 74 76 83 80 83 84 86 91 98 98 100
37 42 50 54 52 61 38 56 37 29 30 34 30 32 33 37 41 48 41 39 28 23 24 24 26 30 39 44 45 51 52 53 57 60 63 67 72 73 72 84 84 85 87 88 90 96 95 92 87
36 38 45 57 73 55 51 58 38 33 34 33 30 31 32 35 36 42 43 44 49 38 26 26 28 31 31 34 40 49 54 52 59 63 64 68 69 72 81 86 87 94 93 96 90 85 85 82 99
31 39 35 36 59 70 50 46 37 35 34 32 30 32 30 33 35 40 44 46 50 50 48 46 32 29 33 36 37 40 44 46 50 52 56 62 74 80 86 88 86 90 94 90 85 85 78 82 64
30 34 37 44 73 80 61 50 39 36 34 32 31 30 27 26 32 34 38 44 49 52 53 51 56 36 36 37 39 41 43 46 49 53 57 61 66 72 74 81 87 90 94 96 91 92 97 83 92
34 36 37 36 38 54 70 49 36 35 31 32 29 26 26 28 29 30 32 40 38 51 52 53 50 56 54 48 46 44 44 43 45 46 49 62 70 74 78 77 91 99 100 100 95 78 75 81 78
36 32 33 42 54 45 43 45 33 33 32 31 33 29 29 30 29 27 31 30 31 32 33 48 55 52 54 63 62 60 64 65 68 73 77 76 67 70 83 99 99 98 100 99 99 89 76 90 87

GFSSGP_700_rhum_093.txt.gz
RH
8 8 14 22 25 25 24 24 24 24 33 37 36 37 31 28 32 32 32 35 49 49 46 64 65 50 57 65 81 78 66 66 63 60 53 65 86 65 55 18 7 12 11 12 14 14 15 19 20
8 9 18 24 25 24 26 30 30 26 31 30 26 27 27 28 35 40 46 41 36 38 47 73 77 68 68 70 74 68 65 66 72 79 60 50 82 51 42 19 9 14 12 14 15 14 21 27 28
9 9 20 25 25 25 29 30 27 27 26 25 28 29 34 40 45 49 47 42 36 38 50 61 85 75 77 74 71 71 65 68 71 73 66 82 63 41 35 17 14 14 15 16 15 21 30 32 32
10 10 17 24 25 26 29 29 25 26 27 28 30 32 38 45 47 48 47 45 43 44 54 65 86 75 84 80 78 75 71 73 69 77 72 60 47 40 34 11 16 16 19 17 20 28 34 34 34
10 10 16 21 25 27 28 29 29 30 31 32 32 36 41 41 46 45 50 40 46 57 66 98 96 91 85 74 82 84 68 66 60 64 73 52 46 39 29 11 19 18 20 22 26 35 35 37 38
11 11 21 19 25 27 26 28 31 31 31 32 33 43 35 40 44 47 40 38 54 76 79 96 98 98 94 86 86 92 80 60 58 57 69 65 46 34 16 15 19 21 21 27 34 35 39 39 37
12 13 14 22 24 26 27 29 28 28 30 31 34 42 37 42 46 44 42 36 58 75 86 83 100 100 98 89 92 91 79 71 67 52 56 67 42 29 14 21 21 23 26 35 37 39 40 37 39
14 18 16 15 20 26 30 29 29 28 30 32 32 38 38 46 46 29 40 32 50 61 78 95 90 85 79 92 98 97 89 80 74 55 56 58 44 24 16 23 24 25 38 42 41 42 42 44 42
14 16 19 19 22 28 32 31 32 32 33 34 35 36 40 46 46 35 37 29 36 63 65 91 93 92 96 88 90 94 92 89 71 76 68 58 47 22 23 26 26 32 43 46 44 43 44 47 42
14 14 13 18 24 31 32 34 33 30 33 32 36 41 44 45 44 39 34 32 29 38 64 71 82 79 90 96 97 95 98 98 96 85 78 62 66 25 27 29 30 38 48 49 47 45 47 45 51
16 14 14 18 24 32 32 33 34 33 32 32 37 42 43 43 45 42 31 28 38 38 51 70 74 86 88 95 100 99 98 97 98 88 90 82 74 30 29 30 34 46 51 47 50 50 48 49 51
19 18 18 16 26 32 31 30 30 32 28 31 39 41 40 43 44 42 31 32 77 75 80 72 74 75 77 92 99 100 100 99 98 98 96 98 91 22 28 31 36 44 47 56 53 47 53 44 49
14 15 18 16 20 29 32 29 32 26 29 33 38 34 38 43 41 39 34 45 91 80 82 85 68 75 84 87 96 97 100 96 99 99 98 98 49 24 32 33 40 52 55 59 51 58 55 43 39
15 14 16 18 16 26 30 28 30 25 36 33 35 36 38 43 38 51 31 47 76 84 95 93 94 99 100 98 99 97 94 99 99 100 99 99 43 29 35 36 44 54 47 52 48 62 50 45 43
16 14 14 14 17 20 21 19 21 38 36 34 35 37 39 44 44 49 24 42 84 76 99 89 89 100 94 97 100 100 98 100 100 100 99 99 34 35 40 41 47 50 48 55 59 59 51 51 48
22 24 21 17 18 25 34 31 34 35 36 35 36 38 39 44 50 44 23 34 78 86 89 92 92 96 99 86 100 100 99 100 100 100 98 99 41 42 42 46 46 55 57 63 63 60 57 60 62
26 31 25 17 16 20 36 35 34 33 33 33 34 35 37 45 52 40 24 37 70 86 88 98 94 100 98 100 100 99 99 100 99 98 100 100 56 52 53 53 59 61 63 63 75 62 68 71 77
32 26 21 17 21 17 36 36 33 30 33 34 34 34 36 46 54 33 23 37 66 92 90 80 85 98 99 100 100 99 99 100 100 100 100 100 89 68 63 65 64 71 71 75 76 62 83 78 75
33 30 28 20 29 23 21 35 34 29 30 33 33 33 35 46 44 30 21 34 83 96 92 82 82 100 99 99 100 100 99 100 100 100 100 100 99 92 81 72 67 76 79 80 81 66 80 67 73
28 30 25 21 22 28 27 33 34 33 29 32 34 34 35 37 40 37 19 28 69 98 89 82 81 81 97 100 100 99 99 99 98 99 99 100 100 98 97 86 87 96 95 90 87 67 68 68 76
27 30 24 25 27 32 22 27 36 33 35 35 33 32 32 35 41 38 20 23 26 73 79 76 79 91 98 100 99 100 99 100 98 98 99 98 98 99 99 98 98 98 97 96 81 67 66 68 77
24 20 26 27 47 42 31 39 41 33 29 30 30 30 33 34 40 40 22 19 24 24 51 66 75 89 98 98 100 100 100 99 99 93 80 84 87 97 95 98 96 95 98 96 75 68 67 78 73
30 36 36 36 43 47 47 50 43 40 33 27 30 32 34 35 36 41 26 21 21 27 26 35 43 51 81 99 98 100 98 99 98 98 90 97 99 93 99 98 98 99 99 76 73 70 76 79 82
45 49 52 54 56 58 54 48 42 35 30 27 36 31 31 35 39 43 42 26 22 22 30 30 29 32 43 71 93 93 98 100 99 98 95 97 99 98 99 100 100 98 97 80 84 81 83 90 89
41 52 46 58 62 51 43 47 39 35 30 29 24 32 36 34 37 41 39 42 28 23 24 31 31 29 28 35 48 63 72 88 94 98 100 98 100 99 93 92 92 92 90 73 72 77 84 87 88
34 38 42 47 53 43 49 56 38 34 28 29 30 29 35 34 33 33 35 40 45 34 25 26 29 32 32 32 32 40 46 55 66 77 84 83 69 71 72 74 74 72 69 66 75 75 76 92 96
40 52 36 36 45 56 49 47 37 34 28 30 31 32 33 33 31 33 36 41 42 44 47 33 28 30 32 35 38 38 38 38 40 50 57 61 63 66 64 64 66 70 73 72 72 75 83 93 95
39 34 49 53 48 44 46 50 38 33 30 35 31 34 32 32 30 33 39 42 40 47 50 49 48 33 32 34 37 40 43 44 44 45 46 49 53 58 63 68 69 72 74 76 79 83 88 92 91
41 42 40 42 44 43 42 44 37 34 32 29 32 33 34 31 31 32 36 38 37 40 44 54 52 52 48 33 36 39 41 45 49 50 51 53 58 60 65 68 71 74 77 80 83 86 90 97 100
49 46 42 43 43 54 46 39 35 32 33 32 32 32 29 28 27 27 29 30 32 34 40 40 38 50 54 56 52 41 44 47 49 50 54 58 63 68 69 72 75 77 81 89 96 97 98 98 99

GFSSGP_700_rhum_096.txt.gz
RH
6 7 10 18 28 23 20 22 25 26 30 32 26 25 35 33 39 36 30 28 36 50 62 50 71 74 74 75 61 57 74 78 77 72 71 61 60 54 78 40 7 13 13 14 12 12 14 14 16
7 8 15 25 23 17 17 25 25 26 30 25 25 25 28 40 36 41 39 42 43 39 36 57 61 71 77 73 64 68 74 74 65 76 74 69 60 75 41 45 8 15 13 15 16 15 16 20 22
7 8 24 27 22 17 18 25 25 27 26 27 28 28 31 44 38 37 37 42 46 43 41 38 50 79 72 72 63 78 79 70 63 80 78 74 71 71 49 38 10 16 15 16 17 17 23 28 28
8 9 12 24 20 22 23 25 25 25 27 28 30 32 33 35 40 42 44 50 49 39 34 44 45 82 84 67 75 82 81 67 71 94 75 82 78 72 40 32 10 17 18 17 22 25 31 33 32
9 11 20 18 21 25 27 29 27 29 30 29 30 38 31 29 42 44 48 54 49 31 38 62 92 94 94 80 81 83 70 70 77 82 72 70 62 54 39 33 12 18 19 22 28 33 35 35 35
20 15 19 14 20 26 28 29 28 29 30 29 29 30 32 32 40 49 51 51 43 31 50 72 83 100 100 87 87 73 78 76 79 76 76 77 55 48 38 29 15 19 20 27 35 38 40 40 34
21 21 16 16 18 24 26 28 28 31 30 31 29 32 42 34 43 52 51 48 33 31 55 68 75 81 99 98 88 78 85 76 74 72 73 76 66 50 37 19 18 21 24 35 41 42 43 40 35
22 24 20 17 15 21 27 28 28 31 31 29 31 36 44 42 44 51 52 44 38 33 48 61 72 94 95 97 96 96 98 88 69 68 67 73 81 60 33 14 22 24 31 42 43 48 45 40 39
12 25 20 17 18 18 28 28 33 29 29 27 29 32 36 42 45 49 49 53 49 36 52 51 61 76 98 95 74 98 100 98 72 77 67 56 70 62 26 17 23 25 38 45 46 49 49 45 43
20 23 19 20 20 22 28 32 34 34 33 34 40 34 35 43 46 49 50 52 56 49 46 67 60 79 84 77 80 77 98 99 89 84 67 60 64 68 23 20 25 27 44 47 52 55 53 47 46
24 25 20 23 22 28 29 31 34 36 32 32 35 40 38 39 42 47 48 46 37 57 79 64 72 74 78 90 89 74 86 97 96 85 76 71 69 60 31 23 27 32 48 53 56 56 53 51 51
25 27 23 24 25 25 28 29 32 33 33 36 30 34 34 36 40 46 40 45 24 63 80 86 80 80 80 83 98 97 98 99 95 96 86 85 82 64 35 25 27 33 47 54 54 54 51 50 52
21 29 28 25 17 22 26 22 31 29 31 36 34 32 35 37 40 44 45 34 23 67 85 90 95 88 81 75 82 98 97 99 98 99 92 96 86 75 55 34 28 31 49 58 59 55 49 50 57
27 33 29 28 27 28 32 25 27 17 30 31 34 33 36 37 39 44 48 35 25 69 78 85 97 94 90 76 76 89 99 94 99 99 99 98 90 85 85 46 32 34 56 59 60 54 59 58 53
25 32 30 31 30 29 29 27 24 25 37 37 34 34 36 37 39 43 42 33 26 66 73 82 84 89 91 92 88 93 96 98 100 99 100 100 100 99 100 45 35 40 54 61 53 53 48 56 53
31 37 33 28 23 29 28 22 33 37 36 34 34 33 34 36 40 46 31 22 26 51 69 79 85 93 95 95 96 100 99 97 100 99 98 100 100 100 99 40 41 43 52 55 49 49 51 60 61
36 32 27 30 32 26 28 26 33 34 33 31 32 32 34 35 38 46 27 16 28 48 80 84 87 96 91 78 99 98 99 98 98 99 97 99 100 97 88 44 47 49 52 49 50 59 65 68 63
31 32 33 30 26 35 29 32 30 34 31 29 33 33 33 34 38 34 23 15 28 67 88 90 86 100 96 94 98 97 100 100 100 100 100 100 100 100 42 46 47 54 51 57 55 66 69 75 71
32 34 31 28 34 37 31 25 26 30 33 32 30 33 33 34 34 31 23 16 24 77 87 83 86 89 88 98 98 100 100 100 98 98 100 100 100 91 53 49 54 61 61 64 64 74 74 73 78
40 38 31 31 32 37 32 27 28 31 32 34 34 32 32 33 34 30 24 16 20 66 79 87 85 90 80 100 98 100 100 100 100 100 100 100 98 60 53 56 59 67 66 70 73 78 78 73 71
40 36 34 34 33 37 36 30 22 24 36 32 29 32 31 30 32 32 25 18 20 52 75 78 90 86 86 99 99 100 99 99 99 100 100 100 99 69 72 73 75 75 79 80 81 83 82 79 75
38 36 39 37 34 32 34 24 20 27 32 31 32 29 29 30 33 30 26 22 21 24 51 72 77 83 88 89 98 99 100 100 100 100 100 99 99 98 91 90 84 82 85 92 88 89 89 81 73
41 42 36 43 38 36 34 34 25 28 35 32 30 34 28 34 34 29 32 26 19 25 27 38 55 72 83 97 99 99 97 100 99 100 99 100 100 100 100 97 96 95 93 96 96 84 82 78 76
49 50 52 51 46 42 40 32 23 24 33 29 33 35 32 33 35 32 35 27 23 22 26 26 27 38 60 85 99 99 100 98 99 98 100 98 100 99 100 100 99 99 99 97 93 86 77 74 81
54 52 44 48 47 41 32 37 27 34 35 34 34 35 32 32 32 35 36 32 26 23 25 26 24 25 32 47 71 98 100 96 99 99 100 96 91 97 99 98 96 100 99 95 94 85 72 76 86
35 52 39 38 36 32 40 36 32 37 35 34 29 35 35 36 34 35 31 33 32 25 25 26 28 28 29 27 36 53 70 75 98 100 99 96 91 93 96 99 100 100 99 98 85 91 83 84 85
38 49 43 36 34 41 36 41 42 36 31 33 32 32 32 35 34 34 29 33 35 36 27 26 28 31 33 34 32 31 38 46 51 61 73 88 93 98 99 99 95 84 92 94 88 82 73 71 78
32 36 46 44 44 39 27 28 32 33 34 32 37 35 34 32 33 33 32 34 38 41 47 45 33 29 32 35 38 39 38 38 40 42 46 50 55 65 68 70 71 75 74 70 68 66 64 73 76
33 40 41 37 37 36 35 26 34 34 33 33 36 34 34 33 32 32 34 37 40 40 47 50 50 48 33 31 35 38 42 44 46 45 46 47 51 54 58 61 62 63 65 66 70 71 73 75 77
54 44 35 33 32 39 37 33 36 37 39 38 34 34 32 34 32 32 34 36 39 37 38 42 52 56 54 52 35 35 38 40 43 47 51 56 58 60 62 64 66 68 71 73 75 76 80 86 91